[[{"header":{"parameterUnit":"m.s-1","parameterCategory":1,"la1":30.6,"la2":28.766,"lo1":-90.7593,"lo2":-88.6598,"dy":0.0162,"dx":0.0183,"nx":116,"ny":114,"refTime":"2024-04-28T18:00:00:Z","depth":0,"parameterNumber":2,"parameterNumberName":"U-component_of_WINDS"},"data":[0.0,0.0,0.0,0.0,0.0,0.0,0.0,0.0,0.0,0.0,0.0,0.0,0.0,0.0,0.0,0.0,0.0,0.0,0.0,0.0,0.0,0.0,0.0,0.0,0.0,0.0,0.0,0.0,0.0,0.0,0.0,0.0,0.0,0.0,0.0,0.0,0.0,0.0,0.0,0.0,0.0,0.0,0.0,0.0,0.0,0.0,0.0,0.0,0.0,0.0,0.0,0.0,0.0,0.0,0.0,0.0,0.0,0.0,0.0,0.0,0.0,0.0,0.0,0.0,0.0,0.0,0.0,0.0,0.0,0.0,0.0,0.0,0.0,0.0,0.0,0.0,0.0,0.0,0.0,0.0,0.0,0.0,0.0,0.0,0.0,0.0,0.0,0.0,0.0,0.0,0.0,0.0,0.0,0.0,0.0,0.0,0.0,0.0,0.0,0.0,0.0,0.0,0.0,0.0,0.0,0.0,0.0,0.0,0.0,0.0,0.0,0.0,0.0,0.0,0.0,0.0,0.0,0.0,0.0,0.0,0.0,0.0,0.0,0.0,0.0,0.0,0.0,0.0,0.0,0.0,0.0,0.0,0.0,0.0,0.0,0.0,0.0,0.0,0.0,0.0,0.0,0.0,0.0,0.0,0.0,0.0,0.0,0.0,0.0,0.0,0.0,0.0,0.0,0.0,0.0,0.0,0.0,0.0,0.0,0.0,0.0,0.0,0.0,0.0,0.0,0.0,0.0,0.0,0.0,0.0,0.0,0.0,0.0,0.0,0.0,0.0,0.0,0.0,0.0,0.0,0.0,0.0,0.0,0.0,0.0,0.0,0.0,0.0,0.0,0.0,0.0,0.0,0.0,0.0,0.0,0.0,0.0,0.0,0.0,0.0,0.0,0.0,0.0,0.0,0.0,0.0,0.0,0.0,0.0,0.0,0.0,0.0,0.0,0.0,0.0,0.0,0.0,0.0,0.0,0.0,0.0,0.0,0.0,0.0,0.0,0.0,0.0,0.0,0.0,0.0,0.0,0.0,0.0,0.0,0.0,0.0,0.0,0.0,0.0,0.0,0.0,0.0,0.0,0.0,0.0,0.0,0.0,0.0,0.0,0.0,0.0,0.0,0.0,0.0,0.0,0.0,0.0,0.0,0.0,0.0,0.0,0.0,0.0,0.0,0.0,0.0,0.0,0.0,0.0,0.0,0.0,0.0,0.0,0.0,0.0,0.0,0.0,0.0,0.0,0.0,0.0,0.0,0.0,0.0,0.0,0.0,0.0,0.0,0.0,0.0,0.0,0.0,0.0,0.0,0.0,0.0,0.0,0.0,0.0,0.0,0.0,0.0,0.0,0.0,0.0,0.0,0.0,0.0,0.0,0.0,0.0,0.0,0.0,0.0,0.0,0.0,0.0,0.0,0.0,0.0,0.0,0.0,0.0,0.0,0.0,0.0,0.0,0.0,0.0,0.0,0.0,0.0,0.0,0.0,0.0,0.0,0.0,0.0,0.0,0.0,0.0,0.0,0.0,0.0,0.0,0.0,0.0,0.0,0.0,0.0,0.0,0.0,0.0,0.0,0.0,0.0,0.0,0.0,0.0,0.0,0.0,0.0,0.0,0.0,0.0,0.0,0.0,0.0,0.0,0.0,0.0,0.0,0.0,0.0,0.0,0.0,0.0,0.0,0.0,0.0,0.0,0.0,0.0,0.0,0.0,0.0,0.0,0.0,0.0,0.0,0.0,0.0,0.0,0.0,0.0,0.0,0.0,0.0,0.0,0.0,0.0,0.0,0.0,0.0,0.0,0.0,0.0,0.0,0.0,0.0,0.0,0.0,0.0,0.0,0.0,0.0,0.0,0.0,0.0,0.0,0.0,0.0,0.0,0.0,0.0,0.0,0.0,0.0,0.0,0.0,0.0,0.0,0.0,0.0,0.0,0.0,0.0,0.0,0.0,0.0,0.0,0.0,0.0,0.0,0.0,0.0,0.0,0.0,0.0,0.0,0.0,0.0,0.0,0.0,0.0,0.0,0.0,0.0,0.0,0.0,0.0,0.0,0.0,0.0,0.0,0.0,0.0,0.0,0.0,0.0,0.0,0.0,0.0,0.0,0.0,0.0,0.0,0.0,0.0,0.0,0.0,0.0,0.0,0.0,0.0,0.0,0.0,0.0,0.0,0.0,0.0,0.0,0.0,0.0,0.0,0.0,0.0,0.0,0.0,0.0,0.0,0.0,0.0,0.0,0.0,0.0,0.0,0.0,0.0,0.0,0.0,0.0,0.0,0.0,0.0,0.0,0.0,0.0,0.0,0.0,0.0,0.0,0.0,0.0,0.0,0.0,0.0,0.0,0.0,0.0,0.0,0.0,0.0,0.0,0.0,0.0,0.0,0.0,0.0,0.0,0.0,0.0,0.0,0.0,0.0,0.0,0.0,0.0,0.0,0.0,0.0,0.0,0.0,0.0,0.0,0.0,0.0,0.0,0.0,0.0,0.0,0.0,0.0,0.0,0.0,0.0,0.0,0.0,0.0,0.0,0.0,0.0,0.0,0.0,0.0,0.0,0.0,0.0,0.0,0.0,0.0,0.0,0.0,0.0,0.0,0.0,0.0,0.0,0.0,0.0,0.0,0.0,0.0,0.0,0.0,0.0,0.0,0.0,0.0,0.0,0.0,0.0,0.0,0.0,0.0,0.0,0.0,0.0,0.0,0.0,0.0,0.0,0.0,0.0,0.0,0.0,0.0,0.0,0.0,0.0,0.0,0.0,0.0,0.0,0.0,0.0,0.0,0.0,0.0,0.0,0.0,0.0,0.0,0.0,0.0,0.0,0.0,0.0,0.0,0.0,0.0,0.0,0.0,0.0,0.0,0.0,0.0,0.0,0.0,0.0,0.0,0.0,0.0,0.0,0.0,0.0,0.0,0.0,0.0,0.0,0.0,0.0,0.0,0.0,0.0,0.0,0.0,0.0,0.0,0.0,0.0,0.0,0.0,0.0,0.0,0.0,0.0,0.0,0.0,0.0,0.0,0.0,0.0,0.0,0.0,0.0,0.0,0.0,0.0,0.0,0.0,0.0,0.0,0.0,0.0,0.0,0.0,0.0,0.0,0.0,0.0,0.0,0.0,0.0,0.0,0.0,0.0,0.0,0.0,0.0,0.0,0.0,0.0,0.0,0.0,0.0,0.0,0.0,0.0,0.0,0.0,0.0,0.0,0.0,0.0,0.0,0.0,0.0,0.0,0.0,0.0,0.0,0.0,0.0,0.0,0.0,0.0,0.0,0.0,0.0,0.0,0.0,0.0,0.0,0.0,0.0,0.0,0.0,0.0,0.0,0.0,0.0,0.0,0.0,0.0,0.0,0.0,0.0,0.0,0.0,0.0,0.0,0.0,0.0,0.0,0.0,0.0,0.0,0.0,0.0,0.0,0.0,0.0,0.0,0.0,0.0,0.0,0.0,0.0,0.0,0.0,0.0,0.0,0.0,0.0,0.0,0.0,0.0,0.0,0.0,0.0,0.0,0.0,0.0,0.0,0.0,0.0,0.0,0.0,0.0,0.0,0.0,0.0,0.0,0.0,0.0,0.0,0.0,0.0,0.0,0.0,0.0,0.0,0.0,0.0,0.0,0.0,0.0,0.0,0.0,0.0,0.0,0.0,0.0,0.0,0.0,0.0,0.0,0.0,0.0,0.0,0.0,0.0,0.0,0.0,0.0,0.0,0.0,0.0,0.0,0.0,0.0,0.0,0.0,0.0,0.0,0.0,0.0,0.0,0.0,0.0,0.0,0.0,0.0,0.0,0.0,0.0,0.0,0.0,0.0,0.0,0.0,0.0,0.0,0.0,0.0,0.0,0.0,0.0,0.0,0.0,0.0,0.0,0.0,0.0,0.0,0.0,0.0,0.0,0.0,0.0,0.0,0.0,0.0,0.0,0.0,0.0,0.0,0.0,0.0,0.0,0.0,0.0,0.0,0.0,0.0,0.0,0.0,0.0,0.0,0.0,0.0,0.0,0.0,0.0,0.0,0.0,0.0,0.0,0.0,0.0,0.0,0.0,0.0,0.0,0.0,0.0,0.0,0.0,0.0,0.0,0.0,0.0,0.0,0.0,0.0,0.0,0.0,0.0,0.0,0.0,0.0,0.0,0.0,0.0,0.0,0.0,0.0,0.0,0.0,0.0,0.0,0.0,0.0,0.0,0.0,0.0,0.0,0.0,0.0,0.0,0.0,0.0,0.0,0.0,0.0,0.0,0.0,0.0,0.0,0.0,0.0,0.0,0.0,0.0,0.0,0.0,0.0,0.0,0.0,0.0,0.0,0.0,0.0,0.0,0.0,0.0,0.0,0.0,0.0,0.0,0.0,0.0,0.0,0.0,0.0,0.0,0.0,0.0,0.0,0.0,0.0,0.0,0.0,0.0,0.0,0.0,0.0,0.0,0.0,0.0,0.0,0.0,0.0,0.0,0.0,0.0,0.0,0.0,0.0,0.0,0.0,0.0,0.0,0.0,0.0,0.0,0.0,0.0,0.0,0.0,0.0,0.0,0.0,0.0,0.0,0.0,0.0,0.0,0.0,0.0,0.0,0.0,0.0,0.0,0.0,0.0,0.0,0.0,0.0,0.0,0.0,0.0,0.0,0.0,0.0,0.0,0.0,0.0,0.0,0.0,0.0,0.0,0.0,0.0,0.0,0.0,0.0,0.0,0.0,0.0,0.0,0.0,0.0,0.0,0.0,0.0,0.0,0.0,0.0,0.0,0.0,0.0,0.0,0.0,0.0,0.0,0.0,0.0,0.0,0.0,0.0,0.0,0.0,0.0,0.0,0.0,0.0,0.0,0.0,0.0,0.0,0.0,0.0,0.0,0.0,0.0,0.0,0.0,0.0,0.0,0.0,0.0,0.0,0.0,0.0,0.0,0.0,0.0,0.0,0.0,0.0,0.0,0.0,0.0,0.0,0.0,0.0,0.0,0.0,0.0,0.0,0.0,0.0,0.0,0.0,0.0,0.0,0.0,0.0,0.0,0.0,0.0,0.0,0.0,0.0,0.0,0.0,0.0,0.0,0.0,0.0,0.0,0.0,0.0,0.0,0.0,0.0,0.0,0.0,0.0,0.0,0.0,0.0,0.0,0.0,0.0,0.0,0.0,0.0,0.0,0.0,0.0,0.0,0.0,0.0,0.0,0.0,0.0,0.0,0.0,0.0,0.0,0.0,0.0,0.0,0.0,0.0,0.0,0.0,0.0,0.0,0.0,0.0,0.0,0.0,0.0,0.0,0.0,0.0,0.0,0.0,0.0,0.0,0.0,0.0,0.0,0.0,0.0,0.0,0.0,0.0,0.0,0.0,0.0,0.0,0.0,0.0,0.0,0.0,0.0,0.0,0.0,0.0,0.0,0.0,0.0,0.0,0.0,0.0,0.0,0.0,0.0,0.0,0.0,0.0,0.0,0.0,0.0,0.0,0.0,0.0,0.0,0.0,0.0,0.0,0.0,0.0,0.0,0.0,0.0,0.0,0.0,0.0,0.0,0.0,0.0,0.0,0.0,0.0,0.0,0.0,0.0,0.0,0.0,0.0,0.0,0.0,0.0,0.0,0.0,0.0,0.0,0.0,0.0,0.0,0.0,0.0,0.0,0.0,0.0,0.0,0.0,0.0,0.0,0.0,0.0,0.0,0.0,0.0,0.0,0.0,0.0,0.0,0.0,0.0,0.0,0.0,0.0,0.0,0.0,0.0,0.0,0.0,0.0,0.0,0.0,0.0,0.0,0.0,0.0,0.0,0.0,0.0,0.0,0.0,0.0,0.0,0.0,0.0,0.0,0.0,0.0,0.0,0.0,0.0,0.0,0.0,0.0,0.0,0.0,0.0,0.0,0.0,0.0,0.0,0.0,0.0,0.0,0.0,0.0,0.0,0.0,0.0,0.0,0.0,0.0,0.0,0.0,0.0,0.0,0.0,0.0,0.0,0.0,0.0,0.0,0.0,0.0,0.0,0.0,0.0,0.0,0.0,0.0,0.0,0.0,0.0,0.0,0.0,0.0,0.0,0.0,0.0,0.0,0.0,0.0,0.0,0.0,0.0,0.0,0.0,0.0,0.0,0.0,0.0,0.0,0.0,0.0,0.0,-4.5017,-4.4978,0.0,0.0,0.0,0.0,0.0,0.0,0.0,0.0,0.0,0.0,0.0,0.0,0.0,0.0,0.0,0.0,0.0,0.0,0.0,0.0,0.0,0.0,0.0,-4.626,-4.6282,-4.6282,-4.6477,-4.6578,-4.6578,0.0,0.0,0.0,-4.6795,-4.6674,-4.6411,-4.5274,-4.4847,-4.5225,-4.4847,-4.4984,-4.554,-4.5438,-4.6089,-4.7288,0.0,0.0,0.0,0.0,0.0,0.0,0.0,0.0,0.0,0.0,0.0,0.0,0.0,0.0,0.0,0.0,0.0,0.0,0.0,0.0,0.0,0.0,0.0,0.0,0.0,0.0,0.0,0.0,0.0,0.0,0.0,0.0,0.0,0.0,0.0,0.0,0.0,0.0,0.0,0.0,0.0,0.0,0.0,0.0,0.0,0.0,0.0,0.0,0.0,0.0,0.0,0.0,0.0,0.0,0.0,0.0,0.0,0.0,0.0,0.0,0.0,0.0,0.0,0.0,0.0,0.0,0.0,0.0,0.0,0.0,-4.4408,-4.4311,0.0,0.0,0.0,0.0,0.0,0.0,0.0,0.0,0.0,0.0,0.0,0.0,0.0,0.0,0.0,0.0,0.0,0.0,0.0,0.0,0.0,-4.5303,-4.5303,-4.5318,-4.535,-4.535,-4.5535,-4.5618,-4.5618,-4.564,0.0,-4.5599,-4.4797,-4.4401,-4.4506,-4.3198,-4.2825,-4.3432,-4.2941,-4.3013,-4.3565,-4.3751,-4.5039,-4.717,-4.6236,0.0,0.0,0.0,0.0,0.0,0.0,0.0,0.0,0.0,0.0,0.0,0.0,0.0,0.0,0.0,0.0,0.0,0.0,0.0,0.0,0.0,0.0,0.0,0.0,0.0,0.0,0.0,0.0,0.0,0.0,0.0,0.0,0.0,0.0,0.0,0.0,0.0,0.0,0.0,0.0,0.0,0.0,0.0,0.0,0.0,0.0,0.0,0.0,0.0,0.0,0.0,0.0,0.0,0.0,0.0,0.0,0.0,0.0,0.0,0.0,0.0,0.0,0.0,-4.7535,-4.748,-4.7334,-4.6507,-4.614,-4.6085,-4.465,-4.4435,-4.509,-4.4763,0.0,0.0,0.0,0.0,0.0,0.0,0.0,0.0,0.0,0.0,0.0,0.0,0.0,0.0,0.0,0.0,0.0,0.0,0.0,-4.5303,-4.5303,-4.5463,-4.5552,-4.5552,-4.5688,-4.5756,-4.5756,-4.5197,-4.4821,-4.4821,-4.4111,-4.3747,-4.3731,-4.3549,-4.3469,-4.3568,-4.4128,-4.4757,-4.5438,-4.5469,-4.5692,-4.5963,-4.4293,-4.3957,-4.4632,0.0,0.0,0.0,0.0,0.0,0.0,0.0,0.0,0.0,0.0,0.0,0.0,0.0,0.0,0.0,0.0,0.0,0.0,0.0,0.0,0.0,0.0,0.0,0.0,0.0,0.0,0.0,0.0,0.0,0.0,0.0,0.0,0.0,0.0,0.0,0.0,0.0,0.0,0.0,0.0,0.0,-4.6387,-4.6211,0.0,0.0,0.0,0.0,0.0,0.0,0.0,0.0,0.0,0.0,0.0,0.0,0.0,-4.8753,-4.7316,-4.9448,-5.0088,-4.928,-4.928,-4.8951,-4.8273,-4.7482,-4.7114,-4.7059,-4.6175,0.0,-4.4778,-4.4999,0.0,0.0,0.0,0.0,0.0,0.0,0.0,0.0,0.0,0.0,0.0,0.0,0.0,0.0,0.0,0.0,0.0,0.0,0.0,0.0,0.0,-4.4418,-4.4478,-4.4478,-4.4541,-4.4406,-4.3976,-4.3645,-4.328,-4.2866,-4.2551,-4.2204,-4.1806,-4.2187,-4.2754,-4.3598,-4.434,-4.5069,-4.5798,-4.5798,-4.5798,-4.5748,-4.4519,-4.4177,-4.4455,-4.3953,0.0,0.0,0.0,0.0,0.0,0.0,0.0,0.0,0.0,0.0,0.0,0.0,0.0,0.0,0.0,0.0,0.0,0.0,0.0,0.0,0.0,0.0,0.0,0.0,0.0,0.0,0.0,0.0,0.0,0.0,0.0,0.0,0.0,0.0,0.0,0.0,0.0,0.0,0.0,-4.4572,-4.5329,-4.505,-4.5405,-4.5428,0.0,0.0,0.0,0.0,0.0,0.0,0.0,0.0,0.0,-4.8567,-4.9246,-4.9484,-4.9207,-5.0235,-5.06,-5.027,-4.9831,-4.9428,-4.9099,-4.8253,-4.7867,-4.7849,-4.7481,-4.6856,-4.6012,-4.5486,-4.4563,-4.355,0.0,0.0,0.0,0.0,-4.4043,-4.3781,0.0,0.0,0.0,0.0,0.0,0.0,0.0,0.0,0.0,0.0,0.0,0.0,-4.4114,-4.3876,-4.3783,-4.3996,-4.3757,-4.3367,-4.2804,-4.2423,-4.196,-4.1413,-4.1061,-4.0658,-4.0198,-4.0833,-4.1889,-4.3325,-4.3941,-4.4471,-4.4964,-4.5192,-4.537,-4.548,-4.4937,-4.4799,-4.4903,-4.3889,-4.3578,-4.3696,0.0,0.0,0.0,0.0,0.0,0.0,0.0,0.0,0.0,0.0,0.0,0.0,0.0,0.0,0.0,0.0,0.0,0.0,0.0,0.0,0.0,0.0,0.0,0.0,0.0,0.0,0.0,0.0,0.0,0.0,0.0,0.0,0.0,0.0,0.0,0.0,0.0,-4.4445,-4.4856,-4.4094,-4.4978,-4.5234,0.0,0.0,0.0,0.0,0.0,0.0,-4.8544,-4.8639,-4.9063,-4.9901,-5.017,-5.0456,-5.0798,-5.1362,-5.1481,-5.1096,-5.049,-5.0106,-4.9886,-4.9022,-4.8508,-4.8306,-4.8306,-4.7957,-4.7334,-4.6218,-4.5034,-4.3896,-4.3877,-4.3288,-4.2586,-4.3404,-4.3561,-4.3447,0.0,0.0,0.0,0.0,0.0,0.0,0.0,0.0,0.0,0.0,0.0,-4.4761,-4.5488,-4.469,-4.4353,-4.5068,-4.4205,-4.3582,-4.3549,-4.2224,-4.1458,-4.1409,-4.0117,-3.9452,-3.9551,-4.0254,-4.1279,-4.2648,-4.2815,-4.2819,-4.2683,-4.3518,-4.4159,-4.4658,-4.4609,-4.5032,-4.5649,-4.4194,-4.3979,-4.4572,-4.3713,0.0,0.0,0.0,0.0,0.0,0.0,0.0,0.0,0.0,0.0,0.0,0.0,0.0,0.0,0.0,0.0,0.0,0.0,0.0,0.0,0.0,0.0,0.0,0.0,0.0,0.0,0.0,0.0,0.0,0.0,0.0,0.0,0.0,0.0,0.0,0.0,0.0,0.0,-4.3701,-4.5376,0.0,0.0,0.0,0.0,-4.6958,-4.7062,-4.7743,-4.9354,-4.9099,-4.9575,-5.1073,-5.1981,-5.2,-5.1095,-5.3153,-5.3445,-5.194,-5.1885,-5.1481,-5.071,-4.9904,-4.9077,-4.8306,-4.8306,-4.8288,-4.8177,-4.7352,-4.568,-4.3723,-4.4705,-4.4236,-4.3072,-4.3933,-4.3746,-4.302,0.0,0.0,0.0,0.0,0.0,-4.5345,-4.5336,-4.5177,-4.5015,-4.4923,-4.4686,-4.4536,-4.4668,-4.4945,-4.4862,-4.4234,-4.446,-4.4147,-4.2982,-4.1972,-4.1453,-4.1582,-4.0662,-4.0453,-4.1082,-4.136,-4.1977,-4.2977,-4.3022,-4.3481,-4.4307,-4.4631,-4.4811,-4.4863,-4.4813,-4.4927,-4.5113,-4.4537,-4.4456,-4.4655,-4.4376,-4.3935,0.0,0.0,0.0,0.0,0.0,0.0,0.0,0.0,0.0,0.0,0.0,0.0,0.0,0.0,0.0,0.0,0.0,0.0,0.0,0.0,0.0,0.0,0.0,0.0,0.0,0.0,0.0,0.0,0.0,0.0,0.0,0.0,0.0,0.0,0.0,0.0,0.0,-4.5812,-4.72,0.0,-4.6005,-4.609,-4.6857,-4.8213,-4.8328,-4.9165,-5.1067,-5.1054,-5.1385,-5.2318,-5.2688,-5.2578,-5.2015,-5.3075,-5.3213,-5.239,-5.2176,-5.1618,-5.0765,-4.9978,-4.9114,-4.8306,-4.8306,-4.8306,-4.8288,-4.7975,-4.7114,-4.5917,-4.5315,-4.5066,-4.4967,-4.4255,-4.404,-4.4087,0.0,0.0,0.0,-4.4793,-4.4831,-4.4923,-4.5167,-4.5086,-4.5022,-4.5113,-4.5173,-4.5235,-4.5309,-4.5852,-4.5776,-4.4779,-4.5005,-4.4461,-4.2688,-4.1896,-4.1483,-4.1399,-4.0969,-4.115,-4.1983,-4.1803,-4.2072,-4.2785,-4.2855,-4.3444,-4.4543,-4.4815,-4.4982,-4.5037,-4.4693,-4.4773,-4.5185,-4.4578,-4.4632,-4.5036,-4.4818,-4.4556,-4.4327,0.0,0.0,0.0,0.0,0.0,0.0,0.0,0.0,0.0,0.0,0.0,0.0,0.0,0.0,0.0,0.0,0.0,0.0,0.0,0.0,0.0,0.0,0.0,0.0,0.0,0.0,0.0,0.0,0.0,0.0,0.0,0.0,0.0,0.0,-4.6988,-4.7856,-4.7885,-4.9253,-4.9738,-4.8501,-4.8541,-4.9171,-5.0422,-5.027,-5.0832,-5.2469,-5.2406,-5.2649,-5.3373,-5.3479,-5.3271,-5.2768,-5.3479,-5.3385,-5.2545,-5.2519,-5.1915,-5.0802,-5.0547,-4.9627,-4.8324,-4.8618,-4.8563,-4.8306,-4.8306,-4.805,-4.7518,-4.6211,-4.5914,-4.6022,-4.464,-4.4457,-4.4752,0.0,-4.4598,-4.4654,-4.4776,-4.4896,-4.5059,-4.5194,-4.5318,-4.5397,-4.5397,-4.6086,-4.6889,-4.7569,-4.7414,-4.7113,-4.6806,-4.5808,-4.4503,-4.2815,-4.2066,-4.1421,-4.0866,-4.0966,-4.1366,-4.2048,-4.1455,-4.1421,-4.2003,-4.2202,-4.2541,-4.3009,-4.3854,-4.4564,-4.5011,-4.4188,-4.4617,-4.5838,-4.4278,-4.4456,-4.5719,-4.4974,-4.5107,-4.557,0.0,0.0,0.0,0.0,0.0,0.0,0.0,0.0,0.0,0.0,0.0,0.0,0.0,0.0,0.0,0.0,0.0,0.0,0.0,0.0,0.0,0.0,0.0,0.0,0.0,0.0,0.0,0.0,0.0,0.0,0.0,0.0,0.0,-4.7608,-4.8751,-4.9637,-4.9731,-5.1498,-5.2425,-5.1726,-5.2109,-5.2689,-5.3484,-5.279,-5.2672,-5.3467,-5.3087,-5.3244,-5.4139,-5.4358,-5.4099,-5.3243,-5.4431,-5.413,-5.2361,-5.2969,-5.2371,-5.08,-5.1573,-5.06,-4.8361,-4.9206,-4.9077,-4.8306,-4.8306,-4.8306,-4.8196,-4.7369,-4.6709,-4.6097,-4.5124,-4.4845,-4.4727,-4.5205,-4.4824,-4.4682,-4.4896,-4.4995,-4.5086,-4.5318,-4.5371,-4.5397,-4.5397,-4.6086,-4.6584,-4.6546,-4.7625,-4.7706,-4.6145,-4.5926,-4.5049,-4.3188,-4.1902,-4.1359,-4.1732,-4.1916,-4.236,-4.3149,-4.2509,-4.2019,-4.1696,-4.2248,-4.2585,-4.2748,-4.3429,-4.3811,-4.3811,-4.4043,-4.4245,-4.4414,-4.445,-4.4969,-4.5664,-4.4909,-4.4429,-4.4157,0.0,0.0,0.0,0.0,0.0,0.0,0.0,0.0,0.0,0.0,0.0,0.0,0.0,0.0,0.0,0.0,0.0,0.0,0.0,0.0,0.0,0.0,0.0,0.0,0.0,0.0,0.0,0.0,0.0,0.0,0.0,-4.8027,-4.9344,-4.9315,-5.0922,-5.2306,-5.2872,-5.4336,-5.5211,-5.4989,-5.4581,-5.4395,-5.4516,-5.377,-5.3381,-5.3484,-5.3365,-5.3448,-5.3668,-5.376,-5.331,-5.2304,-5.2997,-5.2688,-5.1398,-5.171,-5.1282,-5.021,-5.0257,-4.9536,-4.8324,-4.8545,-4.8526,-4.8306,-4.8306,-4.7957,-4.7351,-4.6544,-4.6489,-4.6618,-4.4615,-4.3897,-4.3784,-4.5115,-4.4786,-4.4654,-4.4886,-4.4951,-4.5059,-4.5274,-4.5353,-4.5397,-4.5397,-4.6086,-4.6542,-4.6344,-4.752,-4.7659,-4.6011,-4.606,-4.522,-4.2972,-4.1694,-4.1332,-4.2116,-4.2518,-4.2827,-4.3052,-4.2768,-4.2413,-4.2032,-4.2125,-4.2325,-4.2617,-4.2987,-4.3273,-4.3438,-4.347,-4.3668,-4.4009,-4.3966,-4.4279,-4.4781,-4.401,-4.3795,-4.3955,-4.3482,-4.3229,-4.3187,-4.3593,-4.2997,-4.2254,-4.3275,0.0,0.0,0.0,0.0,0.0,0.0,0.0,0.0,0.0,0.0,0.0,0.0,0.0,0.0,0.0,0.0,0.0,0.0,0.0,0.0,0.0,0.0,0.0,0.0,-4.9942,-5.1649,-5.227,-5.3108,-5.4029,-5.5063,-5.5599,-5.6045,-5.6354,-5.5619,-5.5074,-5.5008,-5.4242,-5.375,-5.3568,-5.3568,-5.3618,-5.3718,-5.3718,-5.3166,-5.2035,-5.2526,-5.1983,-5.0409,-5.0754,-5.0426,-4.951,-4.9679,-4.923,-4.8324,-4.8691,-4.8453,-4.7791,-4.7791,-4.7314,-4.6581,0.0,0.0,0.0,0.0,-4.3791,-4.3386,-4.4748,-4.4626,-4.4626,-4.4793,-4.4913,-4.5059,-4.5177,-4.53,-4.5397,-4.5397,-4.6086,-4.6613,-4.6613,-4.7269,-4.7279,-4.624,-4.611,-4.4974,-4.2409,-4.1555,-4.1552,-4.2415,-4.2854,-4.2893,-4.2527,-4.259,-4.2544,-4.2494,-4.1971,-4.1986,-4.2494,-4.2607,-4.2946,-4.347,-4.28,-4.3118,-4.4144,-4.322,-4.3186,-4.363,-4.2743,-4.3227,-4.4236,-4.2234,-4.1891,-4.2477,-4.2493,-4.2035,-4.1574,-4.2947,0.0,0.0,0.0,0.0,0.0,0.0,0.0,0.0,0.0,0.0,0.0,0.0,0.0,0.0,0.0,0.0,0.0,0.0,0.0,0.0,0.0,0.0,0.0,0.0,-5.2106,-5.4149,-5.5514,-5.5152,-5.5206,-5.6384,-5.604,-5.592,-5.6487,-5.5703,-5.5158,-5.5125,-5.444,-5.3915,-5.37,-5.37,0.0,0.0,0.0,-5.3306,-5.2144,-5.2468,-5.1647,-4.9626,-4.9994,-4.9727,-4.8884,-4.9456,-4.9203,-4.8343,-4.9022,-4.8471,-4.7094,-4.7003,-4.6489,-4.5847,-4.6544,-4.6342,-4.5535,-4.4837,-4.4103,-4.3387,-4.5098,-4.4852,-4.4626,-4.4793,-4.4913,-4.5059,-4.5177,-4.53,-4.5397,-4.5397,-4.6086,-4.6613,-4.6613,-4.7269,-4.7379,-4.6566,-4.5388,-4.389,-4.2021,-4.1987,-4.2652,-4.3995,-4.2996,-4.2896,-4.3967,-4.3102,-4.2345,-4.1786,-4.2217,-4.2202,-4.1801,-4.2632,-4.2922,-4.2802,-4.3479,-4.3658,-4.3502,-4.37,-4.3726,-4.363,-4.2743,-4.2588,-4.2735,-4.176,-4.1487,-4.1704,-4.2299,-4.1669,-4.084,-4.2222,-4.1853,-4.0991,-4.2089,-4.2072,0.0,0.0,0.0,0.0,0.0,0.0,0.0,0.0,0.0,0.0,0.0,0.0,0.0,0.0,0.0,0.0,0.0,0.0,0.0,-5.0519,-5.3288,-5.543,-5.6228,-5.6344,-5.646,-5.672,-5.7118,-5.7221,-5.6774,-5.5983,-5.547,-5.5341,-5.4604,-5.4045,-5.3717,-5.3849,-5.3833,-5.3584,-5.3123,-5.2456,-5.1648,-5.1352,-5.0747,-4.9837,-4.9126,0.0,-4.9236,-4.8333,-4.8047,-4.8269,-4.7791,-4.7388,-4.7058,-4.6416,-4.5663,-4.4947,-4.5095,-4.4672,-4.3938,-4.3791,-4.3626,-4.3478,-4.4889,-4.4759,-4.4626,-4.4682,-4.4803,-4.4913,-4.4978,-4.5167,-4.53,-4.53,-4.5715,-4.5872,-4.5492,-4.5768,-4.5699,-4.4958,-4.413,-4.3485,-4.3089,-4.2986,-4.346,-4.4598,-4.3963,-4.3799,-4.4309,-4.345,-4.2625,-4.1837,-4.2011,-4.184,-4.1376,-4.2031,-4.2445,-4.263,-4.3134,-4.3595,-4.4013,-4.4134,-4.4324,-4.4457,-4.3305,-4.2645,-4.2229,-4.128,-4.0681,-4.0501,-4.1206,-4.0794,-4.0126,-4.1479,-4.1467,-4.1025,-4.1684,-4.1886,-4.1787,0.0,0.0,0.0,0.0,0.0,0.0,0.0,0.0,0.0,0.0,0.0,0.0,0.0,0.0,-4.2488,-4.4238,0.0,-4.9856,-5.2187,-5.448,-5.6098,-5.6524,-5.702,-5.7048,-5.6191,-5.6153,-5.6064,-5.5684,-5.5305,-5.5031,-5.4952,-5.4591,-5.4239,-5.3963,-5.4045,-5.398,-5.3751,-5.3068,-5.2382,-5.1743,-5.0991,-5.0215,-4.9487,-4.8332,-4.8033,-4.8406,-4.754,-4.7313,-4.7591,-4.7417,-4.6896,-4.6058,-4.5096,-4.4469,-4.4155,-4.4121,-4.3846,-4.3515,-4.3515,-4.3515,-4.3515,-4.4615,-4.4615,-4.4615,-4.4615,-4.4709,-4.4752,-4.4616,-4.481,-4.4946,-4.4808,-4.5017,-4.4906,-4.4173,-4.4207,-4.3949,-4.3034,-4.3141,-4.3477,-4.4052,-4.3955,-4.4304,-4.5232,-4.5166,-4.4919,-4.4585,-4.3931,-4.3104,-4.2153,-4.1769,-4.1456,-4.1189,-4.1555,-4.1955,-4.2392,-4.2602,-4.3282,-4.4287,-4.4201,-4.4569,-4.5081,-4.3729,-4.2833,-4.2142,-4.0833,-3.9961,-3.9448,-4.0023,-3.9873,-3.9568,-4.0786,-4.1227,-4.1205,-4.1339,-4.1782,-4.1976,-4.0756,-4.0771,0.0,0.0,0.0,0.0,0.0,0.0,0.0,0.0,-3.8187,-3.8497,-4.0753,-4.2069,-4.3661,-4.6262,-4.892,-5.1444,-5.364,-5.5434,-5.6496,-5.6457,-5.7175,-5.7066,-5.542,-5.4916,-5.4667,-5.4529,-5.4512,-5.4512,-5.4512,-5.4512,-5.4399,-5.419,-5.4102,-5.3952,-5.3743,-5.2838,-5.2164,-5.1675,-5.0755,-4.9847,-4.9035,-4.7876,-4.7397,-4.7491,-4.6962,-4.6776,-4.6954,-4.7173,-4.6406,-4.493,-4.3981,-4.3591,-4.3565,-4.3513,-4.3515,-4.3515,-4.3515,-4.3515,-4.3515,-4.4615,-4.4615,-4.4615,-4.4615,-4.4709,-4.4582,-4.3909,-4.4057,-4.4001,-4.3331,-4.3915,-4.4138,-4.3396,-4.3914,-4.3724,-4.2275,-4.3371,-4.3906,-4.3362,-4.4283,-4.5452,-4.6851,-4.6217,-4.5807,-4.5879,-4.4832,-4.3653,-4.2359,-4.1869,-4.1588,-4.1555,-4.1883,-4.1931,-4.1764,-4.2647,-4.2979,-4.2866,-4.3273,-4.3863,-4.4391,-4.3242,-4.2571,-4.2132,-4.0608,-3.9772,-3.9388,-3.9463,-3.9448,-3.9493,-4.0262,-4.0502,-4.0606,-4.119,-4.1467,-4.1392,-4.0621,-4.0442,-4.0352,-3.9619,-3.9433,-3.9619,-3.9978,-3.9215,-3.9176,0.0,-4.1106,-4.0338,-4.347,-4.5032,-4.6284,-4.7808,-5.076,-5.3138,-5.3826,-5.5842,-5.6954,-5.5815,-5.6389,-5.6357,-5.479,-5.5118,-5.5236,-5.4563,-5.4512,-5.4512,-5.4512,-5.4512,-5.4399,-5.419,-5.3748,-5.3261,-5.2764,-5.1526,-5.0741,-5.0584,-5.0043,-4.9445,-4.8821,-4.8156,-4.7692,-4.7467,-4.6484,-4.6406,-4.7049,-4.6376,-4.5407,-4.4283,-4.4063,-4.3761,-4.3515,-4.3496,-4.3515,-4.3515,-4.3515,-4.3515,-4.3515,-4.4615,-4.4615,-4.4615,-4.4615,-4.4654,-4.4427,-4.3637,-4.3724,-4.3611,-4.292,-4.322,-4.3278,-4.2585,-4.2396,-4.2068,-4.1429,-4.2344,-4.3034,-4.3189,-4.4087,-4.5471,-4.7419,-4.6743,-4.6616,-4.7247,-4.6413,-4.5098,-4.3314,-4.3606,-4.3121,-4.1931,-4.2558,-4.2607,-4.219,-4.2559,-4.2863,-4.3114,-4.3218,-4.3436,-4.3688,-4.3263,-4.2295,-4.105,-4.0288,-3.9405,-3.8486,-3.8327,-3.8257,0.0,-3.8571,-3.8916,-3.9275,-3.9559,-3.9918,-4.0113,-3.9424,-3.9514,-3.9768,-3.9499,-3.9125,-3.8975,-3.9664,-3.9694,-4.0059,-4.1903,-4.1791,-4.2062,-4.4852,-4.6207,-4.7446,-4.9352,-5.1261,-5.2742,-5.3364,-5.5191,-5.6094,-5.4815,-5.5893,-5.6236,-5.4684,-5.4787,-5.4856,-5.4546,-5.4512,-5.4512,-5.4512,-5.4512,-5.4463,-5.4367,-5.4043,-5.3619,-5.3095,-5.1984,-5.1213,-5.0815,-5.0073,-4.9595,-4.943,-4.8241,-4.7674,-4.771,-4.6655,-4.6435,-4.6735,-4.5382,-4.4551,-4.4112,-4.3617,-4.3341,-4.3232,-4.3427,-4.3515,-4.3515,-4.3515,-4.3515,-4.3515,-4.4615,-4.4615,-4.4615,-4.4615,-4.4615,-4.4287,-4.3423,-4.3447,-4.3253,-4.2363,-4.2607,-4.2637,-4.2068,-4.1652,-4.1261,-4.0929,-4.1687,-4.2403,-4.2827,-4.3776,-4.5113,-4.6965,-4.6931,-4.7187,-4.7903,-4.7342,-4.6122,-4.4266,-4.4555,-4.3845,-4.219,-4.2767,-4.2832,-4.2476,-4.2349,-4.2735,-4.3394,-4.3263,-4.3293,-4.3452,-4.3263,-4.216,-4.0535,-3.9905,-3.8823,-3.7619,-3.7447,-3.7404,-3.7404,-3.7404,-3.7719,-3.8123,-3.8123,-3.8586,-3.9005,-3.8317,-3.8482,-3.8871,-3.8871,-3.8766,-3.8841,-3.9514,-4.0187,-4.0973,-4.2106,-4.2572,-4.3425,-4.5757,-4.6819,-4.7819,-4.9631,-5.0885,-5.1837,-5.242,-5.4188,-5.5042,-5.3819,-5.5194,-5.5805,-5.4379,-5.4367,-5.4512,-5.4512,-5.4512,-5.4512,-5.4512,-5.4512,-5.4512,-5.4512,-5.4178,-5.3682,-5.3036,-5.209,-5.1335,-5.0715,-4.9983,-4.9605,-4.9527,-4.8197,-4.7503,-4.7365,-4.6339,-4.5936,-4.5987,-4.456,-4.3895,-4.3802,-4.323,-4.3007,-4.3014,-4.3268,-4.341,-4.3515,-4.3515,-4.3515,-4.3515,0.0,-4.4615,-4.4615,-4.4615,-4.4615,-4.4238,-4.3168,-4.3145,-4.2691,-4.1249,-4.1911,-4.2381,-4.204,-4.2387,-4.2166,-4.1011,-4.1992,-4.2515,-4.2058,-4.3465,-4.4647,-4.5432,-4.6759,-4.7488,-4.751,-4.7035,-4.6196,-4.4968,-4.3756,-4.2899,-4.2381,-4.2238,-4.2125,-4.2109,-4.2109,-4.2525,-4.3229,-4.318,-4.3564,-4.4074,-4.3051,-4.212,-4.1199,-3.9491,-3.8073,-3.7061,-3.7297,-3.7404,-3.7404,-3.7404,-3.7419,-3.7434,-3.7434,-3.7883,-3.8287,-3.7629,-3.7449,-3.7464,-3.7464,-3.8407,-3.9544,-4.0202,-4.0861,-4.1963,-4.4264,-4.4225,-4.4258,-4.6429,-4.7102,-4.7472,-4.7985,-4.9557,-5.0799,-5.1057,-5.2896,-5.4,-5.2973,-5.4233,-5.478,-5.3602,-5.4044,-5.4512,-5.4512,-5.4512,-5.4512,-5.4512,-5.4512,-5.4512,-5.4512,-5.3822,-5.3019,-5.2073,-5.1148,-5.0347,-4.9742,-4.9577,-4.9201,-4.8627,-4.7995,-4.7155,-4.6133,-4.5053,-4.4617,-4.4714,-4.4017,-4.354,-4.3219,-4.3062,-4.3,-4.2995,-4.2995,-4.3214,-4.3515,-4.3515,-4.3515,-4.3515,0.0,0.0,-4.4615,-4.4615,-4.4615,-4.4391,-4.3829,-4.3802,-4.3343,-4.1919,-4.2554,0.0,0.0,0.0,0.0,0.0,-4.1668,-4.1922,-4.2006,-4.2499,-4.3345,-4.4613,-4.5139,-4.5866,-4.6868,-4.6747,-4.6312,-4.5609,-4.5064,-4.4138,-4.2852,-4.3184,-4.3161,-4.2845,-4.3209,-4.3492,-4.3683,-4.3121,-4.2637,-4.222,-4.1557,-4.048,-3.9188,-3.8417,-3.751,-3.664,0.0,-3.6217,-3.6148,-3.6148,-3.6148,-3.6148,-3.6148,-3.6297,-3.6432,-3.6207,-3.6447,-3.6985,-3.7823,-3.8721,-3.9783,-4.1324,-4.1916,-4.2404,-4.3563,-4.4063,-4.4467,-4.5055,-4.5434,-4.5743,-4.6096,-4.7006,-4.8137,-4.9404,-5.1511,-5.2865,-5.2621,-5.3922,-5.4492,-5.3517,-5.3906,-5.4293,-5.4483,-5.4512,-5.4305,-5.3822,-5.4236,-5.4063,-5.3046,-5.3499,-5.3072,-5.1455,-5.1261,-5.0526,-4.9131,-4.938,-4.9141,-4.8465,-4.7723,-4.656,-4.5027,-4.4655,-4.4329,-4.3993,-4.329,-4.2917,-4.2783,-4.2605,-4.2424,-4.2297,-4.2559,-4.2769,-4.29,-4.2807,-4.2995,-4.3304,0.0,0.0,0.0,-4.4615,-4.4615,0.0,0.0,0.0,0.0,0.0,0.0,0.0,0.0,0.0,0.0,0.0,0.0,-4.1705,-4.1811,-4.194,-4.2447,-4.3431,-4.3924,-4.4656,-4.5644,-4.5662,-4.5456,-4.5009,-4.4637,-4.3754,-4.2479,-4.2874,-4.2815,-4.2381,-4.2655,-4.2861,-4.2953,-4.2259,-4.1601,-4.0997,-4.0572,-3.955,-3.8277,-3.7966,-3.7359,0.0,-3.6289,-3.5941,-3.5651,-3.5537,-3.5504,-3.5504,-3.5504,-3.5504,-3.5549,-3.5789,-3.6312,-3.7105,-3.8392,-3.9424,-4.0487,-4.2021,-4.2575,-4.286,-4.3437,-4.3937,-4.4216,-4.3991,-4.3867,-4.3809,-4.3888,-4.4564,-4.5595,-4.695,-4.9179,-5.0895,-5.1269,-5.2474,-5.316,-5.2862,-5.318,-5.3582,-5.4063,-5.3836,-5.3621,-5.3394,-5.3839,-5.3563,-5.2257,-5.2932,-5.2674,-5.1136,-5.0942,-5.0176,-4.881,-4.8711,-4.8263,-4.75,-4.6686,-4.5617,-4.4328,-4.3834,-4.3513,-4.3261,-4.244,-4.2154,-4.2216,-4.2039,-4.1977,-4.2005,-4.2274,-4.2454,-4.2589,-4.2494,-4.2692,-4.3068,0.0,0.0,0.0,0.0,0.0,0.0,0.0,0.0,0.0,0.0,0.0,0.0,0.0,0.0,0.0,0.0,0.0,0.0,-4.1539,-4.1824,-4.1995,-4.1971,-4.3201,-4.3889,-4.3898,-4.3898,-4.3748,-4.3396,-4.2598,-4.1902,-4.1364,-4.1399,-4.1262,-4.0958,-4.0812,-4.0948,-4.1273,-4.0833,-4.0657,-4.0625,-4.0206,-3.9407,-3.8477,-3.8106,-3.7545,-3.7015,-3.6984,-3.6585,-3.5973,-3.5619,-3.5504,-3.5504,-3.5549,-3.5549,-3.5684,-3.6342,-3.7,-3.7793,-3.911,-4.0427,-4.1632,-4.2291,-4.288,-4.3409,-4.3864,-4.3786,-4.3575,-4.325,-4.2465,-4.1711,-4.1331,-4.2272,-4.3328,-4.3967,-4.6237,-4.8246,-4.9132,-5.0144,-5.1006,-5.1678,-5.1999,-5.2489,-5.3315,-5.2723,-5.2544,-5.3277,-5.3339,-5.2977,-5.2119,-5.2153,-5.1826,-5.105,-5.0162,-4.936,-4.8741,-4.7683,-4.6721,-4.592,-4.5122,-4.4521,-4.4001,-4.2676,-4.222,-4.2474,-4.1591,-4.1346,-4.1582,-4.1471,-4.1675,-4.2061,-4.2061,-4.2269,-4.255,-4.255,-4.2593,-4.2731,0.0,0.0,0.0,0.0,0.0,0.0,0.0,0.0,0.0,0.0,0.0,0.0,0.0,0.0,0.0,0.0,0.0,0.0,-4.1941,-4.2058,-4.1991,-4.1653,-4.1951,-4.2252,-4.2494,-4.2511,-4.2754,-4.3237,-4.2556,-4.2119,-4.1974,-4.2031,-4.1981,-4.1812,-4.2277,-4.2453,-4.2416,-4.1835,-4.1547,-4.1358,-3.9825,-3.9111,-3.8818,-3.7696,-3.7155,-3.6969,-3.6831,-3.66,-3.6336,-3.5988,-3.5716,-3.5594,-3.6088,-3.6237,-3.6357,-3.6985,-3.8003,-3.9059,-3.9933,-4.1115,-4.2306,-4.2925,-4.317,-4.3274,-4.3205,-4.319,-4.2834,-4.1597,-4.0439,-3.93,-3.8337,-3.9557,-4.1287,-4.3058,-4.6199,-4.8836,-5.0053,-5.108,-5.1578,-5.1327,-5.1669,-5.231,-5.3298,-5.3213,-5.2951,-5.2536,-5.2528,-5.1959,-5.0631,-5.1373,-5.1264,-5.0093,-4.9573,-4.8856,-4.7842,-4.6873,-4.6321,-4.6172,-4.5682,-4.4739,-4.3415,-4.2893,-4.2265,-4.1551,-4.1405,-4.1403,-4.1471,-4.1626,-4.1648,-4.1604,-4.1692,-4.1784,-4.1849,-4.174,-4.1963,-4.2358,0.0,0.0,0.0,0.0,0.0,0.0,0.0,0.0,0.0,0.0,0.0,0.0,0.0,0.0,0.0,0.0,0.0,0.0,0.0,-4.2203,-4.1731,-4.1468,-4.1328,-4.1308,-4.1516,-4.1533,-4.174,-4.2189,-4.1808,-4.1588,-4.1554,-4.1694,-4.1641,-4.1404,-4.1705,-4.172,-4.1505,-4.0938,-4.066,0.0,0.0,-3.8881,-3.8865,-3.7798,-3.7419,-3.7449,-3.715,-3.6846,-3.6631,-3.6867,-3.6756,-3.6562,-3.7256,-3.7608,-3.7898,-3.8542,-3.9469,-4.0427,-4.1085,-4.2013,-4.288,-4.32,-4.312,-4.277,-4.2326,-4.1814,-4.1109,-4.0024,-3.8604,-3.7368,-3.6832,-3.7869,-3.934,-4.1052,-4.4471,-4.7468,-4.8927,-5.0164,-5.0943,-5.0889,-5.092,-5.1204,-5.1862,-5.193,-5.1746,-5.1312,-5.1829,-5.158,-5.008,-5.0282,-5.0086,-4.9332,-4.8489,-4.7569,-4.6498,-4.597,-4.5566,-4.524,-4.4709,-4.3799,-4.2573,-4.2179,-4.1705,-4.1175,-4.1238,-4.129,-4.1318,-4.1475,-4.1475,-4.1403,-4.1493,-4.156,-4.1582,-4.1515,-4.1697,-4.1888,0.0,0.0,0.0,0.0,0.0,0.0,0.0,0.0,0.0,0.0,-4.7717,-4.7717,0.0,0.0,0.0,0.0,0.0,0.0,0.0,0.0,-4.1701,-4.148,-4.1203,-4.1012,-4.0965,-4.0912,-4.0888,-4.0912,-4.0912,-4.084,-4.0721,-4.0976,-4.0864,-4.0534,-4.0343,-4.0128,-3.9885,-3.9497,-3.9312,-3.9189,-3.8903,-3.8838,-3.8843,0.0,-3.8014,-3.8144,-3.7714,-3.721,-3.6925,-3.795,-3.8029,-3.7858,-3.8736,-3.9258,-3.9679,-4.0374,-4.1033,-4.1677,-4.2246,-4.2836,-4.329,-4.329,-4.2851,-4.2201,-4.149,-4.0329,-3.9277,-3.8681,-3.7074,-3.5885,-3.6245,-3.6892,-3.7805,-3.9056,-4.2423,-4.5461,-4.7138,-4.8638,-4.9808,-5.0429,-5.008,-4.9864,-5.0122,-4.9993,-4.9941,-5.0077,-5.1128,-5.1214,-4.9924,-4.9172,-4.8678,-4.8471,-4.7128,-4.6033,-4.5247,-4.5014,-4.4584,-4.3947,-4.3211,-4.2516,-4.1803,-4.1271,-4.1063,-4.1093,-4.1093,-4.1123,-4.1186,-4.1209,-4.1272,-4.138,-4.1403,-4.1493,-4.1604,-4.1604,-4.1604,-4.1503,0.0,0.0,0.0,0.0,0.0,0.0,0.0,0.0,0.0,-4.7554,-4.7717,-4.7717,0.0,0.0,0.0,0.0,0.0,0.0,0.0,0.0,0.0,-4.1874,-4.1753,-4.1596,-4.1323,-4.0942,-4.0793,-4.0912,-4.0912,-4.0888,-4.0864,-4.0912,-4.084,-4.0673,-4.0631,-4.0534,-4.037,-4.0188,-4.0221,-4.0345,-3.9568,-3.9411,-3.9506,-3.8278,0.0,0.0,-3.8173,-3.7623,-3.7277,-3.848,-3.8345,-3.8058,-3.9985,-4.0441,-4.0389,-4.1235,-4.1821,-4.2246,-4.2366,-4.2836,-4.329,-4.329,-4.2851,-4.2158,-4.1224,-4.0311,-3.9289,-3.7988,-3.6331,-3.5293,-3.5751,-3.6292,-3.7558,-4.0288,-4.3029,-4.5654,-4.8028,-4.8936,-4.9524,-4.997,-4.945,-4.9569,-5.0801,-4.9856,-4.9401,-4.9991,-4.9676,-4.9329,-4.9005,-4.8764,-4.8054,-4.6783,-4.5907,-4.5402,-4.5371,-4.3993,-4.3615,-4.4217,-4.3211,-4.2466,-4.1967,-4.1732,-4.145,-4.1093,-4.1093,-4.1117,-4.1123,-4.118,-4.1209,-4.1255,-4.1363,-4.1493,-4.1604,-4.1604,-4.1604,-4.1503,0.0,0.0,0.0,0.0,0.0,0.0,-4.5614,-4.5925,-4.6382,-4.7191,-4.7533,-4.7717,-4.7717,-4.7717,-4.7533,0.0,0.0,0.0,0.0,0.0,0.0,-4.2834,-4.2392,-4.1906,-4.13,-4.083,-4.0631,-4.0704,0.0,-4.0704,-4.0704,-4.0704,-4.0655,-4.0583,-4.0673,-4.0673,-4.0607,-4.0607,-4.0648,-4.0648,-4.0179,-4.0011,-3.9952,-3.9011,0.0,0.0,-3.8634,-3.8157,-3.7771,-3.9105,-3.898,-3.8547,-4.0477,-4.1085,-4.128,-4.2265,-4.2447,-4.2509,-4.3087,-4.3262,-4.329,-4.329,-4.2581,-4.158,-4.0392,-3.9294,-3.814,-3.6827,-3.5702,-3.5033,-3.5278,-3.5891,-3.6983,-3.8907,-4.1337,-4.3932,-4.6617,-4.7731,-4.8654,-4.9757,-4.9315,-4.9027,-4.9415,-4.849,-4.7844,-4.7813,-4.7499,-4.7568,-4.825,-4.7826,-4.7038,-4.5858,-4.5128,-4.4759,-4.4837,-4.3648,-4.3062,-4.3103,-4.2574,-4.2024,-4.1429,-4.1357,-4.1209,-4.1,-4.107,-4.1047,-4.1006,-4.1123,-4.1152,-4.1152,-4.1249,-4.1386,-4.1493,-4.1493,-4.1538,-4.1429,0.0,0.0,0.0,0.0,0.0,0.0,-4.564,-4.6,-4.6525,-4.7249,-4.7555,-4.7772,-4.7932,-4.7808,-4.7717,0.0,0.0,0.0,0.0,0.0,0.0,0.0,0.0,0.0,-4.1406,0.0,0.0,-4.051,-4.051,0.0,0.0,0.0,0.0,0.0,-4.0607,-4.0673,-4.0673,-4.0745,-4.0745,0.0,0.0,-4.0387,-4.0255,0.0,0.0,0.0,0.0,-3.859,-3.8107,-3.9445,-3.9297,-3.8781,-4.0171,-4.1091,-4.1804,-4.2692,-4.2743,-4.2694,-4.3531,-4.3539,-4.329,-4.329,-4.2342,-4.104,-3.9723,-3.8377,-3.7064,-3.5909,-3.5207,-3.4893,-3.5169,-3.5613,-3.6349,-3.7554,-3.9441,-4.1795,-4.4768,-4.616,-4.7496,-4.9198,-4.8921,-4.836,-4.7735,-4.6873,-4.6118,-4.5604,-4.5423,-4.5901,-4.7263,-4.6713,-4.6035,-4.5414,-4.4527,-4.4138,-4.4311,-4.3241,-4.2465,-4.2016,-4.1843,-4.1464,-4.0912,-4.0912,-4.0912,-4.0912,-4.1006,-4.1,-4.0912,-4.1006,-4.107,-4.1093,-4.1175,-4.1272,-4.1403,-4.138,-4.1431,-4.1354,0.0,0.0,0.0,0.0,0.0,0.0,-4.6683,-4.6776,-4.729,-4.8547,-4.8109,-4.7968,-4.871,-4.8152,-4.7717,0.0,0.0,0.0,0.0,0.0,0.0,0.0,0.0,0.0,0.0,0.0,0.0,-4.051,-4.051,0.0,0.0,0.0,0.0,0.0,0.0,-4.0534,-4.051,-4.0387,0.0,0.0,0.0,0.0,0.0,0.0,0.0,0.0,0.0,-3.8821,-3.8027,-3.8913,-3.8676,-3.8136,-3.8604,-3.999,-4.149,-4.1846,-4.2383,-4.2879,-4.2963,-4.3139,-4.329,-4.329,-4.2342,-4.104,-3.9723,-3.8377,-3.7045,-3.5759,-3.4983,-3.4825,-3.5744,-3.5458,-3.5873,-3.8222,-3.8779,-4.0179,-4.3733,-4.4908,-4.5997,-4.7619,-4.7682,-4.7428,-4.6961,-4.569,-4.4886,-4.4823,-4.4182,-4.4384,-4.573,-4.5617,-4.5483,-4.5397,-4.4027,-4.3621,-4.4294,-4.2189,-4.1412,-4.1974,-4.1326,-4.0981,-4.0912,-4.0912,-4.0912,-4.0912,-4.0912,-4.0912,-4.0912,-4.0912,-4.0982,-4.1093,-4.1117,-4.1238,-4.1403,-4.1255,-4.1318,-4.1221,0.0,0.0,0.0,0.0,0.0,0.0,-4.643,-4.6683,-4.728,-4.8286,-4.8016,-4.8004,-4.88,-4.8167,-4.7717,-4.7717,-4.7717,0.0,0.0,0.0,0.0,0.0,0.0,0.0,0.0,0.0,-4.1629,-4.09,-4.09,0.0,0.0,0.0,0.0,0.0,0.0,-4.0387,-4.0387,-4.0485,0.0,0.0,0.0,0.0,0.0,0.0,0.0,0.0,0.0,0.0,-3.8315,-3.8703,-3.8256,-3.7543,-3.7686,-3.8462,-3.9557,-4.0605,-4.1121,-4.1641,-4.2667,-4.3148,-4.329,-4.329,-4.2058,-4.0546,-3.9634,-3.8093,-3.6596,-3.5684,-3.5295,-3.5207,-3.5638,-3.5473,-3.5829,-3.7416,-3.7665,-3.8824,-4.2138,-4.2839,-4.3977,-4.6526,-4.6401,-4.6153,-4.6197,-4.4938,-4.3769,-4.29,-4.3312,-4.3471,-4.3138,-4.4232,-4.4453,-4.3558,-4.3305,-4.3103,-4.293,-4.1585,-4.105,-4.1343,-4.105,-4.0912,-4.0912,-4.0912,-4.0912,-4.0912,-4.0912,-4.0912,-4.0912,-4.0912,-4.0935,-4.1,-4.107,-4.114,-4.1215,-4.1169,-4.1198,-4.1068,0.0,0.0,0.0,0.0,0.0,-4.684,-4.6613,-4.6886,-4.7434,-4.8222,-4.7955,-4.8004,-4.88,-4.8167,-4.7717,-4.7717,-4.7717,0.0,0.0,0.0,0.0,0.0,0.0,0.0,0.0,0.0,-4.2416,-4.1525,-4.1525,-4.1525,0.0,0.0,-4.0434,-4.0417,0.0,0.0,0.0,0.0,0.0,0.0,0.0,0.0,0.0,0.0,0.0,0.0,0.0,0.0,0.0,0.0,0.0,-3.7358,-3.7134,-3.728,-3.7825,-3.9223,-3.9934,-4.0543,-4.1773,-4.256,-4.3045,-4.3045,-4.1713,-4.0232,-3.9574,-3.7898,-3.6297,-3.5639,-3.5504,-3.5504,-3.5504,-3.5504,-3.5752,-3.6561,-3.6854,-3.7821,-4.0236,-4.0951,-4.2088,-4.4536,-4.4439,-4.4341,-4.4661,-4.3731,-4.2679,-4.1667,-4.2476,-4.2382,-4.0998,-4.264,-4.3194,-4.2339,-4.2484,-4.2419,-4.1992,-4.1088,-4.071,-4.0912,-4.0912,-4.0912,-4.0912,-4.0912,-4.0912,-4.0912,-4.0912,-4.0912,-4.0912,-4.0912,-4.0912,-4.0912,-4.1006,-4.107,-4.1111,-4.1047,-4.0943,-4.0619,0.0,0.0,0.0,0.0,0.0,-4.7084,-4.7615,-4.7678,-4.7986,-4.8782,-4.8203,-4.8004,-4.88,-4.8167,-4.7717,-4.7717,-4.7717,0.0,0.0,0.0,0.0,0.0,0.0,0.0,-4.3413,-4.2675,-4.2313,-4.2286,-4.2286,-4.2286,-4.2252,-4.1525,-4.1187,-4.117,0.0,0.0,0.0,0.0,-4.0288,-4.033,0.0,0.0,-4.0468,0.0,0.0,0.0,0.0,0.0,0.0,0.0,0.0,0.0,0.0,-3.6616,-3.6724,-3.7717,-3.8954,-4.0026,-4.0026,-4.1188,-4.241,-4.241,-4.1422,-4.0232,-3.9574,-3.7898,-3.6297,-3.5639,-3.5504,-3.5504,-3.5504,-3.5504,-3.5587,-3.5957,-3.6503,-3.7188,-3.8104,-3.939,-4.0475,-4.125,-4.1626,-4.1907,-4.2115,-4.183,-4.1604,-4.1588,-4.1588,-4.102,-3.9598,-4.0808,-4.1756,-4.2269,-4.1594,-4.1478,-4.1992,-4.0669,-4.0311,-4.0912,-4.0912,-4.0912,-4.0912,-4.0912,-4.0912,-4.0912,-4.0912,-4.0912,-4.0912,-4.0912,-4.0912,-4.0912,-4.0912,-4.0982,-4.107,-4.0959,-4.0481,-3.9811,0.0,0.0,0.0,0.0,0.0,0.0,-4.7062,-4.7151,-4.7567,-4.8761,-4.8185,-4.8004,-4.88,-4.8167,-4.7935,-4.8456,-4.8025,0.0,0.0,0.0,0.0,-4.5614,-4.6033,-4.555,-4.4,-4.4586,-4.4303,-4.3064,-4.3064,-4.3064,-4.3031,-4.1796,-4.1204,-4.117,-4.0434,-4.0096,0.0,-4.0238,-4.0404,-4.0576,0.0,-4.0583,-4.051,0.0,0.0,0.0,0.0,0.0,0.0,0.0,0.0,0.0,0.0,0.0,0.0,-3.6832,-3.7582,-3.8327,-3.8762,-3.9622,-4.0352,-4.0352,-3.9349,-3.8302,-3.8093,-3.6881,-3.5759,-3.5549,-3.5504,-3.5504,-3.5504,-3.5504,-3.5672,-3.6252,-3.6562,-3.6975,-3.7586,-3.8534,-3.949,-4.0299,-4.1142,-4.2016,-4.2963,-4.2373,-4.1943,-4.1925,-4.2196,-4.1509,-3.9598,-4.0281,-4.0369,-3.9594,-4.0226,-4.0596,-4.0627,-4.0197,-4.0294,-4.0912,-4.0912,-4.0912,-4.0912,-4.0912,-4.0912,-4.0912,-4.0912,-4.0912,-4.0912,-4.0912,-4.0912,-4.0912,-4.0912,-4.0935,-4.0959,-4.0912,-4.078,-4.0383,0.0,0.0,0.0,0.0,0.0,0.0,-4.7107,-4.7214,-4.7503,-4.8345,-4.8004,-4.7877,-4.8384,-4.7986,-4.8025,-4.8818,-4.8438,0.0,0.0,0.0,0.0,-4.5925,-4.6525,-4.6177,-4.4656,-4.5598,-4.5363,-4.3859,-4.4028,-4.4045,-4.3826,-4.2608,-4.1985,-4.1844,-4.0917,-4.0468,0.0,-4.0313,-4.0453,-4.0697,-4.0697,-4.0697,-4.0655,0.0,0.0,0.0,0.0,0.0,0.0,0.0,0.0,0.0,0.0,0.0,0.0,0.0,-3.6598,-3.6836,-3.7494,-3.8332,-3.9035,-3.9035,-3.8212,-3.7404,-3.7404,-3.6417,-3.5504,-3.5504,-3.5504,-3.5504,-3.5504,-3.5504,-3.5639,-3.6043,-3.6397,-3.6715,-3.7,-3.7942,-3.8837,-3.9525,-4.044,-4.1367,-4.2289,-4.1965,-4.1819,-4.2081,-4.1987,-4.1193,-3.9582,-3.9636,-3.9159,-3.8017,-3.8998,-3.9593,-3.9714,-3.9697,-3.9893,-4.0254,-4.0686,-4.0776,-4.0573,-4.0799,-4.0912,-4.0912,-4.0912,-4.0912,0.0,-4.0912,-4.0722,-4.0498,-4.0791,-4.0549,-4.0083,-4.0359,-4.0054,-3.9388,0.0,0.0,0.0,0.0,0.0,0.0,-4.7511,-4.7615,-4.7657,-4.7696,-4.7717,-4.7717,-4.7717,-4.7717,-4.8022,-4.8775,-4.8891,0.0,0.0,-4.8178,-4.7461,-4.6908,-4.6908,-4.6406,-4.5381,-4.5868,-4.5606,-4.4615,-4.5035,-4.5035,-4.4637,-4.3802,-4.3248,-4.2951,-4.1742,-4.1043,-4.0731,-4.0419,-4.0453,-4.0673,-4.0673,-4.0745,0.0,0.0,0.0,0.0,0.0,0.0,0.0,0.0,0.0,0.0,0.0,0.0,0.0,0.0,0.0,0.0,0.0,-3.7285,-3.8182,-3.8182,-3.7719,-3.727,-3.727,-3.6357,0.0,-3.5504,-3.5504,-3.5504,-3.5504,-3.5504,-3.5504,-3.5504,-3.6013,-3.6432,-3.6477,-3.7584,-3.8547,-3.8871,-3.9531,-4.0117,-4.0462,-4.0783,-4.1255,-4.1937,-4.1041,-4.0182,-3.9471,-3.8855,-3.8191,-3.7526,-3.7985,-3.8518,-3.9109,-3.9152,-3.9152,-3.9206,-4.0279,-4.05,-4.0028,-4.0573,-4.0847,-4.0912,-4.0912,-4.0912,-4.0912,-4.0843,-4.0353,-3.9767,-4.048,-3.9876,-3.8681,-3.937,-3.8665,-3.735,0.0,0.0,0.0,0.0,0.0,0.0,0.0,0.0,0.0,0.0,-4.7717,-4.7717,-4.7717,-4.7717,-4.7858,0.0,0.0,0.0,0.0,-4.845,-4.7665,-4.6926,-4.6908,-4.659,-4.5943,-4.6042,-4.5606,-4.4615,-4.472,-4.4906,-4.5108,-4.3933,-4.3274,-4.3026,-4.1767,-4.0858,-4.0254,-4.0171,-4.0238,-4.0404,-4.0404,-4.0461,0.0,0.0,0.0,0.0,-4.0673,-4.0648,0.0,0.0,0.0,0.0,0.0,0.0,0.0,0.0,-3.5893,-3.5534,-3.5684,0.0,-3.6178,-3.6178,-3.6073,-3.5953,0.0,-3.5714,-3.5504,-3.5504,-3.5504,-3.5504,-3.5504,-3.5504,-3.5504,-3.5504,-3.5639,-3.5908,-3.6417,-3.7584,-3.8622,-3.9217,-3.9427,-3.9763,-4.0368,-3.9868,-3.9895,-4.0793,-3.9926,-3.9188,-3.8745,-3.8602,-3.8191,-3.7526,-3.7612,-3.7943,-3.8518,-3.8518,-3.8739,-3.9206,-3.9454,-3.974,-4.0003,-4.0145,-4.0458,-4.0912,-4.0912,-4.0912,-4.086,-4.0233,-3.9871,-3.9664,-3.9284,-3.8905,-3.8612,-3.8784,-3.8544,-3.8036,0.0,0.0,0.0,0.0,0.0,0.0,0.0,0.0,0.0,0.0,-4.6954,-4.7062,-4.732,-4.7323,-4.7625,0.0,0.0,0.0,-4.8763,-4.8111,-4.7749,-4.7832,-4.7236,-4.666,-4.6098,-4.6098,-4.5716,-4.4917,-4.4917,-4.5062,-4.5276,-4.4371,-4.3802,-4.3484,-4.2141,-4.0976,-4.0096,-4.0096,-4.0188,-4.0305,-4.0305,0.0,0.0,0.0,0.0,0.0,-4.0793,-4.0745,0.0,-4.0229,-3.9532,-3.8767,0.0,0.0,0.0,0.0,-3.5973,-3.5572,-3.5537,-3.5504,-3.5504,-3.5504,-3.5504,-3.5504,-3.5504,-3.5554,-3.5572,-3.5504,-3.5554,-3.5572,-3.5504,-3.5504,-3.5504,-3.5504,-3.5759,-3.6282,-3.7225,-3.7689,-3.8302,-3.9269,-3.914,-3.9215,-3.9888,-3.936,-3.9219,-3.9757,-3.9015,-3.8466,-3.8262,-3.8116,-3.7859,-3.7526,-3.751,-3.7642,-3.7943,-3.8197,-3.8339,-3.8427,-3.8963,-3.9216,-3.9246,-3.9757,-4.017,-4.05,-4.0776,-4.0912,-4.0843,-4.0026,-3.9491,-3.9146,-3.875,-3.8163,-3.7577,-3.7956,-3.7765,-3.7232,0.0,0.0,0.0,0.0,0.0,0.0,0.0,0.0,0.0,0.0,0.0,0.0,0.0,0.0,0.0,0.0,0.0,-4.8443,-4.8016,-4.7639,-4.7832,-4.8742,-4.7405,-4.643,-4.5975,-4.5975,-4.5716,-4.5188,-4.5188,-4.5241,-4.5276,-4.4814,-4.431,-4.3786,-4.2551,-4.1339,-4.0221,-4.0279,-4.0345,-4.0387,-4.0387,0.0,0.0,0.0,0.0,0.0,0.0,0.0,0.0,-4.0721,-3.9978,-3.9044,-3.9001,0.0,0.0,0.0,0.0,0.0,-3.5587,-3.5644,-3.5689,-3.5534,-3.5537,-3.5522,-3.5522,-3.5653,-3.5703,-3.5554,-3.5621,-3.5671,-3.5522,-3.5392,-3.5326,-3.5326,-3.5967,-3.6928,-3.8227,-3.8003,-3.8093,-3.914,-3.8841,-3.8691,-3.908,-3.8902,-3.8732,-3.8709,-3.8063,-3.7732,-3.7826,-3.7585,-3.745,-3.751,-3.751,-3.751,-3.751,-3.7956,-3.7956,-3.751,-3.8483,-3.8728,-3.8334,-3.9394,-3.9927,-4.0028,-4.0638,-4.0912,-4.0825,-3.9905,-3.9163,-3.8577,-3.8336,-3.7434,-3.6366,-3.7038,-3.6715,-3.5954,0.0,0.0,0.0,0.0,0.0,0.0,0.0,0.0,0.0,0.0,0.0,0.0,0.0,0.0,0.0,0.0,0.0,-4.7498,-4.7424,-4.776,-4.8039,-4.822,-4.6495,-4.5511,-4.5433,-4.5433,-4.5178,-4.472,-4.472,-4.4917,-4.5276,-4.4814,-4.3881,-4.259,-4.2575,-4.1893,-4.0707,-4.1116,-4.1088,-4.0724,-4.0724,0.0,0.0,0.0,0.0,0.0,0.0,0.0,0.0,-4.0864,-4.0112,-3.9135,-3.8968,0.0,0.0,0.0,0.0,0.0,-3.5735,-3.6222,-3.6572,-3.5704,-3.5604,-3.5671,-3.5671,-3.5799,-3.591,-3.5703,-3.5688,-3.5671,-3.5522,-3.4938,-3.4495,-3.4495,-3.5501,-3.6814,-3.8202,-3.8811,-3.8975,-3.8601,-3.8975,-3.8856,-3.7823,-3.7648,-3.7549,-3.7322,-3.6677,-3.6536,-3.7125,-3.7092,-3.7211,-3.748,-3.751,-3.751,-3.751,-3.7583,-3.7583,-3.751,-3.7671,-3.7943,-3.8306,-3.9011,-3.9584,-4.0028,-4.0638,-4.0912,-4.0791,-3.9376,-3.8698,-3.8456,-3.7094,-3.6414,-3.6225,-3.6221,-3.6056,-3.5817,0.0,0.0,0.0,0.0,0.0,0.0,0.0,0.0,0.0,0.0,0.0,0.0,0.0,0.0,0.0,0.0,-4.7003,-4.6978,-4.6667,-4.6863,-4.6783,-4.6222,-4.5385,-4.5178,-4.5724,-4.5108,-4.4763,-4.4769,-4.435,-4.4474,-4.5081,-4.4759,-4.3978,-4.2905,-4.3014,-4.231,-4.1024,-4.1253,-4.0988,-4.0427,0.0,0.0,0.0,0.0,0.0,0.0,0.0,0.0,0.0,0.0,-4.0137,-3.9162,-3.9092,0.0,0.0,0.0,0.0,0.0,-3.5894,-3.6218,-3.654,-3.6343,-3.663,-3.6741,-3.6029,-3.6278,-3.6398,-3.5457,-3.5285,-3.5088,-3.4524,-3.4295,-3.4566,-3.5679,-3.6168,-3.6881,-3.8217,-3.8362,-3.8347,-3.8377,-3.8362,-3.8093,-3.7464,-3.7105,-3.6708,-3.6243,-3.6075,-3.6132,-3.6429,-3.6616,-3.6816,-3.6953,-3.7151,-3.7241,-3.7241,-3.7421,-3.751,-3.751,-3.751,-3.7626,-3.7886,-3.8451,-3.9038,-3.9568,-3.9859,-4.0137,-4.029,-3.8781,-3.8167,-3.8013,-3.6406,-3.5937,-3.6165,-3.5971,-3.5861,-3.5773,0.0,0.0,0.0,0.0,0.0,0.0,0.0,0.0,0.0,0.0,0.0,0.0,0.0,0.0,0.0,0.0,-4.6495,-4.6213,-4.5925,-4.59,-4.558,-4.4786,-4.472,-4.4998,-4.5648,-4.4773,-4.4502,-4.4907,-4.416,-4.4059,-4.4608,-4.4631,-4.4175,-4.331,-4.363,-4.2875,-4.1376,-4.1478,-4.1034,-4.0254,0.0,0.0,0.0,0.0,0.0,0.0,0.0,0.0,0.0,0.0,0.0,0.0,0.0,0.0,0.0,-3.6816,-3.6569,-3.6274,-3.61,-3.627,-3.6563,-3.677,-3.721,-3.7408,-3.6708,-3.6734,-3.6627,-3.5526,-3.515,-3.4699,-3.3817,-3.3796,-3.4469,-3.6196,-3.633,-3.6671,-3.8172,-3.7901,-3.7793,-3.8347,-3.7943,-3.7524,-3.7225,-3.6761,-3.6207,-3.5549,-3.5748,-3.5925,-3.6005,-3.6226,-3.6429,-3.6492,-3.6816,-3.6954,-3.6877,-3.7301,-3.751,-3.751,-3.751,-3.751,-3.751,-3.8071,-3.8546,-3.9001,-3.9152,-3.9428,-3.9699,-3.8378,-3.7756,-3.747,-3.6031,-3.5673,-3.5927,-3.5706,-3.5684,-3.5751,0.0,0.0,0.0,0.0,0.0,0.0,0.0,0.0,0.0,0.0,0.0,0.0,0.0,0.0,0.0,0.0,-4.5302,-4.4934,-4.5329,-4.5355,-4.5329,-4.5267,-4.5001,-4.4735,-4.4435,-4.435,-4.4502,-4.4907,-4.4164,-4.3756,-4.371,-4.4496,-4.4234,-4.3088,-4.4249,-4.3715,-4.1881,-4.2294,-4.183,-4.0754,-4.0754,0.0,0.0,0.0,0.0,0.0,0.0,0.0,0.0,0.0,0.0,0.0,0.0,0.0,-3.7857,-3.7165,-3.6831,-3.6585,-3.6274,-3.6765,-3.7213,-3.6456,-3.6286,-3.6669,-3.7846,-3.7074,-3.617,-3.6497,-3.5841,-3.4963,-3.4219,-3.3656,-3.3586,-3.4307,-3.4843,-3.5896,-3.7916,-3.8161,-3.8223,-3.8381,-3.8347,-3.7853,-3.6671,-3.6507,-3.6207,-3.5549,-3.5537,-3.5683,-3.5973,-3.6037,-3.6178,-3.6492,-3.6816,-3.6847,-3.6554,-3.7165,-3.751,-3.751,-3.751,-3.751,-3.751,-3.8071,-3.8306,-3.8407,-3.8974,-3.9232,-3.9193,-3.8328,-3.7625,-3.697,-3.6042,-3.5486,-3.5182,-3.5158,-3.5344,-3.5622,0.0,0.0,0.0,0.0,0.0,0.0,0.0,0.0,0.0,0.0,0.0,-4.5186,-4.5186,0.0,0.0,0.0,-4.5241,-4.5098,-4.5276,-4.5303,-4.5178,-4.4879,-4.4642,-4.4361,-4.4006,-4.4234,-4.4235,-4.3965,-4.3684,-4.3446,-4.3309,-4.3914,-4.4028,-4.3707,-4.4266,-4.3645,-4.2168,-4.2346,-4.1619,-4.0377,-4.0377,-4.037,0.0,0.0,0.0,0.0,0.0,0.0,0.0,0.0,-4.05,-3.9902,-3.9375,-3.8673,-3.7972,-3.7241,-3.6862,-3.6662,-3.6445,-3.6645,-3.6907,-3.6998,-3.6358,-3.5946,-3.6833,-3.656,-3.5933,-3.5246,-3.4992,-3.4613,-3.3769,-3.3268,-3.3387,-3.4569,-3.4788,-3.5405,-3.7153,-3.6792,-3.6661,-3.7549,-3.6952,-3.6463,-3.6488,-3.6118,-3.5774,-3.5534,-3.5504,-3.5569,-3.5683,-3.5683,-3.5748,-3.5876,-3.5798,-3.5906,-3.6195,-3.6426,-3.6772,-3.7181,-3.7391,-3.751,-3.751,-3.7714,-3.7985,-3.8278,-3.8185,-3.8084,-3.797,-3.7165,-3.6431,-3.5764,-3.5218,-3.4897,-3.4725,-3.4734,-3.4811,-3.4937,0.0,0.0,0.0,0.0,0.0,0.0,0.0,0.0,-4.4615,0.0,0.0,0.0,0.0,-4.4615,0.0,0.0,-4.5089,-4.5089,-4.5089,-4.5089,-4.4944,-4.4598,-4.4327,-4.4006,-4.3743,-4.4094,-4.4041,-4.3612,-4.3535,-4.3359,-4.3052,-4.3476,-4.3772,-4.3993,-4.4224,-4.3569,-4.2286,-4.2286,-4.1467,-4.0096,-4.0096,-4.0188,0.0,0.0,0.0,0.0,0.0,0.0,0.0,0.0,-4.0638,-4.0145,-3.9428,-3.8838,-3.8242,-3.7285,-3.6908,-3.6754,-3.6554,-3.6492,-3.6599,-3.7076,-3.6277,-3.5499,-3.5874,-3.5819,-3.5495,-3.4773,-3.4418,-3.4055,-3.3495,-3.3078,-3.3133,-3.4172,-3.4309,-3.4713,-3.5976,-3.5475,-3.5337,-3.6324,-3.5681,-3.533,-3.5811,-3.5448,-3.5279,-3.5392,-3.5472,-3.5504,-3.5504,-3.5504,-3.5504,-3.5504,-3.5179,-3.5168,-3.5528,-3.5476,-3.5821,-3.652,-3.6746,-3.7095,-3.751,-3.751,-3.7557,-3.7676,-3.7322,-3.6998,-3.6672,-3.6103,-3.5476,-3.4838,-3.4545,-3.4391,-3.4313,-3.4304,-3.4399,-3.4546,0.0,0.0,0.0,0.0,0.0,0.0,0.0,0.0,-4.4615,-4.4615,-4.4615,0.0,0.0,0.0,0.0,0.0,-4.4615,-4.4615,-4.4615,-4.4615,-4.4615,-4.4615,-4.408,-4.3743,-4.3608,-4.3834,-4.3974,-4.3991,-4.3799,-4.3425,-4.2899,-4.3221,-4.3552,-4.3802,-4.415,-4.3552,-4.2286,-4.2286,-4.1467,-4.0096,-4.0096,-4.0188,-4.0305,0.0,0.0,0.0,0.0,0.0,0.0,0.0,-4.0912,-4.0704,-3.9575,-3.9206,-3.8909,-3.7419,-3.7015,-3.6923,-3.6585,-3.6492,-3.6492,-3.6492,-3.5943,-3.5368,-3.5214,-3.4945,-3.4891,-3.5541,-3.4415,-3.3365,-3.356,-3.3154,-3.2788,-3.2724,-3.3196,-3.3804,-3.4386,-3.4485,-3.4562,-3.4768,-3.4768,-3.4665,-3.4404,-3.4524,-3.4758,-3.5148,-3.5392,-3.5504,-3.5504,-3.5504,-3.5504,-3.5489,-3.5179,-3.4817,-3.4503,-3.4349,-3.4694,-3.5506,-3.5505,-3.6192,-3.7494,-3.7494,-3.7085,-3.6393,-3.6393,-3.6026,-3.5379,-3.5379,-3.4952,-3.4304,-3.4144,-3.4016,-3.3915,-3.3899,-3.4151,-3.4497,0.0,0.0,0.0,0.0,0.0,0.0,0.0,0.0,-4.4709,-4.4598,-4.4615,0.0,0.0,0.0,0.0,0.0,0.0,0.0,-4.4615,-4.4615,-4.4485,-4.4258,-4.3964,-4.3625,-4.3248,-4.3219,-4.3469,-4.3991,-4.3516,-4.3157,-4.2899,-4.3099,-4.3355,-4.3667,-4.386,-4.3328,-4.2286,-4.2286,-4.1467,-4.0096,-4.0096,-4.0121,-4.0163,0.0,0.0,0.0,0.0,0.0,0.0,0.0,0.0,0.0,-3.9575,-3.9206,-3.8909,-3.7419,-3.7015,-3.6923,-3.6585,-3.6492,-3.6492,-3.6492,-3.5943,-3.5335,-3.5062,-3.4626,-3.4311,-3.4399,-3.3427,-3.2671,-3.3165,-3.2773,-3.2452,-3.2656,-3.2549,-3.2697,-3.3555,-3.295,-3.2816,-3.3834,-3.3567,-3.3501,-3.3928,-3.4476,-3.4758,-3.465,-3.5264,-3.5524,-3.5294,-3.5439,-3.528,-3.4801,-3.4221,-3.3907,-3.3784,-3.3427,-3.3738,-3.4722,-3.4869,-3.5564,-3.6753,-3.7109,-3.6713,-3.5726,-3.6187,-3.5742,-3.462,-3.4526,-3.4588,-3.4692,-3.425,-3.4089,-3.3983,-3.3615,-3.3555,-3.371,0.0,0.0,0.0,0.0,0.0,0.0,-4.4423,-4.4581,-4.4682,-4.4598,-4.4615,-4.4615,0.0,0.0,0.0,0.0,0.0,0.0,-4.4615,-4.4485,-4.4315,-4.4097,-4.3818,-4.3476,-4.3113,-4.2976,-4.3173,-4.377,-4.3311,-4.3052,-4.2976,-4.3143,-4.3325,-4.3535,-4.373,-4.3146,-4.1963,-4.2126,-4.1336,-3.9944,-4.0062,-4.0096,-4.0113,0.0,0.0,0.0,0.0,0.0,0.0,0.0,0.0,0.0,-3.9817,-3.9375,-3.8963,-3.777,-3.7285,-3.7014,-3.6662,-3.6569,-3.6585,-3.6523,-3.6179,-3.5634,-3.486,-3.4262,-3.3908,-3.3903,-3.3186,-3.268,-3.3033,-3.2612,-3.2254,-3.2482,-3.2216,-3.2206,-3.2769,-3.2273,-3.2135,-3.2965,-3.2736,-3.2739,-3.3311,-3.3831,-3.4254,-3.4438,-3.4957,-3.518,-3.5021,-3.5053,-3.4786,-3.4098,-3.344,-3.308,-3.3019,-3.2422,-3.2644,-3.3663,-3.3808,-3.4403,-3.536,-3.6122,-3.5925,-3.4968,-3.5126,-3.4699,-3.3925,-3.4034,-3.4156,-3.425,-3.4152,-3.396,-3.3743,-3.3424,-3.3309,-3.3319,0.0,0.0,-4.3802,-4.3831,0.0,0.0,-4.3889,-4.4298,-4.4598,-4.4615,-4.4615,-4.4615,0.0,0.0,0.0,-4.4559,0.0,0.0,-4.4559,-4.4315,-4.4126,-4.4068,-4.3582,-4.3251,-4.3113,-4.2976,-4.3068,-4.3402,-4.3204,-4.3143,-4.3143,-4.3295,-4.3402,-4.3402,-4.3734,-4.2933,-4.1437,-4.1898,-4.1167,-3.9729,-3.9995,-4.0096,-4.0096,-4.0096,0.0,0.0,0.0,0.0,0.0,0.0,0.0,0.0,-4.0195,-3.962,-3.9071,-3.8327,-3.7682,-3.7134,-3.6816,-3.6723,-3.6662,-3.6554,-3.6507,-3.6082,-3.4695,-3.396,-3.3659,-3.372,-3.3363,-3.302,-3.302,-3.2572,-3.2218,-3.2218,-3.2218,-3.2218,-3.2218,-3.2218,-3.2218,-3.2218,-3.2218,-3.2314,-3.2632,-3.2881,-3.3416,-3.4361,-3.4495,-3.4578,-3.4656,-3.4533,-3.4141,-3.3514,-3.2856,-3.2408,-3.2213,-3.1471,-3.1531,-3.2407,-3.251,-3.2904,-3.3565,-3.4808,-3.4984,-3.4257,-3.3566,-3.3314,-3.3371,-3.3881,-3.3783,-3.3387,-3.3881,-3.3736,-3.3282,-3.3282,-3.3282,-3.3266,0.0,0.0,-4.3747,-4.401,0.0,0.0,-4.4207,-4.4508,-4.4737,-4.4598,-4.4615,-4.4615,-4.4615,-4.4615,0.0,-4.4212,-4.4457,0.0,-4.4212,-4.44,-4.427,-4.3743,-4.3113,-4.2867,-4.3113,-4.3082,-4.3204,-4.3568,-4.3402,-4.3342,-4.3342,-4.3372,-4.3402,-4.3419,-4.3598,-4.2829,-4.1437,-4.1898,-4.1167,-3.9729,-3.9995,-4.0096,-4.0096,-4.0096,-4.0138,0.0,0.0,0.0,0.0,0.0,0.0,0.0,-4.0195,-3.962,-3.9071,-3.8327,-3.7682,-3.7164,-3.6984,-3.6831,-3.6693,-3.6662,-3.6386,-3.5914,-3.5096,-3.4304,-3.3532,-3.2717,-3.2453,-3.2395,-3.2395,-3.23,-3.2218,-3.2218,-3.2218,-3.2218,-3.2218,-3.2218,-3.2218,-3.2218,-3.2218,-3.2218,-3.2314,-3.2832,-3.3122,-3.3101,-3.3796,-3.4264,-3.4464,-3.4079,-3.3748,-3.3514,-3.2856,-3.2169,-3.1515,-3.1235,-3.1308,-3.1718,-3.1646,-3.1849,-3.2336,-3.426,-3.4801,-3.4109,-3.3433,-3.3313,-3.3637,-3.3848,-3.3817,-3.3637,-3.3864,-3.356,-3.3005,-3.3096,-3.3123,-3.315,0.0,0.0,0.0,0.0,0.0,0.0,0.0,0.0,-4.4709,-4.4709,-4.4626,-4.4615,-4.4615,-4.4615,0.0,0.0,-4.4485,-4.4514,-4.4344,-4.427,-4.3935,-4.3295,-4.2836,-4.2728,-4.3007,-4.3082,-4.3235,-4.3492,-4.3509,-4.3462,-4.3402,-4.3402,-4.3312,-4.3176,-4.3419,-4.2565,-4.1009,-4.1521,-4.0882,-3.9487,-3.979,-3.9986,-4.0096,-4.0096,-4.0096,-4.0138,-4.0395,0.0,0.0,0.0,0.0,0.0,0.0,0.0,-3.9437,-3.8613,-3.8026,-3.7506,-3.6998,-3.6785,-3.6693,-3.6631,-3.6424,-3.6047,-3.5409,-3.4896,-3.4188,-3.283,-3.2372,-3.2218,-3.2218,-3.2218,-3.2218,-3.2218,-3.2218,-3.2218,-3.2218,-3.2218,-3.2218,-3.2218,-3.2218,-3.2146,-3.2073,-3.2467,-3.2725,-3.2783,-3.3276,-3.3519,-3.3334,-3.3249,-3.2922,-3.2227,-3.2094,-3.1796,-3.1307,-3.1234,-3.1176,-3.1161,-3.1394,-3.171,-3.2079,-3.3093,-3.3385,-3.303,-3.2843,-3.2889,-3.3119,-3.3345,-3.3372,-3.3301,-3.34,-3.3224,-3.2912,-3.3058,-3.3096,-3.3123,0.0,0.0,0.0,0.0,0.0,0.0,0.0,0.0,0.0,-4.4748,-4.4682,-4.4643,-4.4598,-4.4598,-4.4542,0.0,0.0,0.0,-4.444,-4.4006,-4.3505,-4.2961,-4.2728,-4.2696,-4.2899,-4.3007,-4.3143,-4.3342,-4.3462,-4.3462,-4.3342,-4.3372,-4.3221,-4.2961,-4.3251,-4.2327,-4.0586,-4.1152,-4.0536,-3.9152,-3.9461,-3.9764,-4.002,-4.002,-4.0045,-4.0121,-4.0387,-4.0485,-4.0534,-4.0776,0.0,0.0,0.0,0.0,-3.9834,-3.8962,-3.839,-3.7841,-3.6952,-3.6693,-3.6662,-3.6523,-3.6492,-3.632,-3.5705,-3.5464,-3.4993,-3.3596,-3.2797,-3.2277,-3.2132,-3.2109,-3.2109,-3.2109,-3.2146,-3.2146,-3.2146,-3.2182,-3.2182,-3.2146,-3.2146,-3.2073,-3.1853,-3.2,-3.2264,-3.2712,-3.2761,-3.2639,-3.2201,-3.2399,-3.2057,-3.1012,-3.1323,-3.1438,-3.1307,-3.1307,-3.1146,-3.0866,-3.1365,-3.1739,-3.1994,-3.1838,-3.1838,-3.1936,-3.2203,-3.2342,-3.2398,-3.2648,-3.2788,-3.2816,-3.2843,-3.2843,-3.2827,-3.2989,-3.3085,-3.3054,0.0,0.0,0.0,0.0,0.0,0.0,0.0,0.0,0.0,0.0,-4.4709,-4.4737,-4.4598,-4.4536,-4.435,-4.3948,-4.4068,-4.4097,-4.3919,0.0,0.0,-4.3082,-4.2774,-4.2696,-4.2899,-4.293,-4.3007,-4.3143,-4.3174,-4.3174,-4.3143,-4.3312,-4.3281,-4.3082,-4.3312,-4.2403,-4.0782,-4.1226,-4.0397,-3.8887,-3.9169,-3.9461,-3.9755,-3.9755,-3.991,-4.0138,-4.0263,-4.0387,-4.0534,-4.0673,-4.0817,0.0,0.0,0.0,-3.9834,-3.8962,-3.829,-3.7677,-3.6906,-3.6693,-3.6662,-3.6523,-3.6492,-3.6414,-3.6148,-3.5721,-3.5302,-3.4942,-3.3768,-3.2583,-3.1817,-3.1683,-3.1683,-3.1683,-3.1817,-3.1927,-3.1927,-3.2109,-3.2146,-3.1963,-3.1927,-3.1853,-3.1683,-3.1683,-3.178,-3.2023,-3.2023,-3.2072,-3.2122,-3.1995,-3.1835,-3.167,-3.156,-3.1438,-3.1307,-3.1307,-3.1234,-3.1043,-3.1132,-3.119,-3.1249,-3.122,-3.1496,-3.1981,-3.2038,-3.2122,-3.2219,-3.229,-3.2358,-3.248,-3.2578,-3.2578,-3.2508,-3.28,-3.2924,-3.2873,0.0,0.0,0.0,0.0,0.0,0.0,0.0,0.0,0.0,0.0,0.0,-4.4281,-4.4412,-4.4423,-4.4378,-4.4367,-4.444,-4.4355,-4.3993,-4.3671,-4.3355,-4.3096,-4.2959,-4.2836,-4.2728,-4.2914,-4.3021,-4.3113,-4.3204,-4.3204,-4.3113,-4.3204,-4.3174,-4.3113,-4.3312,-4.2433,-4.0828,-4.107,-4.0245,-3.8805,-3.8925,-3.9169,-3.9408,-3.9408,-3.9609,-3.9884,-4.0011,-4.0213,-4.0412,-4.0624,-4.0648,-4.0607,-4.084,0.0,0.0,0.0,-3.8298,-3.7889,-3.6723,-3.6492,-3.6569,-3.6523,-3.6492,-3.6492,-3.6383,-3.6179,-3.5847,-3.527,-3.4614,-3.3754,-3.2533,-3.2345,-3.2164,-3.1669,-3.1683,-3.172,-3.172,-3.1817,-3.1817,-3.1743,-3.172,-3.172,-3.1609,-3.172,-3.178,-3.189,-3.2,-3.1811,-3.1172,-3.1316,-3.1239,-3.0865,-3.1028,-3.1219,-3.1409,-3.1409,-3.138,-3.1336,-3.1249,-3.1205,-3.1205,-3.1307,-3.1395,-3.1511,-3.1653,-3.1796,-3.1938,-3.2135,-3.2274,-3.2398,-3.2302,-3.233,-3.2425,-3.2578,-3.2746,-3.2877,0.0,0.0,0.0,0.0,0.0,0.0,0.0,0.0,0.0,0.0,0.0,-4.3977,-4.415,0.0,0.0,0.0,-4.4452,-4.4298,-4.3952,-4.3628,-4.3342,-4.3113,-4.3113,-4.299,-4.2711,-4.299,-4.3113,-4.3113,-4.3235,-4.3235,-4.3113,-4.3113,-4.3113,-4.3113,-4.3221,-4.2373,-4.0841,-4.0912,-4.0062,-3.8711,-3.8711,-3.886,-3.9098,-3.9098,-3.9302,-3.9582,-3.9729,-3.9952,-4.0163,-4.0362,-4.0387,-4.0404,-4.0583,-4.0583,0.0,0.0,0.0,-3.7597,-3.6554,-3.6352,-3.6445,-3.6492,-3.6492,-3.6492,-3.6492,-3.6492,-3.632,-3.5593,-3.5417,-3.4898,-3.3374,-3.2932,-3.2497,-3.1582,-3.1485,-3.1522,-3.1522,-3.1572,-3.1559,-3.1522,-3.1522,-3.1485,-3.1447,-3.1596,-3.1693,-3.173,-3.1877,-3.151,-3.039,-3.0773,-3.0755,-3.0111,-3.0569,-3.1029,-3.1511,-3.1511,-3.1511,-3.1511,-3.1409,-3.1351,-3.1351,-3.1438,-3.1395,-3.122,-3.1394,-3.1552,-3.1754,-3.1966,-3.212,-3.2203,-3.2066,-3.2051,-3.2203,-3.2315,-3.2484,-3.2633,0.0,0.0,0.0,0.0,0.0,0.0,0.0,0.0,0.0,0.0,0.0,-4.415,-4.386,-4.3831,-4.3772,-4.3687,-4.3568,-4.3462,-4.3432,-4.3539,-4.3432,-4.3096,-4.3113,0.0,-4.3066,-4.3096,-4.3113,-4.3113,-4.3113,-4.3113,-4.3113,-4.3113,-4.3113,-4.3096,-4.2976,-4.2192,-4.1,-4.087,-3.9894,-3.842,-3.842,-3.8572,-3.8832,-3.8832,-3.898,-3.9232,-3.9458,-3.9616,-3.9729,-3.9755,-4.0087,-4.0436,-4.0079,-4.0213,-4.0204,0.0,0.0,0.0,-3.6445,-3.6352,-3.6274,-3.646,-3.6492,-3.6492,-3.6492,-3.6492,-3.6492,-3.6429,-3.6274,-3.561,-3.3979,-3.2975,-3.2123,-3.1198,-3.1198,-3.131,-3.131,-3.1485,-3.1522,-3.1347,-3.131,-3.1235,-3.1061,-3.1061,-3.1136,-3.131,-3.1347,-3.099,-3.0156,-3.0562,-3.0597,-3.0111,-3.0569,-3.1029,-3.1511,-3.1511,-3.1511,-3.1511,-3.1511,-3.1511,-3.1511,-3.1511,-3.1511,-3.1467,-3.1351,-3.1496,-3.1784,-3.1754,-3.1739,-3.1768,-3.1925,-3.1796,-3.1595,-3.2051,-3.215,-3.1883,0.0,0.0,0.0,0.0,0.0,0.0,0.0,0.0,0.0,0.0,0.0,0.0,0.0,-4.3818,-4.386,-4.4035,-4.3802,-4.3671,-4.3734,-4.3568,-4.3402,-4.3312,-4.3372,-4.3325,-4.3096,-4.3235,-4.3295,-4.3295,-4.3295,-4.3295,-4.3295,-4.3295,-4.3295,-4.3281,-4.3251,-4.2343,-4.087,-4.0912,-3.9935,-3.8391,-3.8391,-3.8448,-3.8544,-3.8644,-3.8777,-3.898,-3.9272,-3.9458,-3.959,-3.9772,-3.9833,-3.9901,-3.9986,-4.0011,-3.9799,-3.8859,-3.7515,-3.6368,-3.6569,-3.6367,-3.6116,-3.6274,-3.6383,-3.6492,-3.6492,-3.6492,-3.646,-3.6352,-3.6242,-3.58,-3.4514,-3.363,-3.2627,-3.1235,-3.1061,-3.1099,-3.1099,-3.1174,-3.1174,-3.1136,-3.1099,-3.1123,-3.1198,-3.1198,-3.1286,-3.1485,-3.1485,-3.1076,-3.0156,-3.0248,-3.0314,-3.0233,-3.0312,-3.0732,-3.1511,-3.1511,-3.1511,-3.1511,-3.1511,-3.1271,-3.0853,-3.1301,-3.1271,-3.0868,-3.1244,-3.1568,-3.1799,-3.1625,-3.161,-3.1682,-3.1452,-3.1466,-3.1638,-3.1724,-3.1853,-3.186,0.0,0.0,0.0,-4.3598,0.0,-4.3598,-4.3598,-4.3598,-4.3598,-4.3598,0.0,0.0,0.0,0.0,-4.3743,-4.3977,-4.3848,-4.3759,-4.3793,-4.3598,-4.3479,-4.3479,-4.3568,-4.3509,-4.3265,-4.3171,-4.3099,-4.3099,-4.2851,-4.2736,-4.2736,-4.2941,-4.2894,-4.2664,-4.2911,-4.2219,-4.087,-4.0838,-3.989,-3.8391,-3.8391,-3.8391,-3.8408,-3.8504,-3.8616,-3.8766,-3.9002,-3.9164,-3.9299,-3.9415,-3.9468,-3.9494,-3.9635,-3.9556,-3.9302,-3.8876,-3.769,-3.66,-3.6799,-3.6383,-3.5958,-3.6148,-3.6305,-3.6414,-3.6492,-3.6492,-3.646,-3.6352,-3.6211,-3.5847,-3.4876,-3.4192,-3.3248,-3.164,-3.1161,-3.0986,-3.0986,-3.0986,-3.0986,-3.0986,-3.0986,-3.1061,-3.1198,-3.1198,-3.1235,-3.1373,-3.141,-3.1003,-3.0052,-2.995,-2.9962,-3.0142,-3.0267,-3.0703,-3.1511,-3.1511,-3.1391,-3.1152,-3.1152,-3.0808,-3.0208,-3.0672,-3.0746,-3.0522,-3.0957,-3.1359,-3.1698,-3.164,-3.1596,-3.1538,-3.1321,-3.1321,-3.1509,-3.1552,-3.1653,-3.1664,-4.3598,-4.3598,-4.3598,-4.3598,-4.3598,-4.3598,-4.3598,-4.3598,-4.3598,-4.3598,0.0,0.0,0.0,0.0,0.0,-4.3419,-4.3522,-4.3598,-4.3598,-4.3598,-4.3628,-4.3628,-4.3628,-4.3628,-4.3598,-4.2899,-4.2518,-4.2489,-4.1744,-4.1409,-4.1397,-4.1997,-4.1877,-4.1235,-4.1943,-4.1802,-4.0951,-4.0612,-3.9684,-3.8408,-3.8408,-3.8391,-3.8391,-3.8391,-3.8476,-3.8604,-3.8588,-3.8699,-3.8777,-3.8644,-3.8942,-3.9312,-3.8942,-3.8805,-3.8805,-3.8805,-3.7911,-3.6936,0.0,0.0,0.0,-3.6101,-3.6196,-3.6242,-3.646,-3.6492,-3.6492,-3.6492,-3.6226,-3.5799,-3.5055,-3.4595,-3.3856,-3.2398,-3.1529,-3.1011,-3.0986,-3.0986,-3.0986,-3.0986,-3.0986,-3.0986,-3.0986,-3.0986,-3.0986,-3.0986,-3.0986,-3.0637,-2.9869,-2.9614,-2.9612,-2.9789,-3.0434,-3.1029,-3.1511,-3.1511,-3.1167,-3.0537,-3.0507,-3.0178,-2.9606,-2.9636,-2.9924,-3.0477,-3.0522,-3.0911,-3.1511,-3.1698,-3.1597,-3.1322,-3.1596,-3.1467,-3.1132,-3.1538,-3.1538,-3.1246,-4.3598,-4.3598,-4.3598,-4.3598,-4.3598,-4.3598,-4.3598,-4.3598,-4.3598,0.0,0.0,0.0,-4.3539,-4.3522,-4.3522,-4.3522,-4.3598,-4.3658,-4.3793,-4.3839,-4.3852,-4.3952,-4.3952,-4.3939,-4.3839,-4.309,-4.265,-4.2489,-4.1744,-4.1409,-4.1409,-4.1567,-4.1538,-4.134,-4.1457,-4.1058,-4.0339,-4.0254,-3.956,-3.8532,-3.8532,-3.8492,-3.8391,-3.852,-3.852,-3.8476,-3.8683,-3.8711,-3.8655,-3.8738,-3.8832,-3.8952,-3.8942,-3.8717,-3.8535,-3.9023,-3.7911,-3.6677,-3.7207,0.0,0.0,0.0,0.0,0.0,-3.6242,-3.6274,-3.6274,-3.6274,-3.6211,-3.6053,-3.5767,-3.5041,-3.438,-3.3959,-3.2706,-3.1603,-3.1099,-3.0986,-3.0986,-3.0986,-3.0986,-3.0986,-3.0986,-3.0986,-3.0986,-3.0986,-3.0986,-3.0771,-3.0239,-2.9969,-2.9793,-2.9806,-3.0434,-3.1029,-3.1511,-3.1511,-3.1406,-3.1212,-3.0746,-3.0178,-2.9621,-3.0043,-3.0103,-2.9921,-3.0964,-3.1461,-3.1511,-3.1467,-3.138,-3.1307,-3.1365,-3.1336,-3.1263,-3.1466,-3.1523,-3.1347,-4.3598,-4.3598,-4.3598,-4.3598,-4.3598,-4.3598,-4.3598,-4.3598,-4.3598,0.0,0.0,0.0,-4.3734,-4.3734,-4.3763,-4.3805,-4.3763,-4.3793,-4.3969,-4.3927,-4.3956,-4.4097,-4.4097,-4.4068,-4.3969,-4.2906,-4.2287,-4.2157,-4.1055,-4.0514,-4.0531,-4.0845,-4.0812,-4.0531,-4.0778,-4.0458,-3.9765,-3.9765,-3.9297,-3.8588,-3.8588,-3.8504,-3.8408,-3.8492,-3.8504,-3.8504,-3.86,-3.8655,-3.8683,-3.8655,-3.8694,-3.8832,-3.9067,-3.8925,-3.8745,-3.8843,-3.7895,-3.6829,-3.6951,-3.6305,-3.5621,-3.5688,0.0,0.0,-3.6085,-3.6148,-3.6196,-3.6196,-3.6196,-3.6179,-3.6085,-3.5576,-3.5073,-3.4776,-3.3837,-3.2741,-3.1603,-3.1468,-3.132,-3.1061,-3.0986,-3.0986,-3.0986,-3.0986,-3.0986,-3.0986,-3.0986,-3.0695,-3.0062,-2.9665,-2.9596,-2.9806,-3.0222,-3.0807,-3.1511,-3.1655,-3.1504,-3.1077,-3.0488,-2.9856,-2.9175,-2.925,-2.9235,-2.9232,-3.0147,-3.0616,-3.0746,-3.0972,-3.1184,-3.1409,-3.1553,-3.1553,-3.1524,-3.1724,-3.1752,-3.165,0.0,-4.3628,-4.3598,-4.3598,-4.3628,-4.3628,-4.3628,-4.3658,-4.3658,0.0,-4.3658,-4.3717,-4.3898,-4.3927,-4.3969,-4.4097,-4.3998,-4.3969,-4.4126,-4.3998,-4.3998,-4.4155,-4.4155,-4.4093,-4.398,-4.2495,-4.1688,-4.1577,-4.0059,-3.9325,-3.9342,-3.9978,-3.9928,-3.9332,-3.9896,-3.9786,-3.9175,-3.9121,-3.8876,-3.856,-3.8616,-3.856,-3.8448,-3.8436,-3.8492,-3.8588,-3.8448,-3.8588,-3.875,-3.8532,-3.86,-3.886,-3.9148,-3.9218,-3.905,-3.8535,-3.7851,-3.7191,-3.6662,-3.6037,-3.5522,-3.5638,-3.5688,0.0,-3.5926,-3.6053,-3.6117,-3.6072,-3.6057,-3.6042,-3.5997,-3.5872,-3.5602,-3.5035,-3.4758,-3.409,-3.2492,-3.2182,-3.1882,-3.1222,-3.0996,-3.0921,-3.0973,-3.0934,-3.0921,-3.0973,-3.0986,-3.0577,-2.9631,-2.9164,-2.9193,-2.9749,-2.9822,-3.0329,-3.1409,-3.1726,-3.1453,-3.064,-3.016,-2.9485,-2.8682,-2.8094,-2.8124,-2.8607,-2.8835,-2.9211,-2.9678,-3.0358,-3.0947,-3.1435,-3.1853,-3.1912,-3.1841,-3.2094,-3.2107,-3.2025,-4.3839,-4.3704,-4.3598,-4.3598,-4.3734,-4.3839,-4.3839,-4.3923,-4.401,-4.401,-4.401,-4.401,-4.4056,-4.4056,-4.4068,-4.4097,-4.4085,-4.4126,-4.4253,-4.4224,-4.4298,-4.4485,-4.4485,-4.4086,-4.3238,-4.2422,-4.163,-4.0817,-3.9907,-3.9475,-3.9475,-3.9501,-3.9448,-3.9272,-3.8892,-3.8637,-3.8463,-3.7982,-3.7956,-3.823,-3.8722,-3.8832,-3.8694,-3.8588,-3.856,-3.8604,-3.856,-3.8588,-3.8644,-3.8711,-3.875,-3.8805,-3.8887,-3.8623,-3.8383,-3.8761,-3.778,-3.6692,-3.7101,-3.6383,-3.5504,-3.5522,-3.5554,0.0,-3.5735,-3.5784,-3.5696,-3.5306,-3.5231,-3.5094,-3.4667,-3.4485,-3.4577,-3.5047,-3.5029,-3.4562,-3.3531,-3.2635,-3.2123,-3.2123,-3.102,-3.049,-3.0934,-3.0568,-3.049,-3.0947,-3.0986,-3.0686,-3.0006,-2.9489,-2.9302,-2.9477,-2.9036,-2.947,-3.0925,-3.0984,-3.1218,-3.1545,-3.0923,-3.0177,-2.9412,-2.9277,-2.8981,-2.8622,-2.9426,-2.9754,-2.9798,-3.0156,-3.0446,-3.079,-3.1656,-3.1912,-3.1841,-3.2094,-3.2191,-3.215,-4.3998,-4.3939,-4.3864,-4.3864,-4.3923,-4.3998,-4.3998,-4.4056,-4.4097,-4.4097,-4.4097,-4.4126,-4.4196,-4.4196,-4.4241,-4.4344,-4.427,-4.427,-4.444,-4.4367,-4.4198,-4.4012,-4.3995,-4.3584,-4.2661,-4.192,-4.1178,-4.0348,-3.9522,-3.8942,-3.8535,-3.8479,-3.8439,-3.8355,-3.801,-3.7851,-3.7822,-3.7531,-3.7546,-3.7767,-3.7953,-3.8355,-3.8777,-3.8387,-3.8432,-3.8711,-3.8711,-3.8516,-3.8246,-3.8128,-3.827,-3.8455,-3.8523,-3.8623,-3.8678,-3.8662,-3.7838,-3.689,-3.689,-3.6211,-3.5504,-3.5504,-3.5504,0.0,0.0,-3.5638,-3.5629,-3.5392,-3.5168,-3.4911,-3.4653,-3.4318,-3.4333,-3.5095,-3.5141,-3.5122,-3.5085,-3.4163,-3.3234,-3.2506,-3.1464,-3.0867,-3.0996,-3.0464,-3.0335,-3.0934,-3.0986,-3.0775,-3.0273,-2.9899,-2.9641,-2.9549,-2.9228,-2.9606,-3.0777,-3.0925,-3.1291,-3.1883,-3.123,-3.0483,-2.9699,-2.9699,-2.9158,-2.8256,-2.9204,-2.9336,-2.8949,-2.9485,-2.9727,-2.987,-3.1113,-3.1579,-3.1569,-3.2096,-3.2287,-3.2287,-4.4126,-4.4126,-4.4097,-4.4097,-4.4126,-4.4155,-4.4155,-4.4155,-4.42,-4.42,-4.42,-4.4241,-4.4338,-4.4367,-4.4412,-4.4542,-4.444,-4.4412,-4.4542,-4.444,-4.4058,-4.3426,-4.3293,-4.2789,-4.1897,-4.1104,-4.0369,-3.9724,-3.9011,-3.8327,-3.7648,-3.7618,-3.7531,-3.7399,-3.728,-3.7221,-3.7191,-3.7071,-3.7101,-3.7191,-3.689,-3.7546,-3.8623,-3.7985,-3.8128,-3.865,-3.8523,-3.8185,-3.7754,-3.7458,-3.7679,-3.8071,-3.7994,-3.8479,-3.8942,-3.8238,-3.7648,-3.7071,-3.6538,-3.5973,-3.5504,-3.5504,-3.5504,-3.5504,0.0,0.0,0.0,-3.5505,-3.5179,-3.4879,-3.4774,-3.4395,-3.4317,-3.4927,-3.511,-3.5462,-3.6215,-3.5555,-3.4482,-3.308,-3.2075,-3.1436,-3.1267,-3.0679,-3.049,-3.0947,-3.0986,-3.0852,-3.0526,-3.0262,-2.9979,-2.9781,-2.9503,-2.9776,-3.0622,-3.0837,-3.1276,-3.1824,-3.1435,-3.08,-3.0041,-2.9905,-2.9169,-2.8067,-2.8712,-2.8641,-2.81,-2.8782,-2.8971,-2.9037,-3.059,-3.1197,-3.1301,-3.2097,-3.2398,-3.2398,-4.4179,-4.4184,-4.4097,-4.4097,-4.4196,-4.4281,-4.4281,-4.444,-4.4542,-4.4542,-4.4542,-4.4542,-4.457,-4.457,-4.4497,-4.4338,-4.4485,-4.4497,-4.4338,-4.4468,-4.4231,-4.3426,-4.2897,-4.1891,-4.0365,-3.9841,-3.917,-3.8343,-3.8234,-3.8026,-3.7764,-3.7648,-3.7531,-3.737,-3.6784,-3.6508,-3.6492,-3.5941,-3.6022,-3.6461,-3.591,-3.6753,-3.8266,-3.7472,-3.7621,-3.81,-3.7517,-3.737,-3.7429,-3.7221,-3.7546,-3.7956,-3.707,-3.7442,-3.8071,-3.728,-3.6814,-3.6492,-3.643,-3.5973,-3.5504,-3.5504,-3.5504,-3.5504,-3.5504,0.0,-3.5357,-3.4775,0.0,-3.4418,-3.3939,0.0,0.0,-3.4241,-3.4805,-3.5294,-3.5584,-3.5492,-3.5275,-3.4838,-3.2843,-3.1705,-3.22,-3.1452,-3.0921,-3.0973,-3.0986,-3.0998,-3.0932,-3.0411,-3.0072,-3.005,-2.9061,-2.9,-3.0007,-3.0111,-3.0525,-3.1291,-3.1819,-3.1649,-3.0831,-3.0239,-2.9572,-2.8844,-2.8473,-2.8262,-2.8186,-2.84,-2.847,-2.863,-3.0486,-3.1197,-3.1301,-3.2097,-3.2398,-3.2398,-4.4236,-4.4429,-4.427,-4.3827,-4.415,-4.4207,-4.338,-4.332,-4.338,-4.338,-4.338,-4.338,-4.338,-4.3722,-4.3752,-4.3183,-4.4018,-4.4179,-4.3183,-4.3294,-4.297,-4.2081,-4.1176,-4.0209,-3.9198,-3.8708,-3.811,-3.7415,-3.7415,-3.7221,-3.686,-3.6799,-3.6646,-3.6399,-3.6117,-3.5943,-3.5846,-3.5619,-3.5651,-3.5861,-3.5587,-3.6164,-3.7145,-3.6829,-3.7101,-3.7621,-3.692,-3.6753,-3.6753,-3.6321,-3.6585,-3.7027,-3.6615,-3.7041,-3.765,-3.728,-3.6799,-3.6399,-3.6399,-3.5973,-3.5504,-3.5504,-3.5504,-3.5504,-3.5504,-3.5504,-3.5429,-3.513,0.0,0.0,0.0,0.0,0.0,0.0,-3.4836,-3.5156,-3.5309,-3.5339,-3.5277,-3.5133,-3.3547,-3.2331,-3.1928,-3.1343,-3.088,-3.0664,-3.0878,-3.0917,-3.065,-3.0618,-3.0477,-3.0113,-2.9398,-2.9333,-2.989,-2.9698,-3.0208,-3.1393,-3.1537,-3.1222,-3.0537,-3.0659,-2.9911,-2.8555,-2.8786,-2.8692,-2.8323,-2.8372,-2.8642,-2.9095,-3.0273,-3.0738,-3.086,-3.1986,-3.2398,-3.2398,-4.3423,-4.3722,-4.3542,-4.3012,-4.3376,-4.3393,-4.2363,-4.2284,-4.2347,-4.2347,-4.2442,-4.2489,-4.2458,-4.2784,-4.2753,-4.2125,-4.3045,-4.3166,-4.2062,-4.2234,-4.1904,-4.091,-4.0134,-3.9262,-3.8333,-3.7829,-3.7258,-3.6569,-3.6461,-3.6196,-3.5769,-3.5769,-3.564,-3.5494,-3.5494,-3.5427,-3.5326,-3.5326,-3.5326,-3.5326,-3.5326,-3.5653,-3.6164,-3.6337,-3.6616,-3.6814,-3.6321,-3.6133,-3.6085,-3.5572,-3.5846,-3.6337,-3.6086,-3.6492,-3.7071,-3.686,-3.6492,-3.6133,-3.6133,-3.5814,-3.5504,-3.5504,-3.5504,-3.5504,-3.5504,-3.5504,-3.5504,-3.5504,-3.51,0.0,0.0,0.0,-3.4299,-3.4632,0.0,-3.4911,-3.4866,-3.4744,-3.4699,-3.4898,-3.3813,-3.2641,-3.1592,-3.1013,-3.0438,-2.9872,-3.0262,-3.0377,-2.9966,-3.0493,-3.0629,-3.0223,-2.9754,-2.9611,-2.9886,-2.9508,-2.9856,-3.0955,-3.1175,-3.0938,-3.0304,-3.0785,-3.0072,-2.855,-2.8947,-2.8858,-2.8411,-2.8411,-2.8704,-2.9202,-3.0063,-3.0402,-3.0555,-3.1905,-3.2398,-3.2398,-4.1349,-4.1513,-4.1513,-4.148,-4.148,-4.148,-4.1447,-4.1772,-4.2029,-4.2029,-4.2284,-4.2458,-4.2332,-4.1965,-4.1692,-4.1543,-4.1333,-4.1234,-4.1231,-4.174,-4.1502,-4.0388,-4.0403,-3.9645,-3.7857,-3.7319,-3.6596,-3.5752,-3.5429,-3.5055,-3.4662,-3.4662,-3.4758,-3.4935,-3.4935,-3.492,-3.4935,-3.4935,-3.4935,-3.4935,-3.4935,-3.5148,-3.5587,-3.6164,-3.6053,-3.5569,-3.5537,-3.5537,-3.5504,-3.5294,-3.5735,-3.6243,-3.5249,-3.5608,-3.6274,-3.5492,-3.5392,-3.5537,-3.5537,-3.5504,-3.5504,-3.5504,-3.5504,-3.5504,-3.5504,-3.5504,-3.5504,-3.5504,-3.5489,-3.5474,-3.5474,-3.5444,-3.5267,-3.4781,-3.4723,0.0,0.0,-3.3586,-3.3579,-3.4431,-3.3444,-3.2413,-3.1577,-3.0483,-2.945,-2.8516,-2.9035,-2.9184,-2.8778,-2.9821,-3.0392,-3.0378,-2.9812,-2.9614,-2.9797,-2.947,-2.939,-2.9566,-3.0866,-3.1135,-3.0475,-3.0445,-3.0033,-2.9325,-2.8695,-2.8427,-2.8411,-2.8411,-2.8411,-2.8565,-2.9879,-3.0402,-3.0555,-3.1905,-3.2398,-3.2398,-3.9275,-3.9275,-3.9581,-4.0557,-4.11,-4.125,-4.0829,-4.0047,-3.9631,-4.0039,-4.0189,-4.0174,-3.9999,-4.0251,-4.0182,-3.9555,-4.0511,-4.0699,-3.9697,-4.0019,-4.0034,-3.9525,-3.8838,-3.8198,-3.7689,-3.6614,-3.5929,-3.564,-3.4993,-3.4706,-3.481,-3.4924,-3.4971,-3.4902,-3.4902,-3.4835,-3.475,-3.4616,-3.4582,-3.4582,-3.4716,-3.4883,-3.5148,-3.5636,-3.5683,-3.5504,-3.5504,-3.5504,-3.5504,-3.5439,-3.5587,-3.5733,-3.5377,-3.5539,-3.5765,-3.5489,-3.5439,-3.5504,-3.5504,-3.5504,-3.5504,-3.5504,-3.5504,-3.5504,-3.5504,-3.5504,-3.5504,-3.5504,-3.5504,-3.5504,-3.5504,-3.5504,-3.5429,-3.5269,-3.5224,-3.5048,0.0,-3.4016,-3.3983,-3.485,-3.4556,-3.4003,-3.3285,-3.2292,-3.0911,-2.8926,-2.9659,-2.9536,-2.7977,-2.95,-3.0233,-2.9831,-2.9539,-2.931,-2.9213,-2.8491,-2.8468,-2.9192,-3.0072,-3.0264,-2.984,-2.9861,-2.9467,-2.8705,-2.8082,-2.8292,-2.9048,-2.9048,-2.9581,-3.0428,-3.0874,-3.1336,-3.1782,-3.2228,-3.2398,-3.2398,-3.824,-3.8202,-3.8523,-3.9448,-3.9954,-4.0128,-3.9682,-3.8847,-3.8449,-3.8826,-3.8958,-3.8907,-3.8723,-3.8942,-3.8891,-3.8352,-3.9173,-3.9409,-3.8538,-3.8859,-3.8992,-3.8782,-3.8267,-3.7875,-3.7565,-3.6645,-3.5904,-3.5383,-3.4833,-3.4481,-3.4337,-3.462,-3.4687,-3.4635,-3.4702,-3.4635,-3.4481,-3.4414,-3.4312,-3.423,-3.4563,-3.475,-3.4883,-3.5261,-3.5439,-3.5504,-3.5504,-3.5504,-3.5504,-3.5504,-3.5504,-3.5504,-3.5504,-3.5504,-3.5504,-3.5504,-3.5504,-3.5504,-3.5504,-3.5504,-3.5504,-3.5504,-3.5504,-3.5504,-3.5504,-3.5504,-3.5504,-3.5504,-3.5504,-3.5504,-3.5504,-3.5504,-3.5504,-3.5504,-3.5295,-3.497,0.0,-3.4242,-3.4425,-3.5064,-3.485,-3.4493,-3.4159,-3.301,-3.1344,-2.9073,-2.9532,-2.9097,-2.7221,-2.8856,-2.9702,-2.9301,-2.9207,-2.9084,-2.8892,-2.7975,-2.7842,-2.8473,-2.9142,-2.9212,-2.8787,-2.9073,-2.8773,-2.8033,-2.8027,-2.8442,-2.9217,-2.9336,-2.9916,-3.0708,-3.0979,-3.1345,-3.1784,-3.2223,-3.2398,-3.2398,-3.8165,-3.8202,-3.8202,-3.8202,-3.8188,-3.8136,-3.8165,-3.83,-3.8412,-3.8441,-3.8612,-3.8649,-3.8441,-3.8089,-3.7848,-3.7848,-3.7519,-3.7457,-3.7853,-3.8231,-3.8366,-3.8165,-3.8723,-3.8553,-3.7514,-3.7281,-3.6483,-3.5029,-3.4881,-3.4285,-3.3326,-3.3709,-3.3985,-3.4128,-3.4312,-3.4264,-3.4128,-3.4278,-3.4128,-3.3839,-3.4414,-3.4664,-3.4698,-3.5049,-3.5294,-3.5472,-3.5472,-3.5472,-3.5472,-3.5472,-3.5472,-3.5504,-3.5504,-3.5472,-3.5472,-3.5504,-3.5504,-3.5472,-3.5504,-3.5504,-3.5472,-3.5472,-3.5472,-3.5472,-3.5472,-3.5504,-3.5504,-3.5504,-3.5504,-3.5504,-3.5504,-3.5504,-3.5504,-3.5504,-3.4966,-3.437,-3.3879,-3.433,-3.4816,-3.5017,-3.4332,-3.394,-3.415,-3.2687,-3.0895,-2.8912,-2.8657,-2.7972,-2.6603,-2.8014,-2.8866,-2.8856,-2.8831,-2.8831,-2.8856,-2.7941,-2.7469,-2.749,-2.8163,-2.8143,-2.7525,-2.8111,-2.8021,-2.7446,-2.8381,-2.8843,-2.8928,-2.926,-2.9426,-2.9516,-3.0242,-3.0524,-3.0711,-3.1931,-3.2398,-3.2398,-3.8165,-3.8066,-3.8028,-3.8165,-3.7713,-3.7457,-3.7895,-3.7526,-3.7322,-3.7782,-3.7763,-3.7596,-3.7404,-3.7289,-3.725,-3.725,-3.7264,-3.7341,-3.7457,-3.7687,-3.7801,-3.7763,-3.7915,-3.7843,-3.7571,-3.7098,-3.6356,-3.5374,-3.4975,-3.4362,-3.3536,-3.3793,-3.3985,-3.4094,-3.404,-3.4054,-3.4094,-3.3902,-3.366,-3.3452,-3.3764,-3.404,-3.4264,-3.4515,-3.4783,-3.5082,-3.5213,-3.518,-3.5034,-3.5034,-3.5148,-3.5294,-3.5294,-3.518,-3.5115,-3.5407,-3.5294,-3.5115,-3.5439,-3.5294,-3.5034,-3.5034,-3.5034,-3.5034,-3.5034,-3.5294,-3.5504,-3.5504,-3.5504,-3.5504,-3.5504,-3.5504,-3.5504,-3.5504,-3.5355,-3.5207,-3.5075,-3.5194,-3.5349,-3.551,-3.5041,-3.4466,-3.3893,-3.3774,-3.2602,-2.9799,-2.961,-2.8889,-2.726,-2.7898,-2.8312,-2.8303,-2.8053,-2.8041,-2.8315,-2.7284,-2.6884,-2.7142,-2.7743,-2.7873,-2.7505,-2.7705,-2.7687,-2.7448,-2.7283,-2.7873,-2.8972,-2.9059,-2.9552,-3.0236,-3.0426,-3.0807,-3.1341,-3.2099,-3.2398,-3.2398,-3.8066,-3.7929,-3.7801,-3.7915,-3.7782,-3.7729,-3.7877,-3.7528,-3.72,-3.721,-3.7248,-3.7165,-3.6767,-3.6901,-3.6978,-3.6978,-3.7187,-3.7341,-3.7419,-3.7625,-3.7739,-3.7739,-3.7663,-3.7572,-3.7457,-3.677,-3.6249,-3.5895,-3.5167,-3.4575,-3.4128,-3.41,-3.4108,-3.4094,-3.4108,-3.4108,-3.4094,-3.373,-3.3605,-3.357,-3.3605,-3.3695,0.0,-3.4278,-3.4467,-3.4601,-3.4883,-3.4949,-3.4902,-3.4902,-3.4968,-3.5049,-3.4983,-3.4883,-3.485,-3.4997,-3.485,-3.4769,-3.5148,-3.4983,-3.4702,-3.4868,-3.4802,-3.4668,-3.4668,-3.4983,-3.5195,-3.5063,-3.5129,-3.5228,-3.5162,-3.5195,-3.5294,-3.5472,-3.5504,-3.5504,-3.5504,-3.5439,-3.5392,-3.5477,-3.5259,-3.4715,-3.3807,-3.3789,-3.2776,-3.0177,-2.9706,-2.8803,-2.7096,-2.7708,-2.8107,-2.8097,-2.8143,-2.8143,-2.8109,-2.7291,-2.6829,-2.6782,-2.7116,-2.7217,-2.7053,-2.7091,-2.7098,-2.7072,-2.7133,-2.7695,-2.8526,-2.8862,-2.9256,-2.9628,-2.9797,-3.0254,-3.0896,-3.1392,-3.1751,-3.1992,-3.7891,-3.7739,-3.7596,-3.7563,-3.8082,-3.831,-3.7801,-3.783,-3.7706,-3.6996,-3.7096,-3.7052,-3.6552,-3.6785,-3.7017,-3.7017,-3.7187,-3.738,-3.7586,-3.7777,-3.7853,-3.7853,-3.7663,-3.7495,-3.7341,-3.6541,-3.6175,-3.6329,-3.531,-3.4746,-3.4595,-3.4412,-3.4235,-3.4047,-3.4269,-3.4264,-3.4094,-3.3764,-3.3709,-3.3862,-3.364,-3.357,-3.364,-3.4108,-3.4196,-3.4162,-3.4481,-3.4716,-3.4835,-3.4835,-3.4868,-3.4835,-3.4731,-3.4664,-3.4631,-3.4481,-3.4414,-3.4448,-3.4735,-3.4568,-3.4399,-3.4687,-3.4534,-3.4312,-3.4312,-3.4601,-3.4735,-3.4448,-3.4635,-3.4802,-3.4698,-3.475,-3.4968,-3.5392,-3.5439,-3.5407,-3.5439,-3.5261,-3.5148,-3.5148,-3.5106,0.0,-3.3779,-3.3319,-3.2348,-3.0618,-2.9571,-2.8398,-2.7019,-2.7615,-2.8034,-2.8109,-2.8461,-2.8512,-2.821,-2.7519,-2.7002,-2.66,-2.6524,-2.6499,-2.6499,-2.6499,-2.6499,-2.6555,-2.7358,-2.7749,-2.7828,-2.8478,-2.8588,-2.8409,-2.878,-2.9286,-2.9858,-3.0269,-3.0763,-3.1204,-3.7853,-3.7739,-3.7544,-3.7364,-3.7988,-3.8129,-3.7062,-3.7609,-3.8104,-3.7951,-3.7427,-3.7028,-3.6916,-3.6961,-3.707,-3.7226,-3.7264,-3.738,-3.7586,-3.7625,-3.7663,-3.7663,-3.7457,-3.7419,-3.7534,-3.677,-3.6187,-3.5831,-3.5296,-3.4511,-3.3489,-3.3941,-3.3956,-3.3626,-3.3999,-3.4128,-3.4094,-3.3917,-3.3793,-3.364,-3.3431,-3.3466,-3.3605,-3.3709,-3.3902,-3.4128,-3.4162,-3.4346,-3.4481,-3.4481,-3.4616,-3.4731,-3.4698,-3.4597,-3.4481,-3.4597,-3.4414,-3.4196,-3.4448,-3.4196,-3.3908,-3.3977,-3.3942,-3.3908,-3.3908,-3.4196,-3.4481,-3.4414,-3.4448,-3.4481,-3.4448,-3.4481,-3.465,-3.5148,-3.503,-3.4898,-3.4983,-3.4968,-3.4935,-3.4935,-3.4608,-3.4191,-3.3735,-3.352,-3.3153,-3.2526,-3.0315,-2.9091,-2.9301,-2.8114,-2.7632,-2.8097,-2.7758,-2.7959,-2.8737,-2.7331,-2.6813,-2.7165,-2.6713,-2.6499,-2.6499,-2.6499,-2.6499,-2.6499,-2.6679,-2.6905,-2.7162,-2.7284,-2.7497,-2.7743,-2.8344,-2.8652,-2.8876,-2.9766,-2.9813,-2.9566,-3.7739,-3.7391,-3.7291,-3.7672,-3.8075,-3.8271,-3.804,-3.8312,-3.826,-3.7388,-3.7211,-3.7021,-3.6735,-3.6873,-3.7017,-3.7148,-3.7341,-3.7495,-3.7586,-3.7801,-3.7733,-3.7304,-3.7214,-3.7139,-3.7139,-3.6012,-3.5699,-3.621,-3.5046,-3.4218,-3.3681,-3.4052,-3.3999,-3.3532,-3.4023,-3.4196,-3.4094,-3.3951,-3.3793,-3.357,-3.3396,-3.3361,-3.3466,-3.357,-3.3709,-3.3868,-3.4025,-3.4162,-3.4264,-3.4346,-3.4448,-3.4515,-3.4414,-3.4312,-3.4244,-3.4293,-3.4088,-3.3902,-3.4162,-3.3888,-3.3577,-3.377,-3.3681,-3.3542,-3.3542,-3.3819,-3.4025,-3.3868,-3.3971,-3.4094,-3.4094,-3.4162,-3.4366,-3.4716,-3.4731,-3.4731,-3.4783,-3.4783,-3.4783,-3.4783,-3.4211,-3.3882,-3.4039,-3.3419,-3.2465,-3.1275,-2.9993,-2.892,-2.8199,-2.7604,-2.7406,-2.767,-2.7971,-2.8109,-2.8072,-2.757,-2.719,-2.6889,-2.6612,-2.6499,-2.6499,-2.6499,-2.6499,-2.6499,-2.6499,-2.6589,-2.6748,-2.6748,-2.6952,-2.7276,-2.7584,-2.7736,-2.7802,-2.8454,-2.8487,-2.839,-3.7796,-3.7425,-3.732,-3.8132,-3.845,-3.8663,-3.8776,-3.8869,-3.838,-3.69,-3.6999,-3.708,-3.6585,-3.6813,-3.7017,-3.7109,-3.7419,-3.7663,-3.7725,-3.8014,-3.7852,-3.7096,-3.703,-3.6956,-3.6845,-3.5345,-3.526,-3.6593,-3.4681,-3.3819,-3.3926,-3.3965,-3.3746,-3.3296,-3.3887,-3.4076,-3.3907,-3.3859,-3.3744,-3.357,-3.3396,-3.329,-3.3326,-3.3466,-3.3605,-3.3709,-3.3971,-3.4094,-3.4196,-3.4346,-3.4414,-3.438,-3.4196,-3.4162,-3.4128,-3.3985,-3.3848,-3.373,-3.3922,-3.3695,-3.3417,-3.3646,-3.3486,-3.329,-3.329,-3.3507,-3.3612,-3.3347,-3.3521,-3.3716,-3.377,-3.3888,-3.4025,-3.4346,-3.4462,-3.4563,-3.4631,-3.4631,-3.4587,-3.4441,-3.4006,-3.3728,-3.3778,-3.3241,-3.1942,-2.9639,-2.9496,-2.8812,-2.7163,-2.7324,-2.7457,-2.7457,-2.8298,-2.8398,-2.7645,-2.7708,-2.7381,-2.6663,-2.6549,-2.6499,-2.6499,-2.6499,-2.6499,-2.6499,-2.6499,-2.6499,-2.6499,-2.6499,-2.6658,-2.6871,-2.6871,-2.6871,-2.6939,-2.7255,-2.739,-2.7543,-3.8353,-3.8371,-3.8371,-3.846,-3.9268,-3.9385,-3.7728,-3.8291,-3.8635,-3.7875,-3.7341,-3.7003,-3.6947,-3.6989,-3.7148,-3.7495,-3.7586,-3.7763,-3.8127,-3.8165,-3.7926,-3.7295,-3.7119,-3.7082,-3.7229,-3.5612,-3.5296,-3.6331,-3.4283,-3.3278,-3.3264,-3.2865,-3.2672,-3.2597,-3.3103,-3.3311,-3.3288,-3.3536,-3.3605,-3.357,-3.3396,-3.329,-3.329,-3.3326,-3.3536,-3.3896,-3.3896,-3.4122,-3.438,-3.438,-3.4414,-3.4414,-3.438,-3.438,-3.4346,-3.4128,-3.4059,-3.3991,-3.3709,-3.3605,-3.3536,-3.3382,-3.3312,-3.329,-3.329,-3.3312,-3.3347,-3.3326,-3.3312,-3.3452,-3.3736,-3.3577,-3.3591,-3.4278,-3.4157,-3.4088,-3.438,-3.4414,-3.4244,-3.3696,-3.4008,-3.3657,-3.1957,-3.325,-3.2849,-2.9574,-2.9436,-2.9376,-2.9039,-2.8382,-2.8034,-2.8034,-2.8134,-2.8373,-2.8737,-2.7344,-2.6851,-2.7241,-2.6738,-2.6499,-2.6499,-2.6499,-2.6499,-2.6499,-2.6499,-2.6499,-2.6499,-2.6499,-2.6521,-2.6555,-2.6555,-2.6555,-2.6589,-2.6905,-2.704,-2.7108,-3.8922,-3.8692,-3.8663,-3.9189,-3.9415,-3.9205,-3.839,-3.8619,-3.8577,-3.7642,-3.7211,-3.6978,-3.6978,-3.6978,-3.7109,-3.738,-3.7534,-3.7739,-3.7991,-3.8127,-3.7752,-3.6751,-3.6635,-3.6635,-3.6707,-3.5165,-3.4936,-3.6122,-3.4522,-3.3365,-3.2612,-3.3314,-3.3659,-3.3626,-3.3705,-3.37,-3.3627,-3.3748,-3.3709,-3.3605,-3.364,-3.364,-3.364,-3.364,-3.3744,-3.3917,-3.3971,-3.4108,-3.423,-3.4346,-3.4414,-3.4414,-3.4414,-3.4414,-3.438,-3.4312,-3.4196,-3.4059,-3.3937,-3.3507,-3.3122,-3.3417,-3.3122,-3.2874,-3.3206,-3.3396,-3.3466,-3.3466,-3.357,-3.3709,-3.3848,-3.3744,-3.3591,-3.3423,-3.375,-3.3888,-3.3597,-3.4059,-3.3999,-3.2954,-3.2716,-3.2178,-3.0956,-3.1513,-3.1323,-2.9889,-3.0288,-2.9982,-2.8641,-2.7963,-2.7758,-2.8097,-2.7783,-2.772,-2.7946,-2.7281,-2.6939,-2.6826,-2.66,-2.6499,-2.6499,-2.6499,-2.6499,-2.6499,-2.6499,-2.6499,-2.6499,-2.6499,-2.6499,-2.6499,-2.6499,-2.6499,-2.6521,-2.6658,-2.6679,-2.676,-3.9076,-3.8814,-3.8842,-3.9572,-3.943,-3.9102,-3.8811,-3.8783,-3.8441,-3.7522,-3.7264,-3.7187,-3.7187,-3.7187,-3.7264,-3.7457,-3.7625,-3.7777,-3.7967,-3.8142,-3.7723,-3.6649,-3.6591,-3.6591,-3.6591,-3.5377,-3.5192,-3.6086,-3.4816,-3.3715,-3.2785,-3.3623,-3.397,-3.3829,-3.385,-3.3786,-3.3679,-3.3845,-3.3827,-3.3709,-3.3862,-3.3896,-3.3896,-3.3896,-3.3917,-3.3985,-3.4074,-3.4128,-3.4196,-3.4346,-3.4414,-3.4414,-3.4414,-3.4414,-3.4414,-3.4414,-3.4113,-3.3825,-3.3805,-3.3129,-3.2511,-3.2895,-3.2561,-3.2273,-3.2682,-3.286,-3.2966,-3.2966,-3.3122,-3.3178,-3.3178,-3.3178,-3.3037,-3.2511,-3.3009,-3.3255,-3.2797,-3.3325,-3.3308,-3.2131,-3.1832,-3.1219,-3.0131,-3.0356,-3.0293,-2.957,-3.04,-3.0098,-2.8208,-2.7896,-2.7871,-2.8097,-2.772,-2.7519,-2.7519,-2.7241,-2.6876,-2.6499,-2.6499,-2.6499,-2.6499,-2.6499,-2.6499,-2.6499,-2.6499,-2.6499,-2.6499,-2.6499,-2.6499,-2.6499,-2.6499,-2.6499,-2.6499,-2.6499,-2.6499,-2.6521,-3.8721,-3.8783,-3.896,-3.9424,-3.9498,-3.927,-3.8628,-3.8475,-3.83,-3.7658,-3.7586,-3.7586,-3.7586,-3.7586,-3.7663,-3.7891,-3.7891,-3.7967,-3.8165,-3.8202,-3.7941,-3.7317,-3.7302,-3.7302,-3.7302,-3.6635,-3.6286,-3.6301,-3.5038,-3.4298,-3.4051,-3.348,-3.2973,-3.2539,-3.3031,-3.3206,-3.3249,-3.3679,-3.3896,-3.3896,-3.3896,-3.3896,-3.3896,-3.3896,-3.3985,-3.4094,-3.4094,-3.423,-3.4414,-3.4414,-3.4414,-3.4414,-3.4414,-3.4414,-3.4414,-3.4414,-3.3859,-3.3192,-3.3044,-3.2426,-3.1759,-3.1576,-3.1516,-3.1516,-3.1516,-3.1516,-3.1516,-3.1516,-3.1516,-3.1553,-3.1553,-3.1553,-3.1576,-3.1796,-3.1833,-3.1905,-3.2074,-3.211,-3.187,-3.1202,-3.1707,-3.1312,-2.9301,-3.044,-3.0419,-2.8293,-2.9372,-2.951,-2.8171,-2.8612,-2.8624,-2.8122,-2.8097,-2.8097,-2.8097,-2.7052,-2.6499,-2.6499,-2.6499,-2.6499,-2.6499,-2.6499,-2.6499,-2.6499,-2.6499,-2.6499,-2.6499,-2.6499,-2.6499,-2.6499,-2.6499,-2.6499,-2.6499,-2.6499,-2.6499,-2.6499,-3.9333,-3.929,-3.9307,-3.9456,-3.9498,-3.927,-3.8614,-3.8514,-3.8325,-3.7863,-3.7815,-3.7853,-3.7976,-3.7763,-3.7701,-3.7891,-3.7891,-3.8005,-3.8202,-3.8202,-3.7941,-3.7331,-3.7302,-3.7302,-3.7302,-3.6228,-3.588,-3.6301,-3.5038,-3.438,-3.4283,-3.3694,-3.3554,-3.3786,-3.3806,-3.3825,-3.3806,-3.3988,-3.404,-3.404,-3.4191,-3.3908,-3.3465,-3.4025,-3.3618,-3.2804,-3.3311,-3.352,-3.3589,-3.3589,-3.3589,-3.3589,-3.3589,-3.3962,-3.4298,-3.3742,-3.3402,-3.3073,-3.2519,-3.1783,-3.1267,-3.1613,-3.1281,-3.0983,-3.1392,-3.1613,-3.1723,-3.1869,-3.1905,-3.1905,-3.1905,-3.1905,-3.1746,-3.1267,-3.1636,-3.1819,-3.1341,-3.1746,-3.1676,-3.0536,-3.0593,-3.0118,-2.8584,-2.9164,-2.9383,-2.8712,-2.9416,-2.953,-2.8699,-2.88,-2.9026,-2.9252,-2.8511,-2.8109,-2.8109,-2.7381,-2.6864,-2.6499,-2.6499,-2.6499,-2.6499,-2.6499,-2.6499,-2.6499,-2.6499,-2.6499,-2.6499,-2.6499,-2.6499,-2.6499,-2.6499,-2.6499,-2.6499,-2.6499,-2.6738,-2.7052,-3.9395,-3.9165,-3.8993,-3.8993,-3.8993,-3.8863,-3.8447,-3.839,-3.8285,-3.8048,-3.7991,-3.8066,-3.8202,-3.7991,-3.7877,-3.7991,-3.7991,-3.8066,-3.8202,-3.8202,-3.8028,-3.7665,-3.7651,-3.7651,-3.7651,-3.6852,-3.6388,-3.6301,-3.5038,-3.4414,-3.4399,-3.4008,-3.4037,-3.438,-3.4264,-3.4196,-3.4196,-3.4196,-3.4196,-3.4196,-3.4011,-3.3638,-3.3213,-3.3465,-3.296,-3.2146,-3.2613,-3.2791,-3.2791,-3.2791,-3.2791,-3.2791,-3.2791,-3.3122,-3.343,-3.2946,-3.2563,-3.2241,-3.1769,-3.1095,-3.0595,-3.0972,-3.0671,-3.0419,-3.0797,-3.0972,-3.1084,-3.122,-3.122,-3.122,-3.122,-3.122,-3.1071,-3.0558,-3.0921,-3.1071,-3.0558,-3.0921,-3.0915,-3.0106,-2.9992,-2.9665,-2.8812,-2.885,-2.8888,-2.8888,-2.9264,-2.9315,-2.8913,-2.9101,-2.9315,-2.9465,-2.8787,-2.8411,-2.8411,-2.7657,-2.714,-2.6801,-2.66,-2.6499,-2.6499,-2.6499,-2.6612,-2.6788,-2.6587,-2.6612,-2.6788,-2.6575,-2.6499,-2.6499,-2.6499,-2.6499,-2.6499,-2.6499,-2.6839,-2.7281,-3.903,-3.8667,-3.826,-3.8217,-3.8246,-3.826,-3.8217,-3.8202,-3.8202,-3.8202,-3.8202,-3.8202,-3.8202,-3.8202,-3.8202,-3.8202,-3.8202,-3.8202,-3.8202,-3.8159,-3.8159,-3.8202,-3.8159,-3.8159,-3.8202,-3.8115,-3.7447,-3.617,-3.4994,-3.4414,-3.4414,-3.4414,-3.4414,-3.4414,-3.4414,-3.4414,-3.4414,-3.4414,-3.4414,-3.4332,-3.3589,-3.3213,-3.3038,-3.2434,-3.2074,-3.1942,-3.2015,-3.2015,-3.2015,-3.2015,-3.2015,-3.2015,-3.2015,-3.1965,-3.1942,-3.2001,-3.1489,-3.0895,-3.082,-3.0305,-2.9792,-2.9792,-2.9792,-2.9792,-2.9792,-2.9792,-2.9792,-2.9792,-2.9792,-2.9792,-2.9792,-2.9792,-2.9792,-2.9792,-2.9792,-2.9792,-2.9792,-2.9792,-2.9792,-2.9792,-2.9792,-2.9792,-2.9792,-2.9302,-2.895,-2.895,-2.895,-2.895,-2.895,-2.9503,-2.9541,-2.8963,-2.895,-2.8938,-2.8888,-2.7908,-2.7356,-2.7268,-2.6801,-2.6549,-2.6549,-2.6587,-2.6889,-2.7341,-2.6788,-2.6839,-2.7278,-2.6725,-2.6499,-2.6499,-2.6499,-2.6499,-2.6499,-2.6499,-2.6864,-2.7379,-3.8507,-3.8725,-3.8797,-3.8289,-3.8623,-3.8797,-3.8275,-3.8202,-3.8202,-3.8202,-3.8202,-3.8202,-3.8202,-3.8202,-3.8202,-3.8202,-3.8202,-3.8202,-3.8202,-3.7781,-3.7723,-3.8188,-3.7767,-3.7738,-3.8188,-3.7259,-3.6141,-3.4864,-3.4559,-3.4414,-3.4414,-3.4414,-3.4414,-3.4414,-3.4414,-3.4414,-3.4414,-3.4414,-3.4414,-3.438,-3.4182,-3.3416,-3.2398,-3.2791,-3.1869,-3.0406,-3.0983,-3.118,-3.118,-3.118,-3.118,-3.118,-3.118,-3.0809,-3.047,-3.102,-3.1044,-3.0796,-3.0203,-2.9934,-2.9792,-2.9792,-2.9792,-2.9792,-2.9792,-2.9792,-2.9792,-2.9792,-2.9792,-2.9792,-2.9792,-2.9792,-2.9792,-2.9792,-2.9792,-2.9792,-2.9792,-2.9792,-2.9792,-2.9792,-2.9792,-2.9792,-2.9792,-2.9666,-2.9591,-2.9591,-2.9591,-2.9591,-2.9591,-2.9716,-2.9729,-2.9591,-2.9591,-2.9377,-2.8888,-2.8637,-2.8109,-2.7281,-2.719,-2.7115,-2.714,-2.7519,-2.7783,-2.7883,-2.7318,-2.719,-2.7278,-2.6725,-2.6499,-2.6499,-2.6499,-2.6499,-2.6499,-2.6499,-2.7115,-2.7908,-3.8667,-3.8957,-3.8986,-3.8318,-3.8754,-3.8971,-3.8304,-3.8202,-3.8202,-3.8202,-3.8202,-3.8202,-3.8202,-3.8202,-3.8202,-3.8202,-3.8202,-3.8202,-3.8202,-3.7897,-3.7738,-3.7796,-3.7738,-3.7738,-3.7796,-3.7114,-3.6141,-3.4849,-3.4559,-3.4414,-3.4414,-3.4414,-3.4414,-3.4414,-3.4414,-3.4414,-3.4414,-3.4414,-3.4182,-3.3811,-3.35,-3.2627,-3.1563,-3.1613,-3.0872,-2.9856,-3.0241,-3.0419,-3.0419,-3.0419,-3.0419,-3.0419,-3.0419,-3.0101,-2.9895,-3.0279,-3.0419,-3.0305,-2.9895,-2.9792,-2.9792,-2.9792,-2.9792,-2.9792,-2.9792,-2.9792,-2.9792,-2.9792,-2.9792,-2.9792,-2.9792,-2.9792,-2.9792,-2.9792,-2.9792,-2.9792,-2.9792,-2.9792,-2.9792,-2.9792,-2.9792,-2.9792,-2.9792,-2.9792,-2.9792,-2.9792,-2.9792,-2.9792,-2.9792,-2.9792,-2.9792,-2.9792,-2.9792,-2.9641,-2.9327,-2.9026,-2.8461,-2.7657,-2.7657,-2.7657,-2.767,-2.7971,-2.8247,-2.8436,-2.7632,-2.7419,-2.7595,-2.6826,-2.6499,-2.6499,-2.6499,-2.6499,-2.6524,-2.6776,-2.7369,-2.8147,-3.8942,-3.9131,-3.8986,-3.8318,-3.8754,-3.8971,-3.8304,-3.8202,-3.8202,-3.8202,-3.8202,-3.8202,-3.8202,-3.8202,-3.8202,-3.8202,-3.8202,-3.8159,-3.8072,-3.797,-3.768,-3.7172,-3.7651,-3.7723,-3.7317,-3.7201,-3.6519,-3.5261,-3.4558,-3.423,-3.423,-3.4113,-3.4045,-3.4045,-3.4045,-3.4045,-3.4045,-3.4045,-3.3673,-3.2967,-3.2362,-3.1636,-3.082,-3.0203,-2.9895,-2.9792,-2.9792,-2.9792,-2.9792,-2.9792,-2.9792,-2.9792,-2.9792,-2.9792,-2.9792,-2.9792,-2.9792,-2.9792,-2.9792,-2.9792,-2.9792,-2.9792,-2.9792,-2.9792,-2.9792,-2.9792,-2.9792,-2.9792,-2.9792,-2.9792,-2.9792,-2.9792,-2.9792,-2.9792,-2.9792,-2.9792,-2.9792,-2.9792,-2.9792,-2.9792,-2.9792,-2.9792,-2.9792,-2.9792,-2.9792,-2.9792,-2.9792,-2.9792,-2.9792,-2.9792,-2.9792,-2.9792,-2.9792,-2.9792,-2.9792,-2.9176,-2.865,-2.8235,-2.8235,-2.8235,-2.8235,-2.8323,-2.8612,-2.8963,-2.7883,-2.767,-2.8021,-2.6952,-2.6499,-2.6499,-2.6499,-2.6549,-2.6675,-2.714,-2.7682,-2.8298,-3.8333,-3.8812,-3.8986,-3.8318,-3.8754,-3.8971,-3.8304,-3.8202,-3.8202,-3.8202,-3.8202,-3.8202,-3.8202,-3.8202,-3.8202,-3.8202,-3.8202,-3.7984,-3.7476,-3.6925,-3.6562,-3.646,-3.6548,-3.6823,-3.7302,-3.6751,-3.5836,-3.4559,-3.3785,-3.3367,-3.3367,-3.2769,-3.2448,-3.2448,-3.2448,-3.2448,-3.2448,-3.2448,-3.2362,-3.2254,-3.2146,-3.1636,-3.0895,-3.0758,-3.0343,-2.9792,-2.9792,-2.9792,-2.9792,-2.9792,-2.9792,-2.9792,-2.9792,-2.9792,-2.9792,-2.9792,-2.9792,-2.9792,-2.9792,-2.9792,-2.9792,-2.9792,-2.9792,-2.9792,-2.9792,-2.9792,-2.9792,-2.9792,-2.9792,-2.9792,-2.9792,-2.9792,-2.9792,-2.9792,-2.9792,-2.9792,-2.9792,-2.9792,-2.9792,-2.9792,-2.9792,-2.9792,-2.9792,-2.9792,-2.9792,-2.9792,-2.9792,-2.9792,-2.9792,-2.9792,-2.9792,-2.9792,-2.9792,-2.9792,-2.9792,-2.9176,-2.885,-2.8762,-2.8762,-2.8762,-2.8775,-2.9302,-2.9578,-2.9591,-2.8473,-2.8021,-2.8021,-2.6952,-2.6499,-2.6499,-2.6499,-2.6788,-2.7203,-2.7291,-2.7921,-2.8775,-3.8275,-3.8739,-3.8986,-3.8318,-3.8754,-3.8971,-3.8304,-3.8202,-3.8202,-3.8202,-3.8202,-3.8202,-3.8202,-3.8202,-3.8202,-3.8202,-3.7772,-3.7438,-3.7309,-3.7012,-3.6533,-3.5872,-3.6127,-3.6108,-3.5653,-3.5317,-3.4704,-3.3742,-3.2981,-3.2791,-3.3178,-3.2434,-3.211,-3.211,-3.211,-3.211,-3.211,-3.211,-3.1856,-3.1439,-3.1439,-3.0983,-3.0317,-3.0317,-3.0113,-2.9792,-2.9792,-2.9792,-2.9792,-2.9792,-2.9792,-2.9792,-2.9792,-2.9792,-2.9792,-2.9792,-2.9792,-2.9792,-2.9792,-2.9792,-2.9792,-2.9792,-2.9792,-2.9792,-2.9792,-2.9792,-2.9792,-2.9792,-2.9792,-2.9792,-2.9792,-2.9792,-2.9792,-2.9792,-2.9792,-2.9792,-2.9792,-2.9792,-2.9792,-2.9792,-2.9792,-2.9792,-2.9792,-2.9792,-2.9792,-2.9792,-2.9792,-2.9792,-2.9792,-2.9792,-2.9792,-2.9792,-2.9792,-2.9792,-2.9792,-2.9528,-2.939,-2.939,-2.939,-2.939,-2.9402,-2.9666,-2.9792,-2.9729,-2.8599,-2.8273,-2.8448,-2.7065,-2.6663,-2.6939,-2.6939,-2.709,-2.7356,-2.7946,-2.8499,-2.8938,-3.8333,-3.8609,-3.8812,-3.8289,-3.8623,-3.8797,-3.8275,-3.8202,-3.8202,-3.8202,-3.8202,-3.8202,-3.8202,-3.8202,-3.8127,-3.7924,-3.7285,-3.6838,-3.671,-3.6576,-3.6186,-3.545,-3.5681,-3.5375,-3.4444,-3.4289,-3.3802,-3.2932,-3.2362,-3.229,-3.2635,-3.1892,-3.1502,-3.1415,-3.1415,-3.1415,-3.1415,-3.1415,-3.1119,-3.0658,-3.0658,-3.0317,-2.9792,-2.9792,-2.9792,-2.9792,-2.9792,-2.9792,-2.9792,-2.9792,-2.9792,-2.9792,-2.9792,-2.9792,-2.9792,-2.9792,-2.9792,-2.9792,-2.9792,-2.9792,-2.9792,-2.9792,-2.9792,-2.9792,-2.9792,-2.9792,-2.9792,-2.9792,-2.9792,-2.9792,-2.9792,-2.9792,-2.9792,-2.9792,-2.9792,-2.9792,-2.9792,-2.9792,-2.9792,-2.9792,-2.9792,-2.9792,-2.9792,-2.9792,-2.9792,-2.9792,-2.9792,-2.9753,-2.9624,-2.9636,-2.9636,-2.9636,-2.9753,-2.9792,-2.9792,-2.9792,-2.9792,-2.9792,-2.9792,-2.9792,-2.9792,-2.9792,-2.9792,-2.9729,-2.8737,-2.8536,-2.8787,-2.7419,-2.7128,-2.7469,-2.7469,-2.7557,-2.777,-2.8612,-2.8976,-2.9202,-3.8333,-3.8246,-3.826,-3.8217,-3.8246,-3.826,-3.8217,-3.8202,-3.8202,-3.8202,-3.8202,-3.8202,-3.8202,-3.8202,-3.7886,-3.7053,-3.6936,-3.632,-3.4985,-3.4426,-3.4502,-3.5352,-3.474,-3.4615,-3.5136,-3.4514,-3.3551,-3.2182,-3.211,-3.1746,-3.1044,-3.0317,-2.9728,-2.9314,-2.9314,-2.9314,-2.9314,-2.9314,-2.9521,-2.9895,-2.9895,-2.9869,-2.9792,-2.9792,-2.9792,-2.9792,-2.9792,-2.9792,-2.9792,-2.9792,-2.9792,-2.9792,-2.9792,-2.9792,-2.9792,-2.9792,-2.9792,-2.9792,-2.9792,-2.9792,-2.9792,-2.9792,-2.9792,-2.9792,-2.9792,-2.9792,-2.9792,-2.9792,-2.9792,-2.9792,-2.9792,-2.9792,-2.9792,-2.9792,-2.9792,-2.9792,-2.9792,-2.9792,-2.9792,-2.9792,-2.9792,-2.9792,-2.9792,-2.9792,-2.9792,-2.9792,-2.9792,-2.9624,-2.917,-2.9131,-2.9131,-2.9131,-2.9585,-2.9792,-2.9792,-2.9792,-2.9792,-2.9792,-2.9792,-2.9792,-2.9792,-2.9792,-2.9792,-2.9754,-2.9139,-2.885,-2.8838,-2.8247,-2.8009,-2.8047,-2.8047,-2.836,-2.8775,-2.8863,-2.9264,-2.9729,-3.8333,-3.8202,-3.8202,-3.8202,-3.8202,-3.8202,-3.8202,-3.8202,-3.8202,-3.8202,-3.8202,-3.8202,-3.8202,-3.8202,-3.7848,-3.6975,-3.6399,-3.5853,-3.5276,-3.4206,-3.3517,-3.3364,-3.3508,-3.3248,-3.2553,-3.2263,-3.1887,-3.1378,-3.0897,-3.0746,-3.0895,-3.0139,-2.9546,-2.9091,-2.9417,-2.9221,-2.8736,-2.93,-2.9312,-2.9025,-2.9598,-2.9624,-2.9378,-2.9675,-2.9792,-2.9792,-2.9792,-2.9792,-2.9753,-2.9456,-2.9546,-2.9753,-2.9456,-2.9585,-2.9792,-2.9792,-2.9585,-2.9417,-2.9714,-2.9792,-2.9792,-2.9792,-2.9792,-2.9792,-2.9792,-2.9792,-2.9792,-2.9792,-2.9585,-2.9456,-2.9753,-2.9546,-2.9456,-2.9753,-2.9792,-2.9792,-2.9792,-2.9792,-2.9792,-2.9792,-2.9792,-2.9792,-2.9792,-2.9792,-2.9792,-2.9792,-2.9792,-2.9585,-2.9131,-2.8855,-2.8749,-2.8749,-2.8907,-2.9273,-2.9792,-2.9792,-2.9792,-2.9792,-2.9792,-2.9792,-2.9792,-2.9792,-2.9792,-2.9767,-2.9176,-2.9101,-2.9402,-2.8486,-2.831,-2.8612,-2.8612,-2.8712,-2.8938,-2.9149,-2.9463,-2.9753,-3.8333,-3.8202,-3.8202,-3.8202,-3.8202,-3.8202,-3.8202,-3.8202,-3.8202,-3.8202,-3.8202,-3.8089,-3.781,-3.781,-3.7323,-3.6215,-3.5561,-3.5115,-3.4828,-3.3932,-3.3252,-3.2945,-3.2805,-3.2316,-3.1469,-3.1078,-3.0796,-3.0545,-3.0279,-3.0279,-3.0545,-3.0037,-2.9468,-2.8934,-2.939,-2.9116,-2.8351,-2.9234,-2.9143,-2.859,-2.9429,-2.9507,-2.9131,-2.9624,-2.9792,-2.9792,-2.9624,-2.9585,-2.9507,-2.9052,-2.9143,-2.9351,-2.9013,-2.9221,-2.9585,-2.9585,-2.9339,-2.9131,-2.9351,-2.9468,-2.9624,-2.9753,-2.9792,-2.9792,-2.9792,-2.9792,-2.9792,-2.9792,-2.9429,-2.9221,-2.9507,-2.9221,-2.9064,-2.9507,-2.9585,-2.9624,-2.9792,-2.9792,-2.9792,-2.9792,-2.9792,-2.9792,-2.9792,-2.9792,-2.9792,-2.9792,-2.9663,-2.9351,-2.8736,-2.8311,-2.8151,-2.8323,-2.8323,-2.8681,-2.939,-2.939,-2.9468,-2.9585,-2.9585,-2.9663,-2.9792,-2.9792,-2.9792,-2.9767,-2.9365,-2.9428,-2.9729,-2.8963,-2.8863,-2.9202,-2.9202,-2.9202,-2.9201,-2.9462,-2.9611,-2.9611,-3.8333,-3.8165,-3.8165,-3.8165,-3.8165,-3.8165,-3.8165,-3.8165,-3.8165,-3.8165,-3.8165,-3.7848,-3.6975,-3.6897,-3.6215,-3.4551,-3.4397,-3.4021,-3.3167,-3.327,-3.3792,-3.463,-3.2762,-3.2019,-3.266,-3.1496,-3.0507,-2.9792,-3.0507,-3.052,-2.9792,-2.9792,-2.9312,-2.851,-2.8934,-2.8669,-2.7973,-2.8736,-2.8855,-2.855,-2.9429,-2.9507,-2.9131,-2.9624,-2.9792,-2.9753,-2.926,-2.9091,-2.9052,-2.863,-2.851,-2.851,-2.851,-2.8788,-2.9091,-2.9091,-2.9091,-2.9013,-2.863,-2.8788,-2.9221,-2.9675,-2.9792,-2.9792,-2.9792,-2.9792,-2.9792,-2.9792,-2.9417,-2.9091,-2.9091,-2.8788,-2.863,-2.9013,-2.9091,-2.9248,-2.9714,-2.9792,-2.9792,-2.9792,-2.9792,-2.9792,-2.9792,-2.9792,-2.9792,-2.9792,-2.9378,-2.8749,-2.7921,-2.7435,-2.7394,-2.7881,-2.7881,-2.8082,-2.8471,-2.851,-2.8697,-2.9091,-2.9091,-2.9339,-2.9792,-2.9792,-2.9792,-2.9792,-2.9792,-2.9792,-2.9792,-2.9792,-2.9792,-2.9792,-2.9792,-2.9792,-2.9792,-2.9792,-2.9611,-2.9419,-3.7327,-3.6805,-3.6385,-3.6385,-3.6385,-3.6385,-3.6385,-3.6385,-3.6385,-3.6385,-3.6385,-3.6267,-3.6029,-3.5989,-3.5561,-3.4468,-3.4397,-3.4021,-3.3167,-3.3161,-3.3314,-3.3566,-3.2356,-3.1539,-3.122,-3.0508,-3.0037,-2.9792,-3.0037,-3.0037,-2.9792,-2.9792,-2.9312,-2.851,-2.8934,-2.8459,-2.7476,-2.8311,-2.8271,-2.7667,-2.855,-2.8788,-2.8749,-2.9143,-2.9495,-2.9792,-2.9624,-2.9378,-2.9052,-2.863,-2.851,-2.851,-2.851,-2.8788,-2.9052,-2.8736,-2.8669,-2.8669,-2.855,-2.8391,-2.8431,-2.9143,-2.9546,-2.9702,-2.9378,-2.93,-2.9221,-2.8946,-2.855,-2.8351,-2.863,-2.8351,-2.8203,-2.863,-2.8934,-2.9131,-2.93,-2.93,-2.93,-2.93,-2.9064,-2.8986,-2.93,-2.93,-2.9456,-2.9792,-2.9104,-2.8431,-2.7933,-2.7435,-2.7272,-2.7394,-2.7394,-2.7476,-2.7586,-2.8191,-2.855,-2.8669,-2.8669,-2.8907,-2.93,-2.93,-2.9507,-2.9792,-2.9792,-2.9792,-2.9792,-2.9792,-2.9792,-2.9792,-2.9792,-2.9792,-2.9792,-2.9611,-2.9611,-2.9611,-3.6399,-3.5949,-3.5615,-3.5615,-3.5615,-3.5615,-3.5615,-3.5615,-3.5615,-3.5615,-3.5615,-3.5467,-3.5156,-3.5128,-3.48,-3.3937,-3.3907,-3.3654,-3.3111,-3.3124,-3.3124,-3.3124,-3.2128,-3.139,-3.0922,-3.0394,-3.0018,-2.9792,-2.9792,-2.9792,-2.9792,-2.9792,-2.9312,-2.851,-2.8934,-2.8379,-2.7272,-2.8151,-2.799,-2.7272,-2.8151,-2.8391,-2.8323,-2.8709,-2.9143,-2.9468,-2.9155,-2.8946,-2.8776,-2.8191,-2.799,-2.803,-2.8191,-2.8431,-2.859,-2.8311,-2.8283,-2.8243,-2.803,-2.7962,-2.8002,-2.851,-2.8946,-2.9234,-2.8946,-2.8855,-2.8788,-2.855,-2.8163,-2.7962,-2.8203,-2.7921,-2.776,-2.8191,-2.8471,-2.8669,-2.8828,-2.8855,-2.8855,-2.8855,-2.8669,-2.859,-2.8828,-2.8855,-2.8986,-2.9273,-2.8788,-2.8311,-2.7921,-2.7435,-2.719,-2.719,-2.719,-2.719,-2.719,-2.7708,-2.807,-2.8283,-2.8283,-2.8471,-2.8855,-2.8855,-2.9025,-2.9273,-2.9273,-2.939,-2.9507,-2.9507,-2.9624,-2.9792,-2.9792,-2.9792,-2.9792,-2.9611,-2.9599,-2.9611,-3.5507,-3.5413,-3.5386,-3.5386,-3.5386,-3.5386,-3.5386,-3.5386,-3.5386,-3.5386,-3.5386,-3.5115,-3.4343,-3.4272,-3.3937,-3.3167,-3.3124,-3.3124,-3.3124,-3.3124,-3.3124,-3.3124,-3.2089,-3.1486,-3.1386,-3.0834,-3.0294,-2.9792,-2.9792,-2.9792,-2.9792,-2.9792,-2.9351,-2.859,-2.8946,-2.8419,-2.7394,-2.8111,-2.799,-2.7353,-2.807,-2.8191,-2.7933,-2.8323,-2.8709,-2.8934,-2.8203,-2.8163,-2.8311,-2.7464,-2.719,-2.7272,-2.7679,-2.7893,-2.7893,-2.7852,-2.7893,-2.78,-2.7313,-2.7516,-2.7841,-2.7841,-2.8122,-2.8391,-2.8431,-2.8431,-2.8431,-2.8391,-2.8082,-2.7841,-2.7841,-2.7476,-2.7353,-2.776,-2.7893,-2.8042,-2.8391,-2.8431,-2.8431,-2.8431,-2.8391,-2.8391,-2.8431,-2.8471,-2.8471,-2.8431,-2.8431,-2.8271,-2.7852,-2.7435,-2.719,-2.719,-2.719,-2.719,-2.719,-2.719,-2.7394,-2.7841,-2.7841,-2.8042,-2.8431,-2.8431,-2.8471,-2.851,-2.851,-2.8709,-2.9052,-2.9052,-2.93,-2.9714,-2.9714,-2.9714,-2.9792,-2.9753,-2.9611,-2.9457,-3.4662,-3.4092,-3.3641,-3.3641,-3.3641,-3.3641,-3.3641,-3.3641,-3.3641,-3.3641,-3.3641,-3.3556,-3.3411,-3.3368,-3.3326,-3.3124,-3.3124,-3.3124,-3.3124,-3.3124,-3.3124,-3.3124,-3.2842,-3.229,-3.1411,-3.0457,-2.9917,-2.9792,-2.9792,-2.9792,-2.9792,-2.9792,-2.9507,-2.8973,-2.9052,-2.8776,-2.8231,-2.8082,-2.7921,-2.7719,-2.7557,-2.7638,-2.7933,-2.8002,-2.8271,-2.863,-2.8431,-2.8243,-2.7962,-2.7394,-2.719,-2.7231,-2.7313,-2.7598,-2.7852,-2.7476,-2.7598,-2.78,-2.7313,-2.7272,-2.7353,-2.7353,-2.7435,-2.7586,-2.7962,-2.8042,-2.7921,-2.7557,-2.7394,-2.7353,-2.7353,-2.7272,-2.7231,-2.7353,-2.7638,-2.7921,-2.8002,-2.8042,-2.8042,-2.8042,-2.7719,-2.7638,-2.8002,-2.8311,-2.8351,-2.8042,-2.8042,-2.7841,-2.7394,-2.7272,-2.719,-2.719,-2.719,-2.719,-2.719,-2.719,-2.7272,-2.7353,-2.7353,-2.7598,-2.8042,-2.8042,-2.8203,-2.851,-2.851,-2.855,-2.863,-2.863,-2.8867,-2.9221,-2.8907,-2.9194,-2.9753,-2.9378,-2.956,-2.996,-3.3781,-3.3411,-3.3124,-3.3124,-3.3124,-3.3124,-3.3124,-3.3124,-3.3124,-3.3124,-3.3124,-3.3124,-3.3124,-3.3124,-3.3124,-3.3124,-3.3124,-3.3124,-3.3124,-3.3124,-3.3124,-3.3124,-3.2805,-3.2265,-3.1411,-3.0595,-3.0055,-2.9792,-2.9792,-2.9792,-2.9792,-2.9792,-2.9546,-2.9091,-2.9091,-2.8788,-2.8203,-2.8014,-2.776,-2.7557,-2.7313,-2.7353,-2.7557,-2.7557,-2.7841,-2.8203,-2.795,-2.7748,-2.7516,-2.7272,-2.719,-2.719,-2.719,-2.7353,-2.7516,-2.7272,-2.7353,-2.7516,-2.7272,-2.719,-2.719,-2.719,-2.719,-2.7272,-2.7516,-2.7557,-2.7516,-2.7272,-2.719,-2.719,-2.719,-2.719,-2.719,-2.719,-2.7394,-2.7557,-2.7557,-2.7557,-2.7557,-2.7557,-2.7353,-2.7313,-2.7557,-2.7962,-2.8122,-2.7933,-2.7893,-2.7812,-2.7557,-2.7313,-2.719,-2.719,-2.719,-2.719,-2.719,-2.719,-2.719,-2.719,-2.719,-2.7313,-2.7557,-2.7557,-2.7679,-2.7869,-2.7869,-2.8002,-2.8203,-2.8203,-2.8431,-2.8788,-2.859,-2.8788,-2.9182,-2.9248,-2.9677,-3.0228,-3.3124,-3.3124,-3.3124,-3.3124,-3.3124,-3.3124,-3.3124,-3.3124,-3.3124,-3.3124,-3.3124,-3.3124,-3.3124,-3.3124,-3.3124,-3.3124,-3.3124,-3.3124,-3.3124,-3.3124,-3.3124,-3.3124,-3.2616,-3.2102,-3.1549,-3.1022,-3.0432,-2.9792,-2.9792,-2.9792,-2.9792,-2.9792,-2.9585,-2.9209,-2.9209,-2.8788,-2.8082,-2.8042,-2.7719,-2.7313,-2.7231,-2.719,-2.719,-2.719,-2.7435,-2.7719,-2.7353,-2.719,-2.719,-2.719,-2.719,-2.719,-2.719,-2.719,-2.719,-2.719,-2.719,-2.719,-2.719,-2.719,-2.719,-2.719,-2.719,-2.719,-2.719,-2.719,-2.719,-2.719,-2.719,-2.719,-2.719,-2.719,-2.719,-2.719,-2.719,-2.719,-2.719,-2.719,-2.719,-2.719,-2.719,-2.719,-2.719,-2.7557,-2.7771,-2.7771,-2.7771,-2.7771,-2.7771,-2.7394,-2.719,-2.719,-2.719,-2.719,-2.719,-2.719,-2.719,-2.719,-2.719,-2.719,-2.719,-2.719,-2.719,-2.719,-2.719,-2.7435,-2.7841,-2.7841,-2.8082,-2.8431,-2.8351,-2.8431,-2.8618,-2.9106,-2.9729,-3.033,-3.3124,-3.3124,-3.3124,-3.3124,-3.3124,-3.3124,-3.3124,-3.3124,-3.3124,-3.3124,-3.3124,-3.3124,-3.3124,-3.3124,-3.3124,-3.3124,-3.3124,-3.3124,-3.3124,-3.3124,-3.3124,-3.3124,-3.3006,-3.2692,-3.2114,-3.1574,-3.0796,-2.9792,-2.9792,-2.9792,-2.9792,-2.9792,-2.9753,-2.9714,-2.9714,-2.9429,-2.8895,-2.859,-2.8203,-2.776,-2.7353,-2.719,-2.719,-2.719,-2.7231,-2.7272,-2.7231,-2.719,-2.719,-2.719,-2.719,-2.719,-2.719,-2.719,-2.719,-2.719,-2.719,-2.719,-2.719,-2.719,-2.719,-2.719,-2.719,-2.719,-2.719,-2.719,-2.719,-2.719,-2.719,-2.719,-2.719,-2.719,-2.719,-2.719,-2.719,-2.719,-2.719,-2.719,-2.719,-2.719,-2.719,-2.719,-2.719,-2.7272,-2.7313,-2.7313,-2.7313,-2.7313,-2.7313,-2.7231,-2.719,-2.719,-2.719,-2.719,-2.719,-2.719,-2.719,-2.719,-2.719,-2.719,-2.719,-2.719,-2.719,-2.719,-2.719,-2.7342,-2.7563,-2.7563,-2.7817,-2.8219,-2.7805,-2.8087,-2.8764,-2.8831,-2.9431,-3.0113,-3.3124,-3.3124,-3.3124,-3.3124,-3.3124,-3.3124,-3.3124,-3.3124,-3.3124,-3.3124,-3.3124,-3.3124,-3.3124,-3.3124,-3.3124,-3.3124,-3.3124,-3.3124,-3.3124,-3.3124,-3.3124,-3.3124,-3.3124,-3.2805,-3.2227,-3.1976,-3.1474,-3.0683,-3.008,-2.9792,-2.9792,-2.9792,-2.9792,-2.9792,-2.9792,-2.9546,-2.9091,-2.8895,-2.859,-2.8203,-2.776,-2.7598,-2.7557,-2.7313,-2.719,-2.719,-2.719,-2.719,-2.719,-2.719,-2.719,-2.719,-2.719,-2.7426,-2.7656,-2.7656,-2.7656,-2.7702,-2.7977,-2.7851,-2.7713,-2.7977,-2.7851,-2.7656,-2.7656,-2.7438,-2.727,-2.7598,-2.7656,-2.7736,-2.8,-2.7828,-2.7656,-2.7656,-2.7415,-2.719,-2.719,-2.719,-2.719,-2.719,-2.719,-2.719,-2.719,-2.6745,-2.6445,-2.6445,-2.5988,-2.5893,-2.6393,-2.6445,-2.6663,-2.719,-2.6704,-2.6487,-2.6622,-2.6113,-2.5946,-2.6082,-2.5946,-2.6332,-2.719,-2.719,-2.719,-2.7231,-2.7342,-2.74,-2.751,-2.7655,-2.7869,-2.795,-2.7237,-2.7069,-2.7331,-2.7597,-2.8148,-2.8848]},{"header":{"parameterUnit":"m.s-1","parameterCategory":1,"la1":30.6,"la2":28.766,"lo1":-90.7593,"lo2":-88.6598,"dy":0.0162,"dx":0.0183,"nx":116,"ny":114,"refTime":"2024-04-28T18:00:00:Z","depth":0,"parameterNumber":3,"parameterNumberName":"V-component_of_WINDS"},"data":[0.0,0.0,0.0,0.0,0.0,0.0,0.0,0.0,0.0,0.0,0.0,0.0,0.0,0.0,0.0,0.0,0.0,0.0,0.0,0.0,0.0,0.0,0.0,0.0,0.0,0.0,0.0,0.0,0.0,0.0,0.0,0.0,0.0,0.0,0.0,0.0,0.0,0.0,0.0,0.0,0.0,0.0,0.0,0.0,0.0,0.0,0.0,0.0,0.0,0.0,0.0,0.0,0.0,0.0,0.0,0.0,0.0,0.0,0.0,0.0,0.0,0.0,0.0,0.0,0.0,0.0,0.0,0.0,0.0,0.0,0.0,0.0,0.0,0.0,0.0,0.0,0.0,0.0,0.0,0.0,0.0,0.0,0.0,0.0,0.0,0.0,0.0,0.0,0.0,0.0,0.0,0.0,0.0,0.0,0.0,0.0,0.0,0.0,0.0,0.0,0.0,0.0,0.0,0.0,0.0,0.0,0.0,0.0,0.0,0.0,0.0,0.0,0.0,0.0,0.0,0.0,0.0,0.0,0.0,0.0,0.0,0.0,0.0,0.0,0.0,0.0,0.0,0.0,0.0,0.0,0.0,0.0,0.0,0.0,0.0,0.0,0.0,0.0,0.0,0.0,0.0,0.0,0.0,0.0,0.0,0.0,0.0,0.0,0.0,0.0,0.0,0.0,0.0,0.0,0.0,0.0,0.0,0.0,0.0,0.0,0.0,0.0,0.0,0.0,0.0,0.0,0.0,0.0,0.0,0.0,0.0,0.0,0.0,0.0,0.0,0.0,0.0,0.0,0.0,0.0,0.0,0.0,0.0,0.0,0.0,0.0,0.0,0.0,0.0,0.0,0.0,0.0,0.0,0.0,0.0,0.0,0.0,0.0,0.0,0.0,0.0,0.0,0.0,0.0,0.0,0.0,0.0,0.0,0.0,0.0,0.0,0.0,0.0,0.0,0.0,0.0,0.0,0.0,0.0,0.0,0.0,0.0,0.0,0.0,0.0,0.0,0.0,0.0,0.0,0.0,0.0,0.0,0.0,0.0,0.0,0.0,0.0,0.0,0.0,0.0,0.0,0.0,0.0,0.0,0.0,0.0,0.0,0.0,0.0,0.0,0.0,0.0,0.0,0.0,0.0,0.0,0.0,0.0,0.0,0.0,0.0,0.0,0.0,0.0,0.0,0.0,0.0,0.0,0.0,0.0,0.0,0.0,0.0,0.0,0.0,0.0,0.0,0.0,0.0,0.0,0.0,0.0,0.0,0.0,0.0,0.0,0.0,0.0,0.0,0.0,0.0,0.0,0.0,0.0,0.0,0.0,0.0,0.0,0.0,0.0,0.0,0.0,0.0,0.0,0.0,0.0,0.0,0.0,0.0,0.0,0.0,0.0,0.0,0.0,0.0,0.0,0.0,0.0,0.0,0.0,0.0,0.0,0.0,0.0,0.0,0.0,0.0,0.0,0.0,0.0,0.0,0.0,0.0,0.0,0.0,0.0,0.0,0.0,0.0,0.0,0.0,0.0,0.0,0.0,0.0,0.0,0.0,0.0,0.0,0.0,0.0,0.0,0.0,0.0,0.0,0.0,0.0,0.0,0.0,0.0,0.0,0.0,0.0,0.0,0.0,0.0,0.0,0.0,0.0,0.0,0.0,0.0,0.0,0.0,0.0,0.0,0.0,0.0,0.0,0.0,0.0,0.0,0.0,0.0,0.0,0.0,0.0,0.0,0.0,0.0,0.0,0.0,0.0,0.0,0.0,0.0,0.0,0.0,0.0,0.0,0.0,0.0,0.0,0.0,0.0,0.0,0.0,0.0,0.0,0.0,0.0,0.0,0.0,0.0,0.0,0.0,0.0,0.0,0.0,0.0,0.0,0.0,0.0,0.0,0.0,0.0,0.0,0.0,0.0,0.0,0.0,0.0,0.0,0.0,0.0,0.0,0.0,0.0,0.0,0.0,0.0,0.0,0.0,0.0,0.0,0.0,0.0,0.0,0.0,0.0,0.0,0.0,0.0,0.0,0.0,0.0,0.0,0.0,0.0,0.0,0.0,0.0,0.0,0.0,0.0,0.0,0.0,0.0,0.0,0.0,0.0,0.0,0.0,0.0,0.0,0.0,0.0,0.0,0.0,0.0,0.0,0.0,0.0,0.0,0.0,0.0,0.0,0.0,0.0,0.0,0.0,0.0,0.0,0.0,0.0,0.0,0.0,0.0,0.0,0.0,0.0,0.0,0.0,0.0,0.0,0.0,0.0,0.0,0.0,0.0,0.0,0.0,0.0,0.0,0.0,0.0,0.0,0.0,0.0,0.0,0.0,0.0,0.0,0.0,0.0,0.0,0.0,0.0,0.0,0.0,0.0,0.0,0.0,0.0,0.0,0.0,0.0,0.0,0.0,0.0,0.0,0.0,0.0,0.0,0.0,0.0,0.0,0.0,0.0,0.0,0.0,0.0,0.0,0.0,0.0,0.0,0.0,0.0,0.0,0.0,0.0,0.0,0.0,0.0,0.0,0.0,0.0,0.0,0.0,0.0,0.0,0.0,0.0,0.0,0.0,0.0,0.0,0.0,0.0,0.0,0.0,0.0,0.0,0.0,0.0,0.0,0.0,0.0,0.0,0.0,0.0,0.0,0.0,0.0,0.0,0.0,0.0,0.0,0.0,0.0,0.0,0.0,0.0,0.0,0.0,0.0,0.0,0.0,0.0,0.0,0.0,0.0,0.0,0.0,0.0,0.0,0.0,0.0,0.0,0.0,0.0,0.0,0.0,0.0,0.0,0.0,0.0,0.0,0.0,0.0,0.0,0.0,0.0,0.0,0.0,0.0,0.0,0.0,0.0,0.0,0.0,0.0,0.0,0.0,0.0,0.0,0.0,0.0,0.0,0.0,0.0,0.0,0.0,0.0,0.0,0.0,0.0,0.0,0.0,0.0,0.0,0.0,0.0,0.0,0.0,0.0,0.0,0.0,0.0,0.0,0.0,0.0,0.0,0.0,0.0,0.0,0.0,0.0,0.0,0.0,0.0,0.0,0.0,0.0,0.0,0.0,0.0,0.0,0.0,0.0,0.0,0.0,0.0,0.0,0.0,0.0,0.0,0.0,0.0,0.0,0.0,0.0,0.0,0.0,0.0,0.0,0.0,0.0,0.0,0.0,0.0,0.0,0.0,0.0,0.0,0.0,0.0,0.0,0.0,0.0,0.0,0.0,0.0,0.0,0.0,0.0,0.0,0.0,0.0,0.0,0.0,0.0,0.0,0.0,0.0,0.0,0.0,0.0,0.0,0.0,0.0,0.0,0.0,0.0,0.0,0.0,0.0,0.0,0.0,0.0,0.0,0.0,0.0,0.0,0.0,0.0,0.0,0.0,0.0,0.0,0.0,0.0,0.0,0.0,0.0,0.0,0.0,0.0,0.0,0.0,0.0,0.0,0.0,0.0,0.0,0.0,0.0,0.0,0.0,0.0,0.0,0.0,0.0,0.0,0.0,0.0,0.0,0.0,0.0,0.0,0.0,0.0,0.0,0.0,0.0,0.0,0.0,0.0,0.0,0.0,0.0,0.0,0.0,0.0,0.0,0.0,0.0,0.0,0.0,0.0,0.0,0.0,0.0,0.0,0.0,0.0,0.0,0.0,0.0,0.0,0.0,0.0,0.0,0.0,0.0,0.0,0.0,0.0,0.0,0.0,0.0,0.0,0.0,0.0,0.0,0.0,0.0,0.0,0.0,0.0,0.0,0.0,0.0,0.0,0.0,0.0,0.0,0.0,0.0,0.0,0.0,0.0,0.0,0.0,0.0,0.0,0.0,0.0,0.0,0.0,0.0,0.0,0.0,0.0,0.0,0.0,0.0,0.0,0.0,0.0,0.0,0.0,0.0,0.0,0.0,0.0,0.0,0.0,0.0,0.0,0.0,0.0,0.0,0.0,0.0,0.0,0.0,0.0,0.0,0.0,0.0,0.0,0.0,0.0,0.0,0.0,0.0,0.0,0.0,0.0,0.0,0.0,0.0,0.0,0.0,0.0,0.0,0.0,0.0,0.0,0.0,0.0,0.0,0.0,0.0,0.0,0.0,0.0,0.0,0.0,0.0,0.0,0.0,0.0,0.0,0.0,0.0,0.0,0.0,0.0,0.0,0.0,0.0,0.0,0.0,0.0,0.0,0.0,0.0,0.0,0.0,0.0,0.0,0.0,0.0,0.0,0.0,0.0,0.0,0.0,0.0,0.0,0.0,0.0,0.0,0.0,0.0,0.0,0.0,0.0,0.0,0.0,0.0,0.0,0.0,0.0,0.0,0.0,0.0,0.0,0.0,0.0,0.0,0.0,0.0,0.0,0.0,0.0,0.0,0.0,0.0,0.0,0.0,0.0,0.0,0.0,0.0,0.0,0.0,0.0,0.0,0.0,0.0,0.0,0.0,0.0,0.0,0.0,0.0,0.0,0.0,0.0,0.0,0.0,0.0,0.0,0.0,0.0,0.0,0.0,0.0,0.0,0.0,0.0,0.0,0.0,0.0,0.0,0.0,0.0,0.0,0.0,0.0,0.0,0.0,0.0,0.0,0.0,0.0,0.0,0.0,0.0,0.0,0.0,0.0,0.0,0.0,0.0,0.0,0.0,0.0,0.0,0.0,0.0,0.0,0.0,0.0,0.0,0.0,0.0,0.0,0.0,0.0,0.0,0.0,0.0,0.0,0.0,0.0,0.0,0.0,0.0,0.0,0.0,0.0,0.0,0.0,0.0,0.0,0.0,0.0,0.0,0.0,0.0,0.0,0.0,0.0,0.0,0.0,0.0,0.0,0.0,0.0,0.0,0.0,0.0,0.0,0.0,0.0,0.0,0.0,0.0,0.0,0.0,0.0,0.0,0.0,0.0,0.0,0.0,0.0,0.0,0.0,0.0,0.0,0.0,0.0,0.0,0.0,0.0,0.0,0.0,0.0,0.0,0.0,0.0,0.0,0.0,0.0,0.0,0.0,0.0,0.0,0.0,0.0,0.0,0.0,0.0,0.0,0.0,0.0,0.0,0.0,0.0,0.0,0.0,0.0,0.0,0.0,0.0,0.0,0.0,0.0,0.0,0.0,0.0,0.0,0.0,0.0,0.0,0.0,0.0,0.0,0.0,0.0,0.0,0.0,0.0,0.0,0.0,0.0,0.0,0.0,0.0,0.0,0.0,0.0,0.0,0.0,0.0,0.0,0.0,0.0,0.0,0.0,0.0,0.0,0.0,0.0,0.0,0.0,0.0,0.0,0.0,0.0,0.0,0.0,0.0,0.0,0.0,0.0,0.0,0.0,0.0,0.0,0.0,0.0,0.0,0.0,0.0,0.0,0.0,0.0,0.0,0.0,0.0,0.0,0.0,0.0,0.0,0.0,0.0,0.0,0.0,0.0,0.0,0.0,0.0,0.0,0.0,0.0,0.0,0.0,0.0,0.0,0.0,0.0,0.0,0.0,0.0,0.0,0.0,0.0,0.0,0.0,0.0,0.0,0.0,0.0,0.0,0.0,0.0,0.0,0.0,0.0,0.0,0.0,0.0,0.0,0.0,0.0,0.0,0.0,0.0,0.0,0.0,0.0,0.0,0.0,0.0,0.0,0.0,0.0,0.0,0.0,0.0,0.0,0.0,0.0,0.0,0.0,0.0,0.0,0.0,0.0,0.0,0.0,0.0,0.0,0.0,0.0,0.0,0.0,0.0,0.0,0.0,0.0,0.0,0.0,0.0,0.0,0.0,0.0,0.0,0.0,0.0,0.0,0.0,0.0,0.0,0.0,0.0,0.0,0.0,0.0,0.0,0.0,0.0,0.0,0.0,0.0,0.0,0.0,0.0,0.0,0.0,0.0,0.0,0.0,0.0,0.0,0.0,0.0,0.0,0.0,0.0,0.0,0.0,0.0,0.0,0.0,0.0,0.0,0.0,0.0,0.0,0.0,0.0,0.0,0.0,0.0,0.0,0.0,0.0,0.0,0.0,0.0,0.0,0.0,0.0,0.0,0.0,0.0,0.0,0.0,0.0,0.0,0.0,0.0,0.0,0.0,0.0,0.0,0.0,0.0,0.0,0.0,0.0,0.0,0.0,0.0,0.0,0.0,0.0,0.0,0.0,0.0,0.0,0.0,0.0,1.3549,1.2632,0.0,0.0,0.0,0.0,0.0,0.0,0.0,0.0,0.0,0.0,0.0,0.0,0.0,0.0,0.0,0.0,0.0,0.0,0.0,0.0,0.0,0.0,0.0,2.3127,2.3646,2.3646,2.5039,2.5952,2.5952,0.0,0.0,0.0,2.8187,2.8462,2.9001,2.8497,2.8296,2.8466,2.8296,2.8041,2.7771,2.7033,2.6342,2.5675,0.0,0.0,0.0,0.0,0.0,0.0,0.0,0.0,0.0,0.0,0.0,0.0,0.0,0.0,0.0,0.0,0.0,0.0,0.0,0.0,0.0,0.0,0.0,0.0,0.0,0.0,0.0,0.0,0.0,0.0,0.0,0.0,0.0,0.0,0.0,0.0,0.0,0.0,0.0,0.0,0.0,0.0,0.0,0.0,0.0,0.0,0.0,0.0,0.0,0.0,0.0,0.0,0.0,0.0,0.0,0.0,0.0,0.0,0.0,0.0,0.0,0.0,0.0,0.0,0.0,0.0,0.0,0.0,0.0,0.0,1.4697,1.3918,0.0,0.0,0.0,0.0,0.0,0.0,0.0,0.0,0.0,0.0,0.0,0.0,0.0,0.0,0.0,0.0,0.0,0.0,0.0,0.0,0.0,2.4088,2.4088,2.435,2.4495,2.4495,2.5894,2.6804,2.6804,2.7832,0.0,2.8493,2.8265,2.8015,2.781,2.7322,2.7217,2.7536,2.729,2.7468,2.8089,2.7872,2.7129,2.6012,2.5563,0.0,0.0,0.0,0.0,0.0,0.0,0.0,0.0,0.0,0.0,0.0,0.0,0.0,0.0,0.0,0.0,0.0,0.0,0.0,0.0,0.0,0.0,0.0,0.0,0.0,0.0,0.0,0.0,0.0,0.0,0.0,0.0,0.0,0.0,0.0,0.0,0.0,0.0,0.0,0.0,0.0,0.0,0.0,0.0,0.0,0.0,0.0,0.0,0.0,0.0,0.0,0.0,0.0,0.0,0.0,0.0,0.0,0.0,0.0,0.0,0.0,0.0,0.0,1.736,1.7281,1.717,1.687,1.6737,1.666,1.5976,1.5409,1.4814,1.31,0.0,0.0,0.0,0.0,0.0,0.0,0.0,0.0,0.0,0.0,0.0,0.0,0.0,0.0,0.0,0.0,0.0,0.0,0.0,2.4088,2.4088,2.5265,2.6101,2.6101,2.7452,2.8315,2.8315,2.8105,2.8007,2.8007,2.7631,2.7403,2.7392,2.7278,2.7295,2.7357,2.7641,2.8035,2.8531,2.8481,2.8344,2.8166,2.7745,2.7802,2.8161,0.0,0.0,0.0,0.0,0.0,0.0,0.0,0.0,0.0,0.0,0.0,0.0,0.0,0.0,0.0,0.0,0.0,0.0,0.0,0.0,0.0,0.0,0.0,0.0,0.0,0.0,0.0,0.0,0.0,0.0,0.0,0.0,0.0,0.0,0.0,0.0,0.0,0.0,0.0,0.0,0.0,2.3955,2.2476,0.0,0.0,0.0,0.0,0.0,0.0,0.0,0.0,0.0,0.0,0.0,0.0,0.0,1.7145,1.6756,1.7754,1.8169,1.7876,1.7876,1.7636,1.7213,1.6931,1.68,1.678,1.6351,0.0,1.6022,1.4839,0.0,0.0,0.0,0.0,0.0,0.0,0.0,0.0,0.0,0.0,0.0,0.0,0.0,0.0,0.0,0.0,0.0,0.0,0.0,0.0,0.0,2.6492,2.6924,2.6924,2.7495,2.7748,2.7479,2.7272,2.7044,2.6786,2.6589,2.6372,2.6123,2.6361,2.6781,2.7309,2.7707,2.8162,2.8618,2.8618,2.8618,2.8587,2.8157,2.8076,2.8185,2.7332,0.0,0.0,0.0,0.0,0.0,0.0,0.0,0.0,0.0,0.0,0.0,0.0,0.0,0.0,0.0,0.0,0.0,0.0,0.0,0.0,0.0,0.0,0.0,0.0,0.0,0.0,0.0,0.0,0.0,0.0,0.0,0.0,0.0,0.0,0.0,0.0,0.0,0.0,0.0,2.5217,2.474,2.3265,2.326,2.265,0.0,0.0,0.0,0.0,0.0,0.0,0.0,0.0,0.0,1.7377,1.7681,1.7828,1.7789,1.8222,1.8417,1.8297,1.8075,1.7868,1.7628,1.7384,1.7245,1.7238,1.7106,1.6939,1.669,1.5109,1.4158,1.3471,0.0,0.0,0.0,0.0,0.9966,1.0057,0.0,0.0,0.0,0.0,0.0,0.0,0.0,0.0,0.0,0.0,0.0,0.0,2.7033,2.7085,2.716,2.7225,2.7276,2.7164,2.6812,2.6573,2.6283,2.5941,2.5658,2.5344,2.4936,2.5764,2.6687,2.7668,2.8264,2.8811,2.92,2.9278,2.9183,2.8974,2.8628,2.8335,2.8059,2.7692,2.7562,2.7704,0.0,0.0,0.0,0.0,0.0,0.0,0.0,0.0,0.0,0.0,0.0,0.0,0.0,0.0,0.0,0.0,0.0,0.0,0.0,0.0,0.0,0.0,0.0,0.0,0.0,0.0,0.0,0.0,0.0,0.0,0.0,0.0,0.0,0.0,0.0,0.0,0.0,2.5596,2.5508,2.4066,2.4485,2.4051,0.0,0.0,0.0,0.0,0.0,0.0,2.1677,2.1023,2.0323,1.9656,1.907,1.8865,1.9119,1.8949,1.8738,1.8597,1.8377,1.8175,1.8095,1.7842,1.7655,1.7582,1.7582,1.7514,1.717,1.5689,1.4796,1.4316,1.2997,1.2005,1.1311,1.1427,1.1367,1.1337,0.0,0.0,0.0,0.0,0.0,0.0,0.0,0.0,0.0,0.0,0.0,2.5908,2.6329,2.6456,2.6716,2.708,2.7221,2.7299,2.7278,2.6449,2.5906,2.5875,2.5068,2.4473,2.4237,2.6017,2.7516,2.8631,2.984,3.0613,3.0869,3.1113,3.0849,3.0122,3.0089,2.9524,2.8524,2.7683,2.7548,2.7852,2.7714,0.0,0.0,0.0,0.0,0.0,0.0,0.0,0.0,0.0,0.0,0.0,0.0,0.0,0.0,0.0,0.0,0.0,0.0,0.0,0.0,0.0,0.0,0.0,0.0,0.0,0.0,0.0,0.0,0.0,0.0,0.0,0.0,0.0,0.0,0.0,0.0,0.0,0.0,2.5167,2.6132,0.0,0.0,0.0,0.0,2.3477,2.34,2.3609,2.4005,2.3091,2.2855,2.3478,2.1598,2.0615,2.0773,2.0072,1.9452,1.8905,1.8885,1.8738,1.8457,1.8102,1.7862,1.7582,1.7582,1.7575,1.7535,1.7176,1.6401,1.5376,1.4796,1.3895,1.2963,1.3014,1.2958,1.2999,0.0,0.0,0.0,0.0,0.0,2.4174,2.4233,2.4529,2.4824,2.503,2.5411,2.5908,2.6377,2.6408,2.6624,2.7173,2.7179,2.7054,2.6858,2.6227,2.584,2.5669,2.504,2.5155,2.6172,2.686,2.7982,2.9606,3.0055,3.0658,3.1385,3.1469,3.145,3.1341,3.1379,3.0734,2.9507,2.8237,2.7779,2.7903,2.7797,2.7654,0.0,0.0,0.0,0.0,0.0,0.0,0.0,0.0,0.0,0.0,0.0,0.0,0.0,0.0,0.0,0.0,0.0,0.0,0.0,0.0,0.0,0.0,0.0,0.0,0.0,0.0,0.0,0.0,0.0,0.0,0.0,0.0,0.0,0.0,0.0,0.0,0.0,2.6118,2.7114,0.0,2.5896,2.5944,2.6174,2.6588,2.6582,2.6556,2.6513,2.6154,2.576,2.5235,2.4499,2.3754,2.2955,2.1916,2.0894,2.0045,1.9055,1.8533,1.8477,1.8129,1.7876,1.7582,1.7582,1.7582,1.7575,1.7521,1.7032,1.626,1.5493,1.5133,1.4937,1.454,1.4629,1.4858,0.0,0.0,0.0,2.5342,2.5235,2.503,2.4587,2.4735,2.4892,2.4686,2.5104,2.5593,2.6093,2.6206,2.6495,2.7106,2.7109,2.6913,2.6481,2.6053,2.5608,2.5183,2.48,2.5402,2.7264,2.7538,2.8646,3.066,3.1064,3.1782,3.2661,3.2785,3.2756,3.2646,3.2621,3.201,3.091,2.9716,2.8777,2.8142,2.7937,2.7841,2.7766,0.0,0.0,0.0,0.0,0.0,0.0,0.0,0.0,0.0,0.0,0.0,0.0,0.0,0.0,0.0,0.0,0.0,0.0,0.0,0.0,0.0,0.0,0.0,0.0,0.0,0.0,0.0,0.0,0.0,0.0,0.0,0.0,0.0,0.0,2.618,2.6869,2.6817,2.8008,2.8499,2.7791,2.7955,2.8389,2.9111,2.9023,2.8906,2.886,2.8528,2.7994,2.7195,2.6373,2.5552,2.4606,2.277,2.1569,2.0831,1.931,1.8512,1.849,1.8335,1.8063,1.7589,1.7695,1.7675,1.7582,1.7582,1.737,1.7002,1.6307,1.6034,1.5959,1.5534,1.5525,1.5628,0.0,2.5684,2.5586,2.5333,2.5079,2.4784,2.4538,2.435,2.4202,2.4202,2.4569,2.4931,2.5359,2.5811,2.6317,2.682,2.6983,2.6806,2.6237,2.5778,2.5259,2.4555,2.4312,2.5163,2.7306,2.8094,2.9545,3.1723,3.2971,3.3991,3.475,3.5039,3.4739,3.3995,3.3754,3.3317,3.2771,3.2096,3.0626,2.8707,2.824,2.8323,2.8614,0.0,0.0,0.0,0.0,0.0,0.0,0.0,0.0,0.0,0.0,0.0,0.0,0.0,0.0,0.0,0.0,0.0,0.0,0.0,0.0,0.0,0.0,0.0,0.0,0.0,0.0,0.0,0.0,0.0,0.0,0.0,0.0,0.0,2.5782,2.6746,2.7444,2.7354,2.884,2.9661,2.9191,2.9783,3.042,3.0879,3.0478,3.041,3.0869,2.9959,2.9438,2.9471,2.7325,2.5949,2.561,2.2825,2.1391,2.1288,1.9673,1.8803,1.8553,1.8771,1.8417,1.7602,1.7849,1.7862,1.7582,1.7582,1.7582,1.7542,1.73,1.6713,1.6041,1.5924,1.5716,1.5401,2.4353,2.5167,2.5538,2.5079,2.4941,2.4735,2.435,2.4251,2.4202,2.4202,2.4569,2.4965,2.5404,2.5791,2.6172,2.6441,2.6116,2.5878,2.5694,2.4991,2.4606,2.4705,2.5498,2.6857,2.8831,2.9834,3.0951,3.2285,3.3008,3.3496,3.3699,3.416,3.4306,3.4306,3.4643,3.4258,3.3392,3.3571,3.2972,3.19,3.1446,3.111,3.0919,0.0,0.0,0.0,0.0,0.0,0.0,0.0,0.0,0.0,0.0,0.0,0.0,0.0,0.0,0.0,0.0,0.0,0.0,0.0,0.0,0.0,0.0,0.0,0.0,0.0,0.0,0.0,0.0,0.0,0.0,0.0,2.5537,2.6306,2.6359,2.7577,2.8548,2.8857,2.9964,3.0683,3.0559,3.0489,3.0541,3.0922,3.0576,3.0509,3.0879,3.0655,3.0471,3.0518,2.9876,2.887,2.7518,2.5848,2.4499,2.3424,2.1023,1.9878,1.9778,1.8728,1.8029,1.7589,1.7669,1.7662,1.7582,1.7582,1.7514,1.7293,1.6941,1.6863,1.6795,1.6073,1.5761,1.5612,2.4559,2.5274,2.5586,2.5137,2.4981,2.4784,2.439,2.4242,2.4202,2.4202,2.4569,2.4877,2.5163,2.5533,2.581,2.5966,2.5597,2.526,2.5061,2.4499,2.4651,2.562,2.6568,2.8079,3.0216,3.0718,3.1599,3.2839,3.2911,3.3068,3.3296,3.3585,3.3884,3.4244,3.4423,3.4425,3.4306,3.4583,3.4595,3.4362,3.3923,3.3077,3.2009,3.1664,3.148,3.1305,3.0737,3.0599,3.0629,3.0442,0.0,0.0,0.0,0.0,0.0,0.0,0.0,0.0,0.0,0.0,0.0,0.0,0.0,0.0,0.0,0.0,0.0,0.0,0.0,0.0,0.0,0.0,0.0,0.0,2.6554,2.7462,2.7792,2.8461,2.9183,2.9897,3.0424,3.0748,3.0917,3.0672,3.0607,3.0806,3.0455,3.0333,3.0694,3.0694,3.0645,3.047,3.047,2.9698,2.8106,2.6836,2.5565,2.4247,2.2134,2.0758,2.0003,1.9257,1.8406,1.7589,1.7722,1.7635,1.7454,1.7454,1.728,1.7012,0.0,0.0,0.0,0.0,1.5939,1.5738,2.5382,2.5635,2.5635,2.5342,2.5088,2.4784,2.4529,2.4341,2.4202,2.4202,2.4569,2.4785,2.4785,2.5133,2.5404,2.5434,2.5101,2.4737,2.4239,2.4234,2.4967,2.6697,2.7499,2.8932,3.1182,3.1228,3.1914,3.32,3.2791,3.2803,3.32,3.3214,3.3478,3.3886,3.3665,3.4144,3.5114,3.5234,3.5521,3.5966,3.5628,3.4384,3.2584,3.1251,3.0927,3.1217,3.1229,3.0962,3.0763,3.1634,0.0,0.0,0.0,0.0,0.0,0.0,0.0,0.0,0.0,0.0,0.0,0.0,0.0,0.0,0.0,0.0,0.0,0.0,0.0,0.0,0.0,0.0,0.0,0.0,2.7851,2.8792,2.9595,2.9402,2.9508,3.0534,3.0348,3.0283,3.059,3.056,3.0496,3.0556,3.0099,3.0039,3.0382,3.0382,0.0,0.0,0.0,2.9244,2.7945,2.6734,2.554,2.4473,2.3113,2.1558,1.9937,1.9981,1.9134,1.7595,1.7842,1.7642,1.7199,1.7166,1.6978,1.6687,1.6998,1.6867,1.6573,1.6319,1.6052,1.5792,2.455,2.5118,2.5635,2.5342,2.5088,2.4784,2.4529,2.4341,2.4202,2.4202,2.4569,2.4785,2.4785,2.5133,2.5258,2.4956,2.426,2.3583,2.3054,2.3876,2.4874,2.598,2.7855,2.9482,3.0715,3.2113,3.2787,3.2647,3.2984,3.2971,3.2659,3.2639,3.2935,3.344,3.3363,3.3803,3.4603,3.523,3.5726,3.5966,3.5628,3.5264,3.4839,3.4119,3.3897,3.3847,3.2973,3.2923,3.3145,3.2913,3.3068,3.3268,3.2957,3.2502,0.0,0.0,0.0,0.0,0.0,0.0,0.0,0.0,0.0,0.0,0.0,0.0,0.0,0.0,0.0,0.0,0.0,0.0,0.0,2.9021,2.9235,2.9628,3.0371,3.0196,3.002,3.0238,3.053,3.0585,3.0346,3.0002,2.9883,3.0204,2.9802,2.9804,3.0392,3.0157,3.0225,3.0704,3.0132,2.9527,2.8851,2.7809,2.6912,2.6082,2.4293,0.0,2.1217,2.0144,1.8926,1.7569,1.7454,1.7306,1.7186,1.6894,1.662,1.6359,1.6469,1.6259,1.5992,1.5939,1.5879,1.5771,2.5011,2.5323,2.5635,2.5538,2.5284,2.5088,2.4932,2.4587,2.4341,2.4341,2.4435,2.439,2.4189,2.4335,2.4299,2.3904,2.3588,2.3304,2.3092,2.4012,2.5155,2.6533,2.8482,2.9892,3.0667,3.2005,3.2486,3.2103,3.1874,3.1744,3.1677,3.1458,3.1623,3.2124,3.2136,3.2628,3.3468,3.4018,3.4474,3.4812,3.4911,3.4765,3.4502,3.4332,3.4135,3.3834,3.3592,3.3479,3.3521,3.3814,3.4107,3.4272,3.4057,3.3995,3.3838,0.0,0.0,0.0,0.0,0.0,0.0,0.0,0.0,0.0,0.0,0.0,0.0,0.0,0.0,3.1727,3.1482,0.0,3.2532,3.2137,3.1692,3.1497,3.1736,3.104,3.0413,3.0193,3.0015,2.981,2.9608,2.9406,2.9338,2.9527,2.9333,2.945,2.9912,2.9804,2.9922,3.0411,2.9872,2.926,2.8681,2.8265,2.7406,2.6036,2.5294,2.3948,2.2124,2.0856,1.9901,1.9228,1.8499,1.8061,1.7738,1.6693,1.6131,1.5908,1.6004,1.5959,1.5784,1.5784,1.5784,1.5784,2.5693,2.5693,2.5693,2.5693,2.5489,2.5255,2.5178,2.4711,2.434,2.4266,2.4125,2.3877,2.3425,2.3444,2.3306,2.2821,2.312,2.3361,2.3361,2.4239,2.545,2.7111,2.8705,2.9943,3.0714,3.1408,3.175,3.1621,3.0697,3.0397,3.0758,3.0261,3.0342,3.087,3.0881,3.1374,3.225,3.2632,3.3054,3.3511,3.3935,3.3843,3.3521,3.3586,3.3383,3.3174,3.3583,3.3458,3.3275,3.4223,3.4517,3.4575,3.4688,3.4981,3.5144,3.4198,3.4211,0.0,0.0,0.0,0.0,0.0,0.0,0.0,0.0,3.1972,3.2089,3.3744,3.4296,3.4497,3.4703,3.5543,3.5938,3.5168,3.4053,3.3196,3.276,3.153,3.0503,2.9935,2.943,2.9067,2.8993,2.8984,2.8984,2.8984,2.8984,2.9153,2.9499,2.9375,2.9446,2.9867,2.9364,2.8766,2.8277,2.8206,2.7347,2.5594,2.586,2.4805,2.2652,2.1712,2.1132,2.0783,1.9781,1.8926,1.8096,1.6773,1.5974,1.5588,1.573,1.5784,1.5784,1.5784,1.5784,1.5784,2.5693,2.5693,2.5693,2.5693,2.5489,2.5159,2.4842,2.4296,2.3829,2.3466,2.3535,2.3407,2.3014,2.3288,2.3187,2.2419,2.3061,2.3345,2.2995,2.4169,2.5324,2.6305,2.7633,2.9042,3.0439,3.0596,3.0923,3.1344,3.056,3.0216,3.0261,2.9806,2.984,3.0274,3.035,3.0657,3.1215,3.1948,3.2531,3.2998,3.3031,3.326,3.3438,3.2811,3.2785,3.3124,3.3187,3.3174,3.3212,3.3784,3.3985,3.4073,3.4562,3.4718,3.4655,3.4085,3.3935,3.3859,3.3244,3.3162,3.3244,3.3545,3.2905,3.28,0.0,3.3961,3.2957,3.4423,3.566,3.6406,3.619,3.6964,3.7468,3.6821,3.5063,3.3381,3.2387,3.1096,2.9965,2.9209,2.9384,2.9369,2.9012,2.8984,2.8984,2.8984,2.8984,2.9153,2.9499,2.888,2.8918,2.9776,2.8709,2.8271,2.8473,2.7597,2.6777,2.5958,2.5336,2.4235,2.2704,2.2672,2.1887,2.0518,2.0105,1.9041,1.7611,1.7635,1.6908,1.5784,1.5778,1.5784,1.5784,1.5784,1.5784,1.5784,2.5693,2.5693,2.5693,2.5693,2.5586,2.5392,2.5004,2.4612,2.4174,2.3608,2.3466,2.3193,2.2584,2.2483,2.2309,2.197,2.2455,2.2821,2.2904,2.3627,2.456,2.5679,2.6851,2.7802,2.8459,2.9143,2.9638,2.9908,2.976,2.9706,2.9772,2.973,2.9626,2.9405,2.9524,2.9874,3.04,3.0827,3.1126,3.1379,3.2159,3.2017,3.1428,3.2118,3.2124,3.1796,3.2018,3.2102,0.0,3.2365,3.2654,3.2955,3.3194,3.3495,3.3658,3.3081,3.3156,3.337,3.3144,3.283,3.2704,3.3282,3.3307,3.3539,3.4928,3.4757,3.4674,3.5917,3.6755,3.7488,3.8126,3.8715,3.9116,3.9128,3.6964,3.4881,3.3755,3.1623,2.9901,2.9076,2.9131,2.9168,2.9003,2.8984,2.8984,2.8984,2.8984,2.9035,2.9213,2.9114,2.9037,2.8978,2.8446,2.8024,2.7734,2.7258,2.6788,2.6352,2.5718,2.495,2.3982,2.2945,2.1962,2.1175,2.0801,2.0127,1.9238,1.7955,1.7018,1.6379,1.5967,1.5784,1.5784,1.5784,1.5784,1.5784,2.5693,2.5693,2.5693,2.5693,2.5693,2.544,2.463,2.4269,2.3853,2.3121,2.2834,2.2611,2.2309,2.1798,2.1536,2.1705,2.1817,2.2133,2.2712,2.3215,2.3987,2.5038,2.6081,2.6901,2.7379,2.7956,2.8541,2.916,2.9004,2.9089,2.9405,2.9669,2.9506,2.8989,2.9174,2.9509,3.0033,3.0153,3.0314,3.0496,3.1433,3.1055,3.0132,3.1247,3.1228,3.0667,3.1213,3.1386,3.1386,3.1386,3.165,3.1989,3.1989,3.2378,3.2729,3.2152,3.229,3.2616,3.2616,3.2528,3.2591,3.3156,3.3721,3.4304,3.5019,3.5406,3.5876,3.6724,3.7241,3.7867,3.8689,3.9399,3.9956,4.0223,3.8385,3.6518,3.5286,3.2674,3.0536,2.9602,2.9213,2.8984,2.8984,2.8984,2.8984,2.8984,2.8984,2.8984,2.8984,2.9111,2.892,2.8348,2.8209,2.78,2.7179,2.7138,2.6933,2.6542,2.5965,2.5524,2.5118,2.323,2.2281,2.1996,2.1493,2.0937,2.0309,1.8573,1.7485,1.6889,1.6339,1.6015,1.5784,1.5784,1.5784,1.5784,0.0,2.5693,2.5693,2.5693,2.5693,2.5093,2.3316,2.282,2.2342,2.1473,2.1297,2.1536,2.2236,2.1481,2.1138,2.1634,2.1223,2.1313,2.2245,2.305,2.3739,2.422,2.5256,2.6526,2.8056,2.7361,2.7895,2.9764,2.862,2.8395,2.9128,2.937,2.9497,2.9485,2.9485,2.9777,3.027,3.0305,3.0575,3.1004,3.0993,3.0813,3.0416,2.9961,2.988,3.0146,3.1088,3.1386,3.1386,3.1386,3.1399,3.1411,3.1411,3.1788,3.2127,3.1574,3.1424,3.1436,3.1436,3.2227,3.3181,3.3734,3.4286,3.4978,3.6085,3.6133,3.6,3.603,3.6883,3.7424,3.6987,3.8371,3.951,3.9177,3.8874,3.8075,3.6578,3.4136,3.2107,3.0869,2.9726,2.8984,2.8984,2.8984,2.8984,2.8984,2.8984,2.8984,2.8984,2.8618,2.8339,2.82,2.8061,2.7693,2.7008,2.7269,2.7062,2.6402,2.5721,2.547,2.5506,2.3892,2.3041,2.2722,2.2066,2.1001,1.9753,1.9909,1.8809,1.699,1.699,1.648,1.5784,1.5784,1.5784,1.5784,0.0,0.0,2.5693,2.5693,2.5693,2.5179,2.3612,2.329,2.2864,2.188,2.1799,0.0,0.0,0.0,0.0,0.0,2.0605,2.1016,2.2217,2.2538,2.2986,2.3721,2.4064,2.4774,2.5913,2.5646,2.6069,2.7202,2.8023,2.8391,2.843,3.0028,3.0503,3.007,3.0537,3.088,3.1015,3.0829,3.0765,3.0675,3.0193,2.9614,2.9064,2.9147,2.9109,2.908,0.0,3.0188,3.0331,3.0331,3.0331,3.0331,3.0331,3.0457,3.057,3.0382,3.0583,3.1035,3.1738,3.2491,3.3382,3.4675,3.5094,3.5424,3.6231,3.6484,3.6331,3.5599,3.5497,3.5418,3.5053,3.5825,3.6854,3.7994,3.7856,3.7448,3.6845,3.5521,3.3721,3.1132,3.0888,3.0483,2.9122,2.8984,2.8874,2.8618,2.8838,2.8746,2.8205,2.8972,2.8816,2.7576,2.8341,2.7935,2.633,2.702,2.717,2.6658,2.6182,2.5214,2.3941,2.3432,2.2831,2.2114,2.1642,2.1164,2.0636,1.9641,1.8999,1.8611,1.7956,1.7552,1.7333,1.7458,1.7044,1.6298,0.0,0.0,0.0,2.5693,2.5693,0.0,0.0,0.0,0.0,0.0,0.0,0.0,0.0,0.0,0.0,0.0,0.0,2.0397,2.1534,2.2007,2.251,2.3032,2.3478,2.3932,2.4526,2.4535,2.4873,2.5595,2.6622,2.7208,2.7323,2.8715,2.922,2.9059,2.9591,3.0012,3.0356,3.0422,3.0364,3.0198,2.9885,2.9132,2.8259,2.8675,2.8602,0.0,2.8736,2.917,2.9585,2.9753,2.9792,2.9792,2.9792,2.9792,2.9829,3.003,3.047,3.1135,3.2215,3.3081,3.3972,3.5182,3.5646,3.5884,3.6046,3.6299,3.6206,3.5149,3.4582,3.415,3.36,3.4195,3.5065,3.6026,3.664,3.6978,3.6994,3.6064,3.4688,3.2792,3.235,3.1562,2.9813,2.9536,2.9114,2.8465,2.8627,2.848,2.7858,2.8665,2.8525,2.7261,2.7948,2.7599,2.6021,2.6655,2.6821,2.6465,2.6079,2.5026,2.3384,2.3062,2.2411,2.1569,2.1333,2.1075,2.0819,1.9883,1.9463,1.9309,1.8711,1.835,1.8133,1.8257,1.7738,1.6911,0.0,0.0,0.0,0.0,0.0,0.0,0.0,0.0,0.0,0.0,0.0,0.0,0.0,0.0,0.0,0.0,0.0,0.0,2.0204,2.1425,2.2153,2.2199,2.3213,2.383,2.3896,2.3896,2.425,2.4992,2.4656,2.4991,2.591,2.5743,2.6034,2.6726,2.6949,2.7555,2.8499,2.9126,2.9404,2.9448,2.9887,2.9226,2.8019,2.8455,2.8357,2.7893,2.7933,2.8391,2.9131,2.9624,2.9792,2.9792,2.9829,2.9829,2.9942,3.0495,3.1047,3.1712,3.2817,3.3922,3.4856,3.5408,3.5981,3.6263,3.5679,3.5775,3.5602,3.448,3.393,3.3402,3.2436,3.3325,3.4004,3.3433,3.5319,3.6937,3.7192,3.6016,3.5302,3.5601,3.393,3.2244,3.0937,3.0439,2.9728,2.8477,2.8361,2.8168,2.7785,2.7803,2.7629,2.7215,2.7094,2.673,2.5984,2.6092,2.6098,2.5848,2.5594,2.4869,2.3829,2.2871,2.1978,2.1177,2.1021,2.0727,2.0337,2.0564,2.0102,1.9279,1.9279,1.8819,1.8226,1.8226,1.8025,1.7645,0.0,0.0,0.0,0.0,0.0,0.0,0.0,0.0,0.0,0.0,0.0,0.0,0.0,0.0,0.0,0.0,0.0,0.0,1.9446,1.9612,2.0029,2.0767,2.1088,2.1703,2.2714,2.2723,2.2973,2.3476,2.4139,2.4625,2.491,2.5946,2.6616,2.7024,2.7455,2.79,2.8275,2.8019,2.7958,2.8028,2.8015,2.7705,2.7307,2.7894,2.7998,2.7921,2.807,2.8339,2.8709,2.9143,2.9507,2.9867,3.0281,3.0407,3.0507,3.1035,3.1888,3.2847,3.3508,3.45,3.542,3.6019,3.6304,3.615,3.5221,3.5053,3.4531,3.2572,3.1452,3.0498,2.9284,3.0422,3.1824,3.2594,3.553,3.7643,3.7462,3.8143,3.7732,3.5111,3.4851,3.3809,3.1082,3.0723,2.9882,2.8081,2.793,2.7627,2.6921,2.7893,2.8052,2.7057,2.7479,2.7081,2.5841,2.5782,2.561,2.5396,2.5912,2.5119,2.3145,2.3168,2.2354,2.1057,2.087,2.0699,2.0564,2.0246,2.0201,2.0292,2.011,1.9874,1.9737,1.9965,1.9401,1.8473,0.0,0.0,0.0,0.0,0.0,0.0,0.0,0.0,0.0,0.0,0.0,0.0,0.0,0.0,0.0,0.0,0.0,0.0,0.0,1.9345,1.9849,2.0393,2.0718,2.1275,2.2016,2.2025,2.2135,2.2373,2.2996,2.335,2.3451,2.4072,2.459,2.5063,2.5432,2.5817,2.6125,2.6144,2.6216,0.0,0.0,2.6287,2.6276,2.7023,2.7249,2.7208,2.7615,2.8018,2.8491,2.9391,2.9964,3.0476,3.0985,3.1417,3.18,3.234,3.3119,3.3922,3.4474,3.5253,3.5981,3.6329,3.6182,3.5809,3.4968,3.4392,3.3588,3.1979,3.0501,2.9261,2.8326,2.9189,3.0255,3.1005,3.4124,3.6506,3.6619,3.7801,3.7868,3.6048,3.5903,3.4945,3.2328,3.1434,3.0253,2.837,2.7995,2.7426,2.6628,2.7159,2.7194,2.6576,2.6533,2.6097,2.5246,2.5155,2.4998,2.482,2.4974,2.4278,2.2815,2.2723,2.2117,2.115,2.1069,2.0925,2.0826,2.051,2.051,2.0699,2.0518,2.0382,2.0337,2.0473,2.0056,1.9422,0.0,0.0,0.0,0.0,0.0,0.0,0.0,0.0,0.0,0.0,1.9279,1.9279,0.0,0.0,0.0,0.0,0.0,0.0,0.0,0.0,2.0226,2.0456,2.1051,2.1463,2.1553,2.1696,2.1741,2.1696,2.1696,2.183,2.2052,2.1616,2.1785,2.2353,2.2536,2.2877,2.3377,2.4026,2.4327,2.4488,2.4904,2.5041,2.5105,0.0,2.631,2.6155,2.6839,2.7534,2.8333,2.9784,3.0658,3.1208,3.1861,3.2578,3.3294,3.3803,3.4354,3.4893,3.537,3.5943,3.6405,3.6405,3.5956,3.5332,3.466,3.3765,3.2739,3.1744,3.0223,2.8929,2.8445,2.8823,2.9272,2.9565,3.2333,3.4726,3.5521,3.632,3.694,3.7316,3.6637,3.5568,3.3967,3.2466,3.0905,2.9277,2.834,2.7447,2.6545,2.6214,2.6019,2.5908,2.519,2.467,2.444,2.4377,2.427,2.4172,2.3645,2.3084,2.2638,2.206,2.1661,2.1392,2.1392,2.1293,2.1042,2.0997,2.0916,2.0744,2.0699,2.0518,2.0292,2.0292,2.0292,2.0187,0.0,0.0,0.0,0.0,0.0,0.0,0.0,0.0,0.0,1.9576,1.9279,1.9279,0.0,0.0,0.0,0.0,0.0,0.0,0.0,0.0,0.0,1.9637,1.9803,2.0175,2.0772,2.1597,2.1919,2.1696,2.1696,2.1741,2.1785,2.1696,2.183,2.2141,2.2176,2.2353,2.2608,2.2969,2.2872,2.2652,2.3833,2.4092,2.3973,2.5819,0.0,0.0,2.6113,2.6899,2.7836,2.9129,3.0229,3.1303,3.2524,3.3263,3.3815,3.4143,3.4782,3.537,3.547,3.5943,3.6405,3.6405,3.5956,3.514,3.3756,3.3083,3.2172,3.0082,2.9029,2.8262,2.7681,2.8163,2.908,3.0429,3.2794,3.4795,3.5701,3.6542,3.6897,3.6556,3.601,3.5276,3.4427,3.3312,3.2158,3.0936,2.9189,2.7555,2.6194,2.6271,2.6024,2.5335,2.4861,2.4523,2.4251,2.3762,2.3558,2.3634,2.3645,2.3177,2.2373,2.2482,2.2098,2.1392,2.1392,2.1347,2.1293,2.1096,2.0997,2.0907,2.0736,2.0518,2.0292,2.0292,2.0292,2.0187,0.0,0.0,0.0,0.0,0.0,0.0,2.3493,2.2835,2.1937,2.0336,1.9628,1.9279,1.9279,1.9279,1.9265,0.0,0.0,0.0,0.0,0.0,0.0,1.9183,2.005,2.0609,2.0817,2.1767,2.2176,2.2043,0.0,2.2043,2.2043,2.2043,2.2132,2.2264,2.2141,2.2141,2.222,2.222,2.2185,2.2185,2.2906,2.3159,2.3299,2.4734,0.0,0.0,2.539,2.6102,2.7129,2.8217,2.9374,3.073,3.2413,3.3493,3.418,3.4302,3.4913,3.5512,3.5518,3.5981,3.6405,3.6405,3.573,3.4735,3.3445,3.2536,3.151,2.9689,2.8782,2.8243,2.7936,2.8294,2.896,2.9922,3.2079,3.3863,3.4653,3.5642,3.6332,3.6317,3.583,3.5295,3.4681,3.3171,3.1893,3.1124,2.9322,2.788,2.6883,2.6035,2.5274,2.4705,2.4248,2.3987,2.384,2.333,2.3017,2.2858,2.2936,2.2639,2.197,2.2106,2.1969,2.1571,2.1437,2.1482,2.1517,2.1293,2.1195,2.1195,2.0961,2.069,2.0518,2.0518,2.0428,2.0206,0.0,0.0,0.0,0.0,0.0,0.0,2.3443,2.2685,2.1818,2.079,1.988,1.9301,1.9426,1.9316,1.9279,0.0,0.0,0.0,0.0,0.0,0.0,0.0,0.0,0.0,2.1212,0.0,0.0,2.2397,2.2397,0.0,0.0,0.0,0.0,0.0,2.222,2.2141,2.2141,2.2008,2.2008,0.0,0.0,2.2618,2.2891,0.0,0.0,0.0,0.0,2.5421,2.6621,2.7364,2.8485,2.9893,3.1668,3.3052,3.4003,3.3959,3.4613,3.5351,3.5408,3.5891,3.6405,3.6405,3.5529,3.4437,3.3332,3.2202,3.1032,2.9733,2.8958,2.8509,2.8479,2.8582,2.8849,2.934,3.0953,3.2508,3.3506,3.4547,3.5467,3.5991,3.5707,3.5216,3.4682,3.2897,3.1622,3.1197,2.9569,2.8266,2.7356,2.5628,2.4542,2.4211,2.3675,2.3407,2.3499,2.2931,2.2519,2.2282,2.219,2.1989,2.1696,2.1696,2.1696,2.1696,2.1517,2.1571,2.1696,2.1517,2.1437,2.1392,2.115,2.0916,2.0699,2.0744,2.06,2.0226,0.0,0.0,0.0,0.0,0.0,0.0,2.1336,2.1132,2.0746,1.9985,1.956,1.9441,1.9742,1.9455,1.9279,0.0,0.0,0.0,0.0,0.0,0.0,0.0,0.0,0.0,0.0,0.0,0.0,2.2397,2.2397,0.0,0.0,0.0,0.0,0.0,0.0,2.2353,2.2397,2.2618,0.0,0.0,0.0,0.0,0.0,0.0,0.0,0.0,0.0,2.5031,2.6565,2.6932,2.7843,2.9,3.0025,3.1455,3.2708,3.2474,3.3562,3.4878,3.4868,3.564,3.6405,3.6405,3.5529,3.4437,3.3332,3.2202,3.1085,3.0005,2.9289,2.8899,2.901,2.8649,2.8663,2.9594,2.9959,3.083,3.303,3.384,3.4504,3.5236,3.5283,3.4935,3.4119,3.3044,3.2388,3.2342,3.0508,2.8549,2.6535,2.5026,2.4248,2.4202,2.3409,2.3133,2.3489,2.2373,2.1961,2.2318,2.1916,2.1733,2.1696,2.1696,2.1696,2.1696,2.1696,2.1696,2.1696,2.1696,2.1562,2.1392,2.1347,2.1069,2.0699,2.0907,2.0826,2.0496,0.0,0.0,0.0,0.0,0.0,0.0,2.1836,2.1336,2.0865,2.0808,1.9889,1.9456,1.9779,1.9522,1.9279,1.9279,1.9279,0.0,0.0,0.0,0.0,0.0,0.0,0.0,0.0,0.0,2.2957,2.3258,2.3258,0.0,0.0,0.0,0.0,0.0,0.0,2.2618,2.2618,2.2441,0.0,0.0,0.0,0.0,0.0,0.0,0.0,0.0,0.0,0.0,2.5904,2.5922,2.685,2.8035,2.8398,2.9314,3.0422,3.1653,3.3077,3.4326,3.4706,3.5568,3.6405,3.6405,3.529,3.4022,3.3257,3.1964,3.0708,2.9942,2.9616,2.9477,2.9509,2.9372,2.9339,2.9829,2.9893,3.0537,3.248,3.2946,3.3516,3.4742,3.4649,3.4229,3.3641,3.265,3.18,3.1169,3.0117,2.8841,2.7416,2.5925,2.4831,2.4269,2.3391,2.2858,2.2767,2.2053,2.1769,2.1925,2.1769,2.1696,2.1696,2.1696,2.1696,2.1696,2.1696,2.1696,2.1696,2.1696,2.1651,2.1571,2.1437,2.1302,2.1114,2.1203,2.1105,2.0756,0.0,0.0,0.0,0.0,0.0,2.1038,2.1489,2.0936,2.0563,2.0905,1.9986,1.9456,1.9779,1.9522,1.9279,1.9279,1.9279,0.0,0.0,0.0,0.0,0.0,0.0,0.0,0.0,0.0,2.3511,2.3975,2.3975,2.3975,0.0,0.0,2.3286,2.3276,0.0,0.0,0.0,0.0,0.0,0.0,0.0,0.0,0.0,0.0,0.0,0.0,0.0,0.0,0.0,0.0,0.0,2.7267,2.7603,2.8092,2.8893,3.0438,3.2122,3.357,3.3979,3.5084,3.6119,3.6119,3.5002,3.3759,3.3206,3.18,3.0457,2.9905,2.9792,2.9792,2.9792,2.9792,2.98,2.9739,2.9843,3.0355,3.1648,3.2066,3.2735,3.3943,3.3716,3.3262,3.2897,3.1918,3.1008,3.0273,2.9881,2.9265,2.8243,2.7034,2.5762,2.4322,2.3549,2.2852,2.2327,2.2193,2.1989,2.1696,2.1696,2.1696,2.1696,2.1696,2.1696,2.1696,2.1696,2.1696,2.1696,2.1696,2.1696,2.1696,2.1517,2.1437,2.1401,2.1482,2.1257,2.0864,0.0,0.0,0.0,0.0,0.0,2.0534,1.948,1.9324,1.9448,1.9771,1.9536,1.9456,1.9779,1.9522,1.9279,1.9279,1.9279,0.0,0.0,0.0,0.0,0.0,0.0,0.0,2.5001,2.4639,2.4368,2.4414,2.4414,2.4414,2.4394,2.3975,2.3779,2.3769,0.0,0.0,0.0,0.0,2.2794,2.2759,0.0,0.0,2.2432,0.0,0.0,0.0,0.0,0.0,0.0,0.0,0.0,0.0,0.0,2.8351,2.8499,2.8616,3.0434,3.2412,3.2412,3.3953,3.5508,3.5508,3.468,3.3759,3.3206,3.18,3.0457,2.9905,2.9792,2.9792,2.9792,2.9792,2.9663,2.9182,2.9625,3.0114,3.0377,3.1332,3.2196,3.2665,3.2376,3.2011,3.1736,3.0812,3.0227,3.0216,3.0216,2.9735,2.8769,2.8244,2.6858,2.4404,2.3894,2.3229,2.2327,2.2834,2.2633,2.1696,2.1696,2.1696,2.1696,2.1696,2.1696,2.1696,2.1696,2.1696,2.1696,2.1696,2.1696,2.1696,2.1696,2.1562,2.1437,2.1607,2.1298,2.0725,0.0,0.0,0.0,0.0,0.0,0.0,2.0585,2.038,2.0252,1.9824,1.9529,1.9456,1.9779,1.9522,1.9367,1.9639,1.9403,0.0,0.0,0.0,0.0,2.3493,2.208,2.2093,2.3952,2.3396,2.368,2.4863,2.4863,2.4863,2.4844,2.4131,2.3789,2.3769,2.3286,2.3091,0.0,2.2882,2.2627,2.2318,0.0,2.2264,2.2397,0.0,0.0,0.0,0.0,0.0,0.0,0.0,0.0,0.0,0.0,0.0,0.0,2.8582,3.0028,3.1805,3.2167,3.3027,3.3859,3.3859,3.3018,3.2139,3.1964,3.0947,3.0005,2.9829,2.9792,2.9792,2.9792,2.9792,2.9866,3.0084,3.0139,3.0344,3.0984,3.1554,3.205,3.2416,3.2361,3.2606,3.3265,3.2076,3.1249,3.1307,3.094,3.0158,2.8769,2.8009,2.691,2.5346,2.4892,2.4092,2.2869,2.3033,2.2624,2.1696,2.1696,2.1696,2.1696,2.1696,2.1696,2.1696,2.1696,2.1696,2.1696,2.1696,2.1696,2.1696,2.1696,2.1651,2.1607,2.1696,2.1569,2.1359,0.0,0.0,0.0,0.0,0.0,0.0,2.0483,2.0285,2.0103,1.9655,1.9456,1.9404,1.961,1.9448,1.9403,1.9786,1.9632,0.0,0.0,0.0,0.0,2.2835,2.1633,2.1778,2.3682,2.2921,2.3426,2.5322,2.491,2.4919,2.5303,2.46,2.3997,2.3494,2.3386,2.3071,0.0,2.275,2.2539,2.2097,2.2097,2.2097,2.2132,0.0,0.0,0.0,0.0,0.0,0.0,0.0,0.0,0.0,0.0,0.0,0.0,0.0,2.957,3.0909,3.1461,3.2164,3.2754,3.2754,3.2064,3.1386,3.1386,3.0557,2.9792,2.9792,2.9792,2.9792,2.9792,2.9792,2.9905,3.0244,3.0338,3.0536,3.1047,3.1626,3.2015,3.2007,3.224,3.2611,3.3114,3.2128,3.1513,3.1782,3.0927,2.9929,2.8758,2.8012,2.7229,2.6373,2.569,2.48,2.3627,2.3617,2.3323,2.2775,2.2033,2.1909,2.2201,2.1865,2.1696,2.1696,2.1696,2.1696,0.0,2.1696,2.1595,2.1476,2.1632,2.1504,2.1257,2.1403,2.1353,2.1108,0.0,0.0,0.0,0.0,0.0,0.0,1.968,1.948,1.9376,1.9331,1.9279,1.9279,1.9279,1.9279,1.9463,1.9892,1.9815,0.0,0.0,1.9649,1.9902,2.0885,2.0885,2.1887,2.3939,2.2994,2.3552,2.5693,2.4707,2.4707,2.5577,2.5226,2.4344,2.3018,2.3556,2.3044,2.1828,2.252,2.2539,2.2141,2.2141,2.2008,0.0,0.0,0.0,0.0,0.0,0.0,0.0,0.0,0.0,0.0,0.0,0.0,0.0,0.0,0.0,0.0,0.0,3.1286,3.2039,3.2039,3.165,3.1273,3.1273,3.0507,0.0,2.9792,2.9792,2.9792,2.9792,2.9792,2.9792,2.9792,3.0218,3.057,3.0608,3.1537,3.2059,3.1759,3.2155,3.2269,3.1898,3.1294,3.1158,3.1746,3.0368,2.9261,2.8677,2.823,2.7748,2.7201,2.6351,2.5495,2.4616,2.4584,2.4584,2.4498,2.2731,2.2334,2.3052,2.2201,2.1776,2.1696,2.1696,2.1696,2.1696,2.1659,2.1456,2.1145,2.1467,2.1147,2.0567,2.0934,2.0721,2.0279,0.0,0.0,0.0,0.0,0.0,0.0,0.0,0.0,0.0,0.0,1.9279,1.9279,1.9279,1.9279,1.9762,0.0,0.0,0.0,0.0,2.1067,2.0911,2.0893,2.0885,2.154,2.2844,2.2643,2.3552,2.5693,2.543,2.502,2.4492,2.4919,2.4297,2.2878,2.3511,2.3411,2.2775,2.296,2.2882,2.2627,2.2627,2.2485,0.0,0.0,0.0,0.0,2.2141,2.2185,0.0,0.0,0.0,0.0,0.0,0.0,0.0,0.0,2.926,2.9817,2.9942,0.0,3.0357,3.0357,3.0269,3.0168,0.0,2.9967,2.9792,2.9792,2.9792,2.9792,2.9792,2.9792,2.9792,2.9792,2.9905,3.0131,3.0557,3.1537,3.2336,3.2689,3.2864,3.3071,3.3351,3.2141,3.145,3.1728,3.0292,2.9064,2.8215,2.8046,2.7748,2.7201,2.7015,2.6445,2.5495,2.5495,2.5158,2.4498,2.4059,2.3584,2.3096,2.2887,2.2369,2.1696,2.1696,2.1696,2.1668,2.1392,2.12,2.1089,2.0888,2.0686,2.053,2.0622,2.0656,2.0652,0.0,0.0,0.0,0.0,0.0,0.0,0.0,0.0,0.0,0.0,2.0783,2.0585,2.0086,2.0027,2.0216,0.0,0.0,0.0,2.152,2.1925,2.1635,2.0427,2.0723,2.1387,2.2484,2.2484,2.3294,2.4962,2.4962,2.4658,2.4137,2.4976,2.4593,2.3182,2.3119,2.3124,2.3091,2.3091,2.2969,2.2803,2.2803,0.0,0.0,0.0,0.0,0.0,2.1919,2.2008,0.0,2.2818,2.393,2.5115,0.0,0.0,0.0,0.0,2.9131,2.965,2.9753,2.9792,2.9792,2.9792,2.9792,2.9792,2.9792,2.9702,2.965,2.9792,2.9702,2.965,2.9792,2.9792,2.9792,2.9792,3.0005,3.0444,3.1235,3.1625,3.2139,3.3023,3.2842,3.2905,3.347,3.2302,3.1547,3.1624,3.0005,2.879,2.8312,2.7884,2.7506,2.7201,2.719,2.6974,2.6445,2.6008,2.5799,2.5737,2.4882,2.4445,2.4286,2.3477,2.2843,2.2334,2.1909,2.1696,2.1659,2.1282,2.0998,2.0814,2.0604,2.0292,1.998,2.0182,2.0292,2.0373,0.0,0.0,0.0,0.0,0.0,0.0,0.0,0.0,0.0,0.0,0.0,0.0,0.0,0.0,0.0,0.0,0.0,2.0688,2.1566,2.2341,2.1924,2.0127,2.0921,2.1836,2.2735,2.2735,2.3294,2.4344,2.4344,2.4245,2.4137,2.5226,2.5006,2.3651,2.2565,2.2387,2.2872,2.2731,2.2652,2.2618,2.2618,0.0,0.0,0.0,0.0,0.0,0.0,0.0,0.0,2.2052,2.3256,2.4754,2.4787,0.0,0.0,0.0,0.0,0.0,2.9663,2.9777,2.9814,2.9817,2.9753,2.974,2.974,2.9521,2.9431,2.9702,2.956,2.947,2.974,2.9895,2.9972,2.9972,3.0516,3.1193,3.2077,3.1888,3.1964,3.2842,3.2591,3.2466,3.2792,3.1997,3.1434,3.1276,2.9671,2.8627,2.8504,2.7748,2.7272,2.719,2.719,2.719,2.719,2.6393,2.6393,2.719,2.5653,2.521,2.5735,2.4082,2.3226,2.3052,2.2122,2.1696,2.165,2.1218,2.0824,2.0512,2.0383,1.9957,1.9387,1.9745,1.9934,1.9981,0.0,0.0,0.0,0.0,0.0,0.0,0.0,0.0,0.0,0.0,0.0,0.0,0.0,0.0,0.0,0.0,0.0,2.2592,2.2747,2.2081,2.1514,2.1154,2.274,2.3692,2.384,2.384,2.4402,2.543,2.543,2.4962,2.4137,2.5226,2.5207,2.4158,2.1928,2.1288,2.1872,2.1006,2.1105,2.1882,2.1882,0.0,0.0,0.0,0.0,0.0,0.0,0.0,0.0,2.1785,2.2984,2.4573,2.4766,0.0,0.0,0.0,0.0,0.0,2.9392,2.966,2.988,2.9827,2.9611,2.947,2.947,2.9314,2.9209,2.9431,2.9419,2.947,2.974,3.0305,3.072,3.072,3.1617,3.2285,3.2198,3.2566,3.2704,3.239,3.2704,3.2604,3.1738,3.1521,3.1091,3.029,2.9502,2.8738,2.8039,2.7887,2.7598,2.7231,2.719,2.719,2.719,2.7056,2.7056,2.719,2.6933,2.6445,2.5777,2.4734,2.3844,2.3052,2.2122,2.1696,2.1632,2.0882,2.0576,2.0448,1.9931,1.9669,1.9566,1.982,2.0038,2.0264,0.0,0.0,0.0,0.0,0.0,0.0,0.0,0.0,0.0,0.0,0.0,0.0,0.0,0.0,0.0,0.0,2.1482,2.2094,2.2698,2.229,2.2503,2.3678,2.4514,2.4402,2.3235,2.4492,2.5197,2.5265,2.5994,2.5742,2.4541,2.5323,2.5391,2.4709,2.3598,2.2973,2.2799,2.234,2.2255,2.2467,0.0,0.0,0.0,0.0,0.0,0.0,0.0,0.0,0.0,0.0,2.294,2.4531,2.4606,0.0,0.0,0.0,0.0,0.0,2.9197,2.9263,2.9392,2.9759,2.9995,2.9952,2.9372,2.9312,2.9475,2.9818,2.9871,3.0101,3.0746,3.1495,3.2093,3.2267,3.2424,3.2415,3.221,3.219,3.2177,3.2202,3.219,3.1964,3.1436,3.1135,3.0666,2.9943,2.9409,2.8934,2.859,2.8351,2.8122,2.7909,2.7679,2.7557,2.7557,2.7313,2.719,2.719,2.719,2.6962,2.6528,2.5631,2.4691,2.3833,2.342,2.294,2.2391,2.1608,2.1265,2.118,2.0493,1.9971,1.9636,1.999,2.0186,2.0342,0.0,0.0,0.0,0.0,0.0,0.0,0.0,0.0,0.0,0.0,0.0,0.0,0.0,0.0,0.0,0.0,2.1743,2.2291,2.2835,2.2885,2.3601,2.5274,2.543,2.4815,2.3384,2.5138,2.5888,2.5537,2.6468,2.6408,2.5431,2.5509,2.544,2.5258,2.4622,2.4011,2.3409,2.3229,2.298,2.2775,0.0,0.0,0.0,0.0,0.0,0.0,0.0,0.0,0.0,0.0,0.0,0.0,0.0,0.0,0.0,2.8059,2.8379,2.8724,2.8973,2.898,2.9019,2.9511,2.9931,3.009,2.9527,2.9681,3.0059,3.0611,3.0894,3.1312,3.1951,3.2707,3.3359,3.3754,3.3437,3.3091,3.2746,3.2371,3.2136,3.2177,3.1838,3.1486,3.1235,3.0846,3.0382,2.9829,2.9468,2.9221,2.9091,2.8816,2.859,2.851,2.8122,2.7973,2.8042,2.7476,2.719,2.719,2.719,2.719,2.719,2.6227,2.5453,2.4787,2.4584,2.4102,2.3384,2.2663,2.2296,2.2127,2.149,2.0752,2.0069,2.0459,2.0498,2.0381,0.0,0.0,0.0,0.0,0.0,0.0,0.0,0.0,0.0,0.0,0.0,0.0,0.0,0.0,0.0,0.0,2.4214,2.4971,2.4038,2.3989,2.4038,2.4196,2.4688,2.5246,2.5849,2.5994,2.6542,2.7384,2.7064,2.6945,2.6982,2.5625,2.5218,2.5635,2.3281,2.2274,2.2327,2.1492,2.1371,2.1784,2.1784,0.0,0.0,0.0,0.0,0.0,0.0,0.0,0.0,0.0,0.0,0.0,0.0,0.0,2.6569,2.7626,2.807,2.8327,2.8724,2.9048,2.9205,2.8934,2.8928,2.9168,3.0104,3.0562,3.1029,3.1727,3.2698,3.3324,3.2972,3.3436,3.4029,3.4608,3.5149,3.5198,3.4365,3.421,3.3669,3.2349,3.2177,3.1763,3.0771,3.0633,3.0382,2.9829,2.9753,2.9546,2.9131,2.9052,2.8907,2.851,2.8122,2.8082,2.8431,2.7626,2.719,2.719,2.719,2.719,2.719,2.6227,2.5777,2.5663,2.4829,2.4456,2.4372,2.395,2.3453,2.2989,2.2741,2.2121,2.1349,2.1387,2.1079,2.0566,0.0,0.0,0.0,0.0,0.0,0.0,0.0,0.0,0.0,0.0,0.0,2.447,2.447,0.0,0.0,0.0,2.4245,2.455,2.4137,2.4088,2.4402,2.5069,2.545,2.5936,2.6572,2.7173,2.7507,2.7606,2.743,2.7478,2.7657,2.6648,2.6194,2.6197,2.5044,2.4193,2.3555,2.3232,2.2892,2.2555,2.2555,2.2608,0.0,0.0,0.0,0.0,0.0,0.0,0.0,0.0,2.2334,2.327,2.4188,2.5295,2.6404,2.7557,2.803,2.8259,2.8538,2.8695,2.8835,2.9036,2.9245,2.9566,3.0363,3.1295,3.2071,3.2509,3.3351,3.4163,3.4589,3.445,3.4497,3.5254,3.5093,3.4945,3.5103,3.446,3.3741,3.3075,3.2335,3.1557,3.0685,3.0306,3.0018,2.9817,2.9792,2.9714,2.9546,2.9546,2.9468,2.9312,2.8538,2.837,2.8855,2.7699,2.7272,2.7638,2.7353,2.719,2.719,2.6839,2.6351,2.5819,2.606,2.5688,2.4835,2.4425,2.3942,2.3392,2.2653,2.2825,2.3367,2.2395,2.1911,2.1672,0.0,0.0,0.0,0.0,0.0,0.0,0.0,0.0,2.5693,0.0,0.0,0.0,0.0,2.5693,0.0,0.0,2.4609,2.4609,2.4609,2.4609,2.4913,2.5684,2.611,2.6572,2.7003,2.8024,2.8396,2.8052,2.8137,2.8157,2.8092,2.7431,2.6955,2.663,2.6245,2.5472,2.4414,2.4414,2.3881,2.3091,2.3091,2.2969,0.0,0.0,0.0,0.0,0.0,0.0,0.0,0.0,2.2122,2.2887,2.4102,2.5041,2.5977,2.7464,2.8002,2.8139,2.8431,2.851,2.8595,2.8967,2.9376,2.9919,3.0775,3.2111,3.3245,3.358,3.4193,3.4883,3.5528,3.5009,3.4687,3.5232,3.4989,3.4865,3.52,3.4483,3.3754,3.3212,3.241,3.1603,3.0788,3.0342,2.9998,2.9895,2.983,2.9792,2.9792,2.9792,2.9792,2.9792,2.8807,2.8542,2.9028,2.7717,2.7301,2.7834,2.7502,2.7261,2.719,2.719,2.6789,2.6076,2.6683,2.6329,2.5263,2.4987,2.4553,2.4,2.3356,2.3581,2.4138,2.3084,2.2553,2.2327,0.0,0.0,0.0,0.0,0.0,0.0,0.0,0.0,2.5693,2.5693,2.5693,0.0,0.0,0.0,0.0,0.0,2.5693,2.5693,2.5693,2.5693,2.5693,2.5693,2.6486,2.7003,2.7183,2.8466,2.9106,2.9117,2.9335,2.9085,2.8395,2.7867,2.7347,2.6907,2.6332,2.5462,2.4414,2.4414,2.3881,2.3091,2.3091,2.2969,2.2803,0.0,0.0,0.0,0.0,0.0,0.0,0.0,2.1696,2.2043,2.3897,2.4498,2.4967,2.7249,2.7893,2.8014,2.8391,2.851,2.851,2.851,2.9106,3.0074,3.1499,3.3089,3.4437,3.5002,3.5405,3.5624,3.552,3.4937,3.4476,3.4484,3.5058,3.5235,3.4612,3.4485,3.3964,3.2564,3.2421,3.2044,3.1114,3.0746,3.0482,3.0152,2.9895,2.9792,2.9792,2.9792,2.9792,2.9779,2.8807,2.851,2.8888,2.7691,2.7289,2.7678,2.7615,2.7459,2.7179,2.7179,2.6944,2.6501,2.6501,2.6175,2.5704,2.5704,2.5394,2.4923,2.5208,2.4488,2.3309,2.3298,2.2927,2.2402,0.0,0.0,0.0,0.0,0.0,0.0,0.0,0.0,2.5489,2.5684,2.5693,0.0,0.0,0.0,0.0,0.0,0.0,0.0,2.5693,2.5693,2.5878,2.6265,2.6678,2.7194,2.7752,2.8336,2.8772,2.9117,2.8666,2.843,2.8395,2.8055,2.762,2.7088,2.6812,2.5842,2.4414,2.4414,2.3881,2.3091,2.3091,2.3047,2.3013,0.0,0.0,0.0,0.0,0.0,0.0,0.0,0.0,0.0,2.3897,2.4498,2.4967,2.7249,2.7893,2.8014,2.8391,2.851,2.851,2.851,2.9106,3.0113,3.1639,3.2715,3.3717,3.4928,3.454,3.4129,3.4494,3.4086,3.3825,3.4413,3.4299,3.4455,3.5283,3.4646,3.3908,3.3394,3.2914,3.2281,3.1431,3.0771,3.0482,3.0723,2.9985,2.9677,3.0011,2.9869,2.9603,2.9202,2.8525,2.82,2.8348,2.7432,2.7017,2.7128,2.6938,2.68,2.6703,2.7209,2.6858,2.5957,2.6352,2.5968,2.5153,2.5315,2.5594,2.5847,2.5459,2.5052,2.4634,2.4143,2.3824,2.3604,0.0,0.0,0.0,0.0,0.0,0.0,2.5907,2.5674,2.5538,2.5684,2.5693,2.5693,0.0,0.0,0.0,0.0,0.0,0.0,2.5693,2.5878,2.6169,2.6496,2.6918,2.7431,2.7998,2.8243,2.8441,2.8492,2.8194,2.8092,2.8243,2.7951,2.7668,2.7336,2.7061,2.6182,2.4965,2.469,2.4106,2.3353,2.3188,2.3091,2.3101,0.0,0.0,0.0,0.0,0.0,0.0,0.0,0.0,0.0,2.3454,2.4188,2.4882,2.6693,2.7464,2.7829,2.8259,2.8379,2.8391,2.8471,2.8843,2.9636,3.125,3.2871,3.4205,3.5031,3.4365,3.3768,3.4133,3.3697,3.3473,3.3931,3.3727,3.379,3.4683,3.4157,3.3642,3.3545,3.3167,3.2668,3.2028,3.1479,3.1046,3.0872,3.0254,2.9782,2.9517,2.9478,2.9189,2.8612,2.8059,2.7819,2.7891,2.7266,2.697,2.7017,2.6772,2.6518,2.6225,2.6607,2.6281,2.5406,2.552,2.521,2.4648,2.5127,2.5389,2.5459,2.5329,2.5129,2.4798,2.434,2.42,2.4152,0.0,0.0,2.6907,2.686,0.0,0.0,2.6764,2.6159,2.5684,2.5693,2.5693,2.5693,0.0,0.0,0.0,2.5791,0.0,0.0,2.5791,2.6169,2.6448,2.6544,2.7299,2.782,2.7998,2.8243,2.8102,2.7584,2.7857,2.7951,2.7951,2.7715,2.7584,2.7584,2.7129,2.6568,2.583,2.5113,2.4431,2.3754,2.3266,2.3091,2.3091,2.3091,0.0,0.0,0.0,0.0,0.0,0.0,0.0,0.0,2.2799,2.3747,2.4712,2.5852,2.6816,2.7603,2.8059,2.8179,2.8259,2.8431,2.8586,2.9089,3.0494,3.3155,3.5238,3.5071,3.4548,3.4119,3.4119,3.3655,3.329,3.329,3.329,3.329,3.329,3.329,3.329,3.329,3.329,3.3171,3.2775,3.2525,3.1919,3.0871,3.072,3.0124,2.8887,2.8913,2.8712,2.8122,2.757,2.7374,2.7513,2.7177,2.7049,2.7132,2.6978,2.6527,2.5814,2.5756,2.5417,2.4889,2.4443,2.4259,2.4413,2.5071,2.4941,2.4424,2.5071,2.4906,2.4236,2.4236,2.4236,2.4225,0.0,0.0,2.7071,2.664,0.0,0.0,2.6235,2.5761,2.544,2.5684,2.5693,2.5693,2.5693,2.5693,0.0,2.6304,2.5927,0.0,2.6304,2.6024,2.6207,2.7003,2.7998,2.8373,2.7998,2.8045,2.7857,2.7357,2.7584,2.7678,2.7678,2.7631,2.7584,2.7594,2.7309,2.6698,2.583,2.5113,2.4431,2.3754,2.3266,2.3091,2.3091,2.3091,2.3057,0.0,0.0,0.0,0.0,0.0,0.0,0.0,2.2799,2.3747,2.4712,2.5852,2.6816,2.7563,2.7869,2.807,2.8219,2.8259,2.9334,3.0336,3.0241,3.2059,3.3753,3.3732,3.3607,3.3473,3.3473,3.3375,3.329,3.329,3.329,3.329,3.329,3.329,3.329,3.329,3.329,3.329,3.3171,3.2547,3.2196,3.2245,3.1516,3.0919,3.0491,2.9952,2.9143,2.8122,2.757,2.7173,2.6917,2.6973,2.6858,2.6556,2.6672,2.6429,2.5894,2.5934,2.5634,2.5124,2.4626,2.482,2.5462,2.5507,2.5483,2.5462,2.5518,2.5175,2.4646,2.449,2.4454,2.4418,0.0,0.0,0.0,0.0,0.0,0.0,0.0,0.0,2.5489,2.5489,2.5635,2.5693,2.5693,2.5693,0.0,0.0,2.5878,2.583,2.612,2.6207,2.6726,2.7715,2.842,2.8617,2.8196,2.8045,2.7809,2.7441,2.7452,2.7489,2.7584,2.7584,2.7726,2.7972,2.7594,2.7117,2.6504,2.5694,2.4869,2.4079,2.3614,2.3319,2.3091,2.3091,2.3091,2.3057,2.2564,0.0,0.0,0.0,0.0,0.0,0.0,0.0,2.4049,2.5316,2.6257,2.7062,2.7817,2.8099,2.8219,2.8299,2.9038,2.9781,2.9844,3.0738,3.1811,3.2687,3.3086,3.329,3.329,3.329,3.329,3.329,3.329,3.329,3.329,3.329,3.329,3.329,3.329,3.3361,3.3431,3.2966,3.2654,3.2569,3.2064,3.1326,3.0345,2.9741,2.8872,2.7707,2.717,2.6858,2.6679,2.6794,2.6863,2.685,2.6577,2.6198,2.5746,2.5913,2.5791,2.5517,2.5087,2.5123,2.5528,2.5298,2.5262,2.5323,2.5226,2.5036,2.4801,2.4574,2.449,2.4454,0.0,0.0,0.0,0.0,0.0,0.0,0.0,0.0,0.0,2.5382,2.5538,2.5645,2.5684,2.5684,2.5781,0.0,0.0,0.0,2.5917,2.6572,2.7384,2.8301,2.8617,2.8664,2.8395,2.8196,2.7951,2.7678,2.7489,2.7489,2.7678,2.7631,2.7867,2.8301,2.782,2.7487,2.7183,2.628,2.5391,2.4584,2.4122,2.3657,2.3222,2.3222,2.3178,2.3047,2.2618,2.2441,2.2353,2.1909,0.0,0.0,0.0,0.0,2.3347,2.4702,2.5652,2.6558,2.7846,2.8219,2.8259,2.8471,2.851,2.8697,2.9367,2.9626,3.0152,3.1673,3.2583,3.3206,3.3347,3.3396,3.3396,3.3396,3.3361,3.3361,3.3361,3.3326,3.3326,3.3361,3.3361,3.3431,3.364,3.3501,3.3192,3.264,3.2618,3.1796,2.9962,2.9429,2.8612,2.7377,2.6811,2.6555,2.6679,2.6679,2.6897,2.7248,2.6611,2.6164,2.5851,2.6013,2.6013,2.5861,2.5558,2.5382,2.5312,2.5052,2.4933,2.4897,2.4861,2.4861,2.4849,2.4634,2.4538,2.4514,0.0,0.0,0.0,0.0,0.0,0.0,0.0,0.0,0.0,0.0,2.5489,2.544,2.5684,2.5713,2.5994,2.6668,2.6544,2.6496,2.6716,0.0,0.0,2.8045,2.8513,2.8664,2.8395,2.8348,2.8196,2.7951,2.7904,2.7904,2.7951,2.7726,2.7773,2.8045,2.7726,2.7405,2.6993,2.6201,2.5612,2.5073,2.4594,2.4122,2.3711,2.3711,2.345,2.3057,2.2838,2.2618,2.2353,2.2141,2.1874,0.0,0.0,0.0,2.3347,2.4702,2.5766,2.6689,2.7874,2.8219,2.8259,2.8471,2.851,2.8578,2.8882,2.9316,2.9819,3.0241,3.1489,3.2797,3.3675,3.3827,3.3827,3.3827,3.3675,3.357,3.357,3.3396,3.3361,3.3536,3.357,3.364,3.3827,3.3827,3.3709,3.3452,3.3452,3.2779,3.1291,3.0296,2.9235,2.8019,2.7014,2.6555,2.6679,2.6679,2.6794,2.7045,2.6943,2.6875,2.6807,2.6841,2.6487,2.5898,2.5828,2.5723,2.5571,2.5512,2.5394,2.5206,2.5111,2.5111,2.517,2.4885,2.4754,2.4659,0.0,0.0,0.0,0.0,0.0,0.0,0.0,0.0,0.0,0.0,0.0,2.6149,2.5965,2.5907,2.5945,2.6004,2.5917,2.6062,2.663,2.7156,2.762,2.7987,2.8233,2.842,2.8617,2.8337,2.8139,2.7998,2.7857,2.7857,2.7998,2.7857,2.7904,2.7998,2.7726,2.7359,2.6959,2.6481,2.5886,2.52,2.4978,2.4594,2.4209,2.4209,2.3917,2.3493,2.3276,2.2925,2.2574,2.223,2.2185,2.222,2.183,0.0,0.0,0.0,2.565,2.6284,2.8051,2.8447,2.8379,2.8471,2.851,2.851,2.8618,2.8843,2.9223,2.9858,3.0557,3.1476,3.2818,3.3058,3.3234,3.3813,3.3827,3.3793,3.3793,3.3675,3.3675,3.3744,3.3793,3.3793,3.3896,3.3793,3.3709,3.3605,3.3501,3.2869,3.1582,3.0774,2.9645,2.8097,2.727,2.6782,2.6589,2.6589,2.6624,2.6705,2.6807,2.6829,2.6829,2.6739,2.6636,2.6499,2.6267,2.6094,2.5921,2.5676,2.55,2.5312,2.5465,2.543,2.5276,2.5111,2.4957,2.4718,0.0,0.0,0.0,0.0,0.0,0.0,0.0,0.0,0.0,0.0,0.0,2.662,2.6332,0.0,0.0,0.0,2.5858,2.6159,2.6736,2.7262,2.7678,2.7998,2.7998,2.8186,2.8606,2.8186,2.7998,2.7998,2.7809,2.7809,2.7998,2.7998,2.7998,2.7998,2.7867,2.7452,2.6904,2.676,2.6204,2.538,2.538,2.5115,2.4669,2.4669,2.438,2.396,2.3754,2.3416,2.3013,2.2662,2.2618,2.2627,2.2264,2.2264,0.0,0.0,0.0,2.6632,2.8303,2.8657,2.8538,2.851,2.851,2.851,2.851,2.851,2.8697,2.9471,2.9653,3.0203,3.1878,3.2362,3.2854,3.3868,3.3985,3.3951,3.3951,3.3931,3.3917,3.3951,3.3951,3.3985,3.402,3.3882,3.3764,3.373,3.3591,3.2915,3.1608,3.1043,2.9895,2.8079,2.7464,2.6973,2.6499,2.6499,2.6499,2.6499,2.6589,2.6658,2.6658,2.6555,2.6636,2.6841,2.6577,2.6358,2.6176,2.5886,2.5664,2.5558,2.5793,2.5781,2.5558,2.5418,2.5265,2.504,0.0,0.0,0.0,0.0,0.0,0.0,0.0,0.0,0.0,0.0,0.0,2.6332,2.6812,2.686,2.6955,2.7167,2.7357,2.7489,2.7536,2.7404,2.7536,2.7987,2.7998,0.0,2.8034,2.7987,2.7998,2.7998,2.7998,2.7998,2.7998,2.7998,2.7998,2.7987,2.8243,2.7728,2.6626,2.686,2.653,2.5853,2.5853,2.5591,2.5158,2.5158,2.4893,2.4456,2.4239,2.398,2.3754,2.3711,2.3144,2.253,2.3198,2.2925,2.2862,0.0,0.0,0.0,2.8538,2.8657,2.8724,2.855,2.851,2.851,2.851,2.851,2.851,2.859,2.8724,2.942,3.1204,3.2263,3.3192,3.4196,3.4196,3.4094,3.4094,3.3985,3.3951,3.4059,3.4094,3.4162,3.4346,3.4346,3.4278,3.4094,3.4059,3.3378,3.1778,3.1168,3.0002,2.8079,2.7464,2.6973,2.6499,2.6499,2.6499,2.6499,2.6499,2.6499,2.6499,2.6499,2.6499,2.6521,2.6658,2.6487,2.6201,2.6176,2.6164,2.6129,2.5968,2.6094,2.6277,2.5781,2.5688,2.5646,0.0,0.0,0.0,0.0,0.0,0.0,0.0,0.0,0.0,0.0,0.0,0.0,0.0,2.6918,2.6812,2.6524,2.6907,2.7156,2.7129,2.7357,2.7584,2.7726,2.7631,2.7668,2.7987,2.7809,2.7715,2.7715,2.7715,2.7715,2.7715,2.7715,2.7715,2.7773,2.782,2.7498,2.686,2.676,2.6433,2.5895,2.5895,2.5812,2.5633,2.5517,2.5242,2.4893,2.454,2.4239,2.4024,2.3721,2.358,2.3503,2.3319,2.3276,2.356,2.4935,2.6883,2.8542,2.8315,2.8605,2.8922,2.8724,2.8618,2.851,2.851,2.851,2.855,2.8657,2.8764,2.925,3.067,3.1636,3.2698,3.4162,3.4346,3.4312,3.4312,3.4244,3.4244,3.4278,3.4312,3.4264,3.4196,3.4196,3.4142,3.3985,3.3985,3.3325,3.1778,3.1528,3.0314,2.7947,2.7776,2.731,2.6499,2.6499,2.6499,2.6499,2.6499,2.6298,2.5946,2.6323,2.6298,2.5959,2.6391,2.643,2.6213,2.6302,2.6289,2.6233,2.6508,2.6461,2.6255,2.6151,2.6025,2.58,0.0,0.0,0.0,2.7309,0.0,2.7309,2.7309,2.7309,2.7309,2.7309,0.0,0.0,0.0,0.0,2.7003,2.662,2.687,2.7013,2.7034,2.7309,2.7499,2.7499,2.7357,2.7452,2.7762,2.7437,2.7259,2.7259,2.7103,2.703,2.703,2.729,2.7327,2.718,2.7337,2.7222,2.686,2.6838,2.6465,2.5895,2.5895,2.5895,2.5906,2.5728,2.5559,2.5295,2.4967,2.4711,2.4497,2.4272,2.4186,2.4143,2.3874,2.4003,2.438,2.4946,2.6637,2.8211,2.7983,2.8554,2.9118,2.8882,2.8685,2.8578,2.851,2.851,2.855,2.8657,2.8803,2.9223,3.0317,3.1057,3.2037,3.3707,3.423,3.4414,3.4414,3.4414,3.4414,3.4414,3.4414,3.4346,3.4196,3.4196,3.4162,3.4088,3.4054,3.3393,3.1876,3.1838,3.069,2.8046,2.7796,2.7343,2.6499,2.6499,2.6399,2.6197,2.6197,2.5908,2.5347,2.5737,2.5799,2.5611,2.6034,2.6255,2.6305,2.6314,2.6336,2.6405,2.6633,2.6633,2.644,2.6358,2.6267,2.6102,2.7309,2.7309,2.7309,2.7309,2.7309,2.7309,2.7309,2.7309,2.7309,2.7309,0.0,0.0,0.0,0.0,0.0,2.7594,2.7394,2.7309,2.7309,2.7309,2.7262,2.7262,2.7262,2.7262,2.7309,2.6806,2.6568,2.6615,2.6148,2.5875,2.593,2.6626,2.6743,2.6333,2.6785,2.6823,2.6594,2.7072,2.6704,2.5906,2.5906,2.5895,2.5895,2.5895,2.577,2.5612,2.5601,2.5433,2.5242,2.5517,2.4988,2.4327,2.4988,2.52,2.52,2.52,2.6423,2.777,0.0,0.0,0.0,2.891,2.8791,2.8764,2.855,2.851,2.851,2.851,2.8816,2.9314,3.0139,3.0607,3.1365,3.2897,3.3811,3.4366,3.4414,3.4414,3.4414,3.4414,3.4414,3.4414,3.4414,3.4414,3.4414,3.4414,3.4414,3.3729,3.2101,3.2177,3.1001,2.8392,2.7584,2.6973,2.6499,2.6499,2.621,2.5624,2.5598,2.5322,2.4788,2.4813,2.5109,2.5573,2.5611,2.5937,2.6499,2.6305,2.6396,2.6692,2.6336,2.6521,2.6943,2.6405,2.6405,2.6569,2.7309,2.7309,2.7309,2.7309,2.7309,2.7309,2.7309,2.7309,2.7309,0.0,0.0,0.0,2.7404,2.7394,2.7394,2.7394,2.7309,2.7214,2.7034,2.6996,2.6938,2.6736,2.6736,2.6794,2.6996,2.6535,2.6393,2.6615,2.6148,2.5875,2.5875,2.61,2.6146,2.6021,2.6347,2.6283,2.5885,2.6017,2.5937,2.5686,2.5686,2.578,2.5895,2.5738,2.5738,2.577,2.5422,2.538,2.5464,2.5338,2.5158,2.4935,2.4988,2.5263,2.5505,2.4861,2.6423,2.8143,2.7406,0.0,0.0,0.0,0.0,0.0,2.8764,2.8724,2.8724,2.8724,2.8803,2.9,2.9353,3.0126,3.082,3.1254,3.2563,3.3742,3.4312,3.4414,3.4414,3.4414,3.4414,3.4414,3.4414,3.4414,3.4414,3.4414,3.4414,3.3951,3.2928,3.1443,2.9924,2.8346,2.7584,2.6973,2.6499,2.6499,2.6411,2.6248,2.5799,2.5322,2.48,2.5209,2.5259,2.5051,2.5752,2.6224,2.6499,2.6521,2.6624,2.6679,2.6611,2.6645,2.676,2.6461,2.6393,2.642,2.7309,2.7309,2.7309,2.7309,2.7309,2.7309,2.7309,2.7309,2.7309,0.0,0.0,0.0,2.7129,2.7129,2.7081,2.6976,2.7081,2.7034,2.6747,2.6853,2.6805,2.6496,2.6496,2.6544,2.6747,2.6164,2.5977,2.6151,2.5592,2.5316,2.5326,2.5523,2.5502,2.5326,2.5667,2.5589,2.515,2.515,2.5338,2.5601,2.5601,2.5728,2.5906,2.578,2.5728,2.5728,2.5549,2.5464,2.5422,2.5464,2.5369,2.5158,2.4828,2.4978,2.5221,2.5105,2.6412,2.7879,2.7718,2.8621,2.956,2.9419,0.0,0.0,2.8961,2.8882,2.8791,2.8791,2.8791,2.8843,2.8961,2.9523,3.0088,3.0431,3.1415,3.2528,3.3742,3.3894,3.4031,3.4346,3.4414,3.4414,3.4414,3.4414,3.4414,3.4414,3.4414,3.3941,3.2879,3.1328,2.979,2.8346,2.7815,2.7196,2.6499,2.6327,2.6202,2.6135,2.5469,2.4886,2.4481,2.4544,2.4531,2.4474,2.4962,2.5407,2.5799,2.6047,2.6341,2.6589,2.6418,2.6418,2.6452,2.6151,2.6117,2.6148,0.0,2.7262,2.7309,2.7309,2.7262,2.7262,2.7262,2.7214,2.7214,0.0,2.7214,2.7119,2.69,2.6853,2.6747,2.6496,2.6699,2.6747,2.6448,2.6699,2.6699,2.64,2.64,2.6428,2.6426,2.5787,2.5422,2.5416,2.479,2.4454,2.4464,2.4921,2.489,2.4518,2.5051,2.5043,2.4658,2.4743,2.5126,2.5644,2.5559,2.5644,2.5812,2.5864,2.578,2.5601,2.5812,2.5601,2.5285,2.5686,2.5549,2.5115,2.47,2.4625,2.4818,2.5505,2.6442,2.7395,2.8131,2.9052,2.974,2.9509,2.9419,0.0,2.9157,2.9,2.8858,2.8758,2.8745,2.8733,2.8633,2.879,2.9153,2.9923,3.0215,3.0966,3.2777,3.3108,3.3451,3.4147,3.4274,3.4341,3.4399,3.4356,3.4341,3.4399,3.4414,3.381,3.2479,3.1688,3.0429,2.8603,2.83,2.767,2.6589,2.6211,2.5928,2.5653,2.4917,2.4414,2.4067,2.3521,2.3547,2.4004,2.3822,2.4133,2.4793,2.5137,2.5681,2.6377,2.6025,2.6015,2.6131,2.5758,2.5711,2.5875,2.6996,2.7177,2.7309,2.7309,2.7129,2.6996,2.6996,2.6784,2.664,2.664,2.664,2.664,2.6602,2.6602,2.6544,2.6496,2.6554,2.6448,2.6197,2.6245,2.6159,2.5878,2.5878,2.5904,2.5916,2.5301,2.4952,2.5013,2.4515,2.4249,2.4249,2.4504,2.459,2.454,2.5317,2.5634,2.5579,2.6287,2.6393,2.603,2.5327,2.5158,2.5369,2.5601,2.5644,2.5612,2.5644,2.5601,2.5517,2.538,2.5285,2.52,2.5073,2.5443,2.5768,2.5232,2.6577,2.8091,2.7516,2.8554,2.9792,2.974,2.9702,0.0,2.9392,2.9302,2.91,2.8527,2.8402,2.8229,2.7638,2.7677,2.7937,2.8381,2.862,2.9454,3.1542,3.2635,3.3192,3.3192,3.3484,3.3862,3.4356,3.3949,3.3862,3.437,3.4414,3.408,3.3325,3.2608,3.1561,3.0127,2.9547,2.8583,2.7061,2.6994,2.6663,2.6061,2.5434,2.4987,2.4625,2.4512,2.4318,2.4017,2.4149,2.4364,2.4618,2.4366,2.4876,2.5778,2.5864,2.6015,2.6131,2.5758,2.5606,2.5688,2.6699,2.6794,2.688,2.688,2.6784,2.6699,2.6699,2.6602,2.6496,2.6496,2.6496,2.6448,2.6294,2.6294,2.6255,2.612,2.6207,2.6207,2.5917,2.6004,2.5905,2.541,2.54,2.529,2.5129,2.4693,2.4681,2.5213,2.4876,2.4988,2.5505,2.5589,2.5684,2.581,2.6246,2.6442,2.6483,2.6894,2.6905,2.6629,2.6329,2.581,2.5242,2.5832,2.5801,2.538,2.538,2.5675,2.6041,2.6144,2.5935,2.5695,2.5558,2.5443,2.5359,2.5348,2.6494,2.7799,2.7799,2.8803,2.9792,2.9792,2.9792,0.0,0.0,2.9509,2.9305,2.8917,2.8542,2.8208,2.7812,2.7543,2.7493,2.7916,2.8078,2.8568,2.9834,3.1031,3.2024,3.2791,3.2797,3.3173,3.4274,3.3833,3.3765,3.4356,3.4414,3.4105,3.3401,3.3133,3.2206,3.0465,3.0069,2.9031,2.7229,2.7002,2.6607,2.605,2.5459,2.5016,2.4646,2.4646,2.4197,2.3449,2.3649,2.3703,2.3652,2.3611,2.3965,2.4623,2.5139,2.5401,2.5507,2.5473,2.5453,2.5453,2.6448,2.6448,2.6496,2.6496,2.6448,2.64,2.64,2.64,2.6362,2.6362,2.6362,2.6255,2.6052,2.6004,2.5965,2.5781,2.5917,2.5965,2.5781,2.5917,2.5758,2.5135,2.5248,2.5142,2.4617,2.4576,2.492,2.5613,2.5456,2.5852,2.673,2.6771,2.6894,2.711,2.7273,2.7354,2.7395,2.7557,2.7516,2.7395,2.7799,2.6905,2.5443,2.6351,2.6144,2.5401,2.5558,2.606,2.6682,2.7028,2.6753,2.6227,2.6235,2.5589,2.4988,2.5913,2.673,2.7557,2.8291,2.9131,2.9792,2.9792,2.9792,2.9792,0.0,0.0,0.0,2.9333,2.8807,2.8371,2.8222,2.7728,2.7419,2.7782,2.7928,2.8082,2.8294,2.918,3.044,3.2155,3.2145,3.2553,3.3973,3.3849,3.3862,3.437,3.4414,3.4114,3.346,3.3463,3.2717,3.0974,3.0618,2.9582,2.7754,2.7162,2.6595,2.606,2.5455,2.4997,2.4599,2.4488,2.3938,2.3034,2.3044,2.2884,2.2653,2.2894,2.3096,2.3357,2.4387,2.4815,2.4842,2.5189,2.5312,2.5312,2.6284,2.6352,2.6496,2.6496,2.6294,2.6149,2.6149,2.5917,2.5781,2.5781,2.5781,2.5781,2.5732,2.5732,2.582,2.6052,2.5878,2.582,2.6052,2.5868,2.5537,2.5135,2.5839,2.5986,2.5407,2.5935,2.6173,2.6107,2.6093,2.6257,2.6565,2.673,2.6894,2.7151,2.7971,2.8331,2.8383,2.917,2.904,2.8422,2.9209,2.8011,2.5872,2.6976,2.6835,2.6185,2.6946,2.7151,2.7069,2.7354,2.6905,2.6393,2.7493,2.7017,2.6227,2.7273,2.7931,2.8383,2.8462,2.9131,2.9792,2.9792,2.9792,2.9792,2.9792,0.0,2.9602,2.905,0.0,2.8625,2.7977,0.0,0.0,2.7358,2.7685,2.7948,2.7801,2.7917,2.8565,3.0151,3.1303,3.2263,3.2982,3.3802,3.4341,3.4399,3.4414,3.4351,3.4279,3.3775,3.3398,3.3155,3.1994,3.0828,2.9682,2.845,2.7425,2.6607,2.5881,2.5345,2.5022,2.4542,2.4,2.341,2.275,2.2481,2.242,2.2339,2.2344,2.252,2.4141,2.4815,2.4842,2.5189,2.5312,2.5312,2.6187,2.5975,2.6207,2.6791,2.6332,2.6235,2.7437,2.7531,2.7437,2.7437,2.7437,2.7437,2.7437,2.6924,2.6877,2.7709,2.6514,2.6284,2.7709,2.6726,2.6396,2.7003,2.6676,2.655,2.6689,2.6541,2.6685,2.7121,2.7121,2.7354,2.7839,2.7919,2.8119,2.8438,2.8858,2.9106,2.9287,2.9624,2.9585,2.93,2.9663,2.8831,2.7424,2.7879,2.7516,2.6835,2.7758,2.8011,2.8011,2.8633,2.8263,2.7649,2.8159,2.7597,2.6794,2.7273,2.7919,2.8502,2.8502,2.9131,2.9792,2.9792,2.9792,2.9792,2.9792,2.9792,2.9729,2.9478,0.0,0.0,0.0,0.0,0.0,0.0,2.8084,2.809,2.7898,2.7859,2.8376,2.9808,2.9876,3.048,3.2208,3.3611,3.4221,3.3758,3.4143,3.4187,3.3743,3.3931,3.3848,3.3518,3.2507,3.1319,3.0021,2.8993,2.7802,2.6517,2.6346,2.5623,2.4453,2.4551,2.3953,2.2866,2.2795,2.2568,2.2278,2.2216,2.2378,2.2782,2.3812,2.4232,2.4328,2.5046,2.5312,2.5312,2.7332,2.6924,2.7142,2.7866,2.7369,2.7379,2.8844,2.8993,2.8901,2.8901,2.8762,2.8727,2.8773,2.8251,2.8297,2.9223,2.7887,2.7699,2.9315,2.802,2.767,2.8645,2.7777,2.7491,2.7851,2.7548,2.7632,2.8251,2.8359,2.8727,2.9289,2.9289,2.9445,2.9651,2.9651,2.9793,2.9972,2.9972,2.9972,2.9972,2.9972,2.9521,2.8831,2.8581,2.8223,2.7931,2.8633,2.887,2.8961,2.965,2.9287,2.8581,2.8897,2.8319,2.7557,2.7839,2.8383,2.887,2.887,2.9326,2.9792,2.9792,2.9792,2.9792,2.9792,2.9792,2.9792,2.9792,2.9453,0.0,0.0,0.0,2.84,2.8612,0.0,2.827,2.7921,2.7698,2.7973,2.9024,2.9007,2.9714,3.1799,3.333,3.3804,3.2815,3.3463,3.3516,3.2702,3.357,3.3868,3.3419,3.2685,3.1754,3.0546,2.938,2.8208,2.6968,2.6744,2.5845,2.4431,2.4487,2.3814,2.2558,2.2718,2.2546,2.2197,2.2197,2.2426,2.2867,2.3541,2.3806,2.3926,2.4927,2.5312,2.5312,3.018,2.9954,2.9954,2.9999,2.9999,2.9999,3.0044,2.9659,2.9361,2.9361,2.8993,2.8773,2.8958,2.9385,2.9738,3.0045,3.0168,3.0303,3.044,2.9704,2.9331,2.9343,2.9355,2.9069,2.8592,2.9354,2.9635,2.9341,2.9729,3.0139,3.0532,3.0532,3.0482,3.0368,3.0368,3.0355,3.0368,3.0368,3.0368,3.0368,3.0368,3.0152,2.9663,2.8831,2.9,2.9714,2.9753,2.9753,2.9792,3.0011,2.9392,2.87,2.9973,2.9484,2.8661,2.9715,2.9895,2.9753,2.9753,2.9792,2.9792,2.9792,2.9792,2.9792,2.9792,2.9792,2.9792,2.9792,2.9779,2.9767,2.9767,2.9741,2.9527,2.8799,2.8623,0.0,0.0,2.6895,2.659,2.6961,2.9136,3.0961,3.1923,3.3049,3.3141,3.1671,3.2176,3.2199,3.1406,3.2544,3.3239,3.3225,3.2605,3.2177,3.1954,2.9859,2.8693,2.8427,2.7069,2.6126,2.5515,2.438,2.3517,2.2963,2.2469,2.2209,2.2197,2.2197,2.2197,2.2318,2.3396,2.3806,2.3926,2.4927,2.5312,2.5312,3.2955,3.2955,3.2556,3.1332,3.0551,3.0315,3.0977,3.1288,3.1594,3.1991,3.1896,3.1884,3.2103,3.166,3.1748,3.2679,3.1296,3.1018,3.2506,3.1196,3.0858,3.2007,3.1241,3.107,3.1625,3.1202,3.089,3.0777,3.0688,3.057,3.0393,3.0292,3.0266,3.0406,3.0406,3.0482,3.0609,3.0761,3.0798,3.0798,3.0647,3.0457,3.0152,2.9573,2.9546,2.9792,2.9792,2.9792,2.9792,2.9869,2.9663,2.9456,2.9882,2.9689,2.9417,2.9779,2.9869,2.9792,2.9792,2.9792,2.9792,2.9792,2.9792,2.9792,2.9792,2.9792,2.9792,2.9792,2.9792,2.9792,2.9792,2.9792,2.9729,2.9464,2.9426,2.9149,0.0,2.7607,2.7274,2.7597,2.9189,3.0216,3.0168,3.1116,3.1182,2.9954,3.0847,3.1261,3.0868,3.2335,3.3357,3.3718,3.2879,3.2481,3.2515,3.0821,2.9608,2.8812,2.792,2.7071,2.6284,2.5001,2.4129,2.361,2.3046,2.2757,2.2746,2.2746,2.3111,2.3773,2.4121,2.4482,2.4831,2.518,2.5312,2.5312,3.4356,3.4397,3.4008,3.2809,3.2066,3.1848,3.2494,3.2887,3.3203,3.3602,3.3569,3.3598,3.381,3.3407,3.3437,3.423,3.3016,3.2703,3.4021,3.2751,3.2502,3.3713,3.2755,3.2492,3.3234,3.2564,3.2045,3.172,3.1571,3.132,3.0985,3.0697,3.0621,3.071,3.0634,3.071,3.0911,3.0986,3.1099,3.1161,3.0849,3.0609,3.0457,3.0049,2.9869,2.9792,2.9792,2.9792,2.9792,2.9792,2.9792,2.9792,2.9792,2.9792,2.9792,2.9792,2.9792,2.9792,2.9792,2.9792,2.9792,2.9792,2.9792,2.9792,2.9792,2.9792,2.9792,2.9792,2.9792,2.9792,2.9792,2.9792,2.9792,2.9792,2.9616,2.9213,0.0,2.8102,2.7939,2.8079,2.9113,2.9655,2.9174,2.9918,2.9875,2.857,2.9661,3.0196,2.9707,3.1838,3.3205,3.3559,3.294,3.2657,3.2801,3.1343,3.0251,2.9549,2.8889,2.8148,2.7377,2.6235,2.5456,2.4966,2.4203,2.3866,2.3818,2.3703,2.401,2.4646,2.4808,2.5101,2.5395,2.5345,2.5312,2.5312,3.4439,3.4397,3.4397,3.4397,3.4384,3.4413,3.4439,3.4259,3.4134,3.416,3.3937,3.3894,3.416,3.4522,3.4758,3.4758,3.5141,3.5236,3.4839,3.4424,3.4243,3.4439,3.381,3.344,3.3409,3.3494,3.3066,3.2168,3.2385,3.2393,3.2182,3.178,3.1485,3.1272,3.1099,3.1123,3.1272,3.1136,3.1272,3.1556,3.0986,3.0736,3.0698,3.0267,3.0011,2.983,2.983,2.983,2.983,2.983,2.983,2.9792,2.9792,2.983,2.983,2.9792,2.9792,2.983,2.9792,2.9792,2.983,2.983,2.983,2.983,2.983,2.9792,2.9792,2.9792,2.9792,2.9792,2.9792,2.9792,2.9792,2.9792,2.934,2.8712,2.799,2.8363,2.8572,2.8356,2.9,2.9309,2.8974,2.9431,2.9127,2.7557,2.8657,2.9029,2.8095,3.1045,3.2771,3.2832,3.2803,3.2803,3.2832,3.1374,3.0642,3.0598,2.9872,2.9271,2.8753,2.7988,2.7356,2.6854,2.5836,2.5407,2.5369,2.5046,2.4911,2.4987,2.5489,2.5669,2.5599,2.5399,2.5312,2.5312,3.4439,3.4577,3.4618,3.4439,3.4181,3.4173,3.4649,3.4386,3.4349,3.4772,3.4908,3.5059,3.5263,3.5386,3.5426,3.5426,3.544,3.5358,3.5236,3.499,3.4867,3.4908,3.4743,3.4677,3.4655,3.4218,3.3754,3.3203,3.2686,3.2254,3.1963,3.172,3.1485,3.131,3.1397,3.141,3.131,3.1545,3.1803,3.2023,3.1693,3.1397,3.1123,3.0874,3.0571,3.0228,3.0075,3.0113,3.0254,3.0254,3.0152,3.0011,3.0011,3.0113,3.019,2.9908,3.0011,3.019,2.9869,3.0011,3.0254,3.0254,3.0254,3.0254,3.0254,3.0011,2.9792,2.9792,2.9792,2.9792,2.9792,2.9792,2.9792,2.9792,2.9666,2.9477,2.9301,2.9401,2.9399,2.9142,2.8821,2.8475,2.8126,2.7841,2.7356,2.6596,2.7672,2.8451,2.8601,3.0781,3.2426,3.3285,3.2702,3.2687,3.33,3.1946,3.1131,3.0881,3.021,2.9956,3.0083,2.8878,2.8298,2.8176,2.7462,2.6976,2.6723,2.6628,2.6667,2.681,2.6978,2.6662,2.6124,2.5533,2.5312,2.5312,3.4577,3.4756,3.4867,3.4743,3.4772,3.48,3.4784,3.4615,3.4538,3.4699,3.5116,3.5346,3.5197,3.548,3.571,3.571,3.5521,3.5358,3.5277,3.5086,3.4962,3.4962,3.5044,3.5113,3.5236,3.4741,3.4324,3.3989,3.2938,3.2313,3.2104,3.1591,3.1323,3.131,3.1323,3.1323,3.131,3.173,3.189,3.1927,3.189,3.1767,0.0,3.1136,3.0898,3.0748,3.0457,3.0381,3.0406,3.0406,3.033,3.0267,3.0343,3.0457,3.0495,3.0356,3.0495,3.0558,3.0152,3.0343,3.0634,3.0444,3.052,3.0672,3.0672,3.0343,3.0126,3.0279,3.0203,3.0088,3.0164,3.0126,3.0011,2.983,2.9792,2.9792,2.9792,2.9869,2.9895,2.9703,2.9324,2.9,2.8683,2.7545,2.6839,2.6934,2.7883,2.8677,2.9185,3.1319,3.2836,3.3484,3.3318,3.3318,3.3499,3.2452,3.1692,3.1219,3.0852,3.0763,3.0984,3.022,2.9898,2.987,2.9097,2.8617,2.8402,2.8116,2.813,2.8363,2.8214,2.7723,2.7035,2.6458,2.6057,2.5791,3.4797,3.4962,3.5059,3.4951,3.5512,3.5725,3.4867,3.4893,3.4855,3.4499,3.5049,3.5238,3.4687,3.5291,3.5669,3.5669,3.5521,3.5318,3.5127,3.4921,3.4839,3.4839,3.5044,3.5195,3.5358,3.4981,3.463,3.4325,3.3071,3.233,3.212,3.1395,3.1097,3.113,3.106,3.1123,3.131,3.1693,3.178,3.1646,3.1853,3.1927,3.1853,3.1323,3.1198,3.1235,3.0911,3.0647,3.0482,3.0482,3.0444,3.0482,3.066,3.0736,3.0773,3.0911,3.0986,3.0949,3.0596,3.0785,3.0973,3.0621,3.0823,3.1099,3.1099,3.0748,3.0596,3.0949,3.071,3.052,3.0698,3.0609,3.033,2.9895,2.9869,2.9908,2.9869,3.0049,3.0152,3.0152,3.005,0.0,2.982,2.802,2.7203,2.7933,2.8619,2.9215,2.968,3.2048,3.341,3.3499,3.3994,3.4054,3.3619,3.2796,3.2108,3.163,3.154,3.1511,3.1511,3.1511,3.1511,3.1438,3.0585,3.0151,3.0104,2.949,2.9411,2.9611,2.9223,2.8716,2.8149,2.7736,2.7217,2.671,3.4839,3.4962,3.4857,3.4014,3.5039,3.5633,3.4486,3.5302,3.6002,3.5936,3.575,3.5602,3.5494,3.5615,3.5642,3.548,3.544,3.5318,3.5127,3.5086,3.5044,3.5044,3.5236,3.5277,3.5154,3.4741,3.4191,3.3486,3.2627,3.1693,3.0755,3.1101,3.0911,3.0344,3.095,3.1272,3.131,3.1559,3.172,3.1853,3.2073,3.2036,3.189,3.178,3.1545,3.1272,3.1235,3.1061,3.0911,3.0911,3.0761,3.066,3.0698,3.0811,3.0911,3.0811,3.0986,3.1198,3.0949,3.1198,3.1482,3.1408,3.1445,3.1482,3.1482,3.1198,3.0911,3.0986,3.0949,3.0911,3.0949,3.0911,3.0723,3.0152,3.0318,3.047,3.0343,3.033,3.0368,3.0368,2.982,2.9526,2.9781,2.8629,2.8066,2.8524,2.8831,2.9218,2.9752,3.1638,3.2931,3.3484,3.308,3.332,3.4324,3.2572,3.1884,3.2303,3.1765,3.1511,3.1511,3.1511,3.1511,3.1511,3.1307,3.1087,3.0837,3.0703,3.0539,3.0342,2.9673,2.9348,2.9129,2.8247,2.8168,2.8427,3.4962,3.4792,3.4699,3.4977,3.5662,3.6081,3.5785,3.6436,3.6546,3.548,3.5467,3.544,3.5089,3.5453,3.5669,3.5562,3.5358,3.5195,3.5127,3.4867,3.4652,3.4484,3.4552,3.4633,3.4633,3.395,3.3656,3.3767,3.2467,3.1492,3.0863,3.1066,3.0747,3.0127,3.0837,3.1198,3.131,3.1522,3.172,3.1927,3.2109,3.2146,3.2036,3.1927,3.178,3.1582,3.1384,3.1235,3.1123,3.1061,3.0949,3.0874,3.0986,3.1099,3.1174,3.1149,3.1373,3.1545,3.1235,3.1532,3.1863,3.1629,3.1753,3.19,3.19,3.1606,3.1384,3.1582,3.1471,3.131,3.131,3.1235,3.1011,3.0647,3.066,3.066,3.0571,3.0571,3.0571,3.0571,3.0068,2.991,3.0381,2.9372,2.8976,2.955,2.9668,3.0013,3.0639,3.1825,3.2662,3.2976,3.3335,3.3499,3.3455,3.2856,3.2333,3.1974,3.1645,3.1511,3.1511,3.1511,3.1511,3.1511,3.1511,3.1409,3.1248,3.1248,3.1073,3.0762,3.0434,3.0269,3.0208,2.9594,2.9563,2.9656,3.5245,3.4899,3.4954,3.6029,3.6488,3.669,3.6797,3.7209,3.6901,3.517,3.5265,3.5265,3.4794,3.5318,3.5669,3.5602,3.5277,3.5044,3.4949,3.4605,3.4232,3.3844,3.3858,3.3939,3.4059,3.3177,3.3096,3.39,3.2199,3.1262,3.1088,3.0784,3.0385,2.998,3.0579,3.0952,3.1138,3.1505,3.1743,3.1927,3.2109,3.2218,3.2182,3.2036,3.189,3.178,3.1471,3.131,3.1198,3.1061,3.0986,3.1024,3.1198,3.1235,3.1272,3.1485,3.1633,3.173,3.1495,3.1767,3.2059,3.179,3.1986,3.2218,3.2218,3.1936,3.1827,3.2132,3.195,3.1716,3.1629,3.1532,3.1384,3.1061,3.0962,3.0849,3.0773,3.0773,3.0735,3.0605,3.0418,3.0435,3.0816,3.0128,2.9982,3.0759,3.0544,3.0763,3.1664,3.2348,3.2721,3.2721,3.3724,3.3844,3.2946,3.3021,3.2632,3.1705,3.157,3.1511,3.1511,3.1511,3.1511,3.1511,3.1511,3.1511,3.1511,3.1511,3.1351,3.1117,3.1117,3.1117,3.1058,3.0807,3.0687,3.0523,3.5765,3.586,3.586,3.6022,3.7102,3.7375,3.5802,3.6656,3.7228,3.6496,3.5981,3.5656,3.5602,3.5642,3.5562,3.5195,3.5127,3.4908,3.4481,3.4439,3.4149,3.3654,3.379,3.3831,3.3668,3.2919,3.2627,3.2856,3.1277,3.0494,3.0481,2.9787,2.9418,2.9415,3.0135,3.0458,3.057,3.1479,3.189,3.1927,3.2109,3.2218,3.2218,3.2182,3.1963,3.1609,3.1609,3.1336,3.1024,3.1024,3.0986,3.0986,3.1024,3.1024,3.1061,3.1272,3.1347,3.1421,3.178,3.189,3.1963,3.2096,3.2169,3.2218,3.2218,3.2169,3.2132,3.2182,3.2169,3.2023,3.1666,3.1863,3.1877,3.1136,3.1299,3.1373,3.1024,3.0986,3.0766,3.0207,3.062,3.0774,3.0392,3.0669,3.124,3.2134,3.1087,3.0956,3.2251,3.3012,3.341,3.341,3.3529,3.3814,3.4324,3.2587,3.1929,3.2392,3.1795,3.1511,3.1511,3.1511,3.1511,3.1511,3.1511,3.1511,3.1511,3.1511,3.1467,3.1438,3.1438,3.1438,3.1409,3.1087,3.097,3.0911,3.6614,3.6318,3.6291,3.727,3.7486,3.7367,3.675,3.7132,3.7091,3.6034,3.5778,3.571,3.571,3.571,3.5602,3.5318,3.5154,3.4962,3.466,3.4481,3.3992,3.3091,3.3131,3.3131,3.3051,3.2222,3.2154,3.2883,3.1565,3.0573,2.9949,3.0194,3.0307,3.0344,3.075,3.1016,3.1153,3.1539,3.178,3.189,3.1853,3.1853,3.1853,3.1853,3.1743,3.1559,3.1471,3.1323,3.1161,3.1061,3.0986,3.0986,3.0986,3.0986,3.1024,3.1099,3.1198,3.1347,3.1508,3.1936,3.2336,3.2059,3.2336,3.2588,3.2277,3.2109,3.2036,3.2036,3.1927,3.178,3.1633,3.1743,3.1877,3.1996,3.168,3.1532,3.1813,3.1347,3.095,3.073,3.0641,3.067,3.0888,3.1103,3.1735,3.2905,3.2056,3.1942,3.302,3.2958,3.308,3.3484,3.311,3.3036,3.3305,3.2512,3.2034,3.1899,3.163,3.1511,3.1511,3.1511,3.1511,3.1511,3.1511,3.1511,3.1511,3.1511,3.1511,3.1511,3.1511,3.1511,3.1467,3.1351,3.1307,3.1263,3.6679,3.6273,3.63,3.7717,3.7499,3.7107,3.7072,3.7045,3.6639,3.5452,3.544,3.5521,3.5521,3.5521,3.544,3.5236,3.5086,3.4921,3.4714,3.4494,3.3966,3.2999,3.2947,3.2947,3.2947,3.2134,3.2106,3.2922,3.1764,3.0827,3.0107,3.0608,3.0721,3.0527,3.0882,3.1095,3.1269,3.1492,3.1683,3.178,3.1646,3.1609,3.1609,3.1609,3.1559,3.1485,3.136,3.1272,3.1198,3.1061,3.0986,3.0986,3.0986,3.0986,3.0986,3.0986,3.1259,3.1542,3.1593,3.2273,3.2868,3.2538,3.2846,3.3129,3.2753,3.2574,3.2467,3.2467,3.2336,3.225,3.225,3.225,3.2395,3.2868,3.2367,3.2114,3.2583,3.2042,3.1608,3.1506,3.1281,3.1288,3.1613,3.1641,3.2132,3.3349,3.2887,3.2846,3.3468,3.3245,3.3215,3.3484,3.3036,3.2796,3.2796,3.2392,3.1959,3.1511,3.1511,3.1511,3.1511,3.1511,3.1511,3.1511,3.1511,3.1511,3.1511,3.1511,3.1511,3.1511,3.1511,3.1511,3.1511,3.1511,3.1511,3.1467,3.5482,3.5616,3.5857,3.6764,3.6914,3.67,3.61,3.6035,3.5793,3.5193,3.5127,3.5127,3.5127,3.5127,3.5044,3.4797,3.4797,3.4714,3.4439,3.4397,3.4162,3.36,3.3587,3.3587,3.3587,3.2986,3.2672,3.2685,3.1548,3.1086,3.127,3.0679,3.0017,2.9362,3.0069,3.0428,3.0467,3.1269,3.1609,3.1609,3.1609,3.1609,3.1609,3.1609,3.1485,3.131,3.131,3.1161,3.0986,3.0986,3.0986,3.0986,3.0986,3.0986,3.0986,3.0986,3.1505,3.2123,3.2331,3.2925,3.3541,3.3713,3.3796,3.3796,3.3796,3.3796,3.3796,3.3796,3.3796,3.3762,3.3762,3.3762,3.3713,3.3506,3.3471,3.3402,3.3213,3.3178,3.3002,3.2452,3.2834,3.2996,3.2542,3.2288,3.2549,3.3421,3.3419,3.3428,3.3499,3.4098,3.4189,3.3514,3.3484,3.3484,3.3484,3.2168,3.1511,3.1511,3.1511,3.1511,3.1511,3.1511,3.1511,3.1511,3.1511,3.1511,3.1511,3.1511,3.1511,3.1511,3.1511,3.1511,3.1511,3.1511,3.1511,3.1511,3.6518,3.6478,3.6575,3.6874,3.6914,3.67,3.6087,3.5993,3.5738,3.5001,3.488,3.4839,3.4647,3.4908,3.5003,3.4797,3.4797,3.4673,3.4397,3.4397,3.4162,3.3613,3.3587,3.3587,3.3587,3.262,3.2306,3.2685,3.1548,3.1024,3.1073,3.0472,3.0278,3.0487,3.0842,3.0995,3.1045,3.1281,3.1397,3.1397,3.1261,3.1482,3.1896,3.1384,3.1763,3.2519,3.2028,3.1809,3.1736,3.1736,3.1736,3.1736,3.1736,3.1394,3.1086,3.1603,3.1905,3.2218,3.2804,3.3492,3.3973,3.3679,3.3988,3.4259,3.3885,3.3679,3.3575,3.3437,3.3402,3.3402,3.3402,3.3402,3.3526,3.3973,3.363,3.3457,3.3905,3.3526,3.3162,3.3106,3.324,3.3303,3.3173,3.3549,3.3876,3.4141,3.4594,3.4651,3.4203,3.4399,3.4592,3.4861,3.3978,3.3499,3.3499,3.2632,3.1944,3.1511,3.1511,3.1511,3.1511,3.1511,3.1511,3.1511,3.1511,3.1511,3.1511,3.1511,3.1511,3.1511,3.1511,3.1511,3.1511,3.1511,3.1795,3.2168,3.6336,3.6125,3.5966,3.5966,3.5966,3.5846,3.5462,3.5409,3.5235,3.4713,3.466,3.4577,3.4397,3.466,3.4784,3.466,3.466,3.4577,3.4397,3.4397,3.4241,3.3914,3.3901,3.3901,3.3901,3.3182,3.2764,3.2685,3.1548,3.0986,3.0973,3.062,3.0647,3.1024,3.1123,3.1198,3.1198,3.1198,3.1198,3.1198,3.1371,3.1713,3.2074,3.1896,3.239,3.3143,3.2684,3.2506,3.2506,3.2506,3.2506,3.2506,3.2506,3.2196,3.1932,3.2376,3.2706,3.3024,3.3478,3.4158,3.4658,3.4322,3.4591,3.4839,3.4505,3.4322,3.4221,3.407,3.407,3.407,3.407,3.407,3.4206,3.4691,3.4341,3.4206,3.4691,3.4341,3.411,3.4178,3.42,3.4201,3.4261,3.4382,3.4503,3.4503,3.4876,3.4936,3.4533,3.4758,3.4936,3.5115,3.4307,3.3858,3.3858,3.2961,3.2273,3.1869,3.163,3.1511,3.1511,3.1511,3.1645,3.1854,3.1615,3.1645,3.1854,3.16,3.1511,3.1511,3.1511,3.1511,3.1511,3.1511,3.1914,3.2512,3.5142,3.4816,3.445,3.441,3.4437,3.445,3.441,3.4397,3.4397,3.4397,3.4397,3.4397,3.4397,3.4397,3.4397,3.4397,3.4397,3.4397,3.4397,3.4358,3.4358,3.4397,3.4358,3.4358,3.4397,3.4319,3.3718,3.2568,3.1509,3.0986,3.0986,3.0986,3.0986,3.0986,3.0986,3.0986,3.0986,3.0986,3.0986,3.1048,3.1736,3.2074,3.2254,3.2861,3.3213,3.3367,3.3297,3.3297,3.3297,3.3297,3.3297,3.3297,3.3297,3.3318,3.3367,3.3283,3.3768,3.4312,3.438,3.4938,3.5504,3.5504,3.5504,3.5504,3.5504,3.5504,3.5504,3.5504,3.5504,3.5504,3.5504,3.5504,3.5504,3.5504,3.5504,3.5504,3.5504,3.5504,3.5504,3.5504,3.5504,3.5504,3.5504,3.4921,3.4578,3.4578,3.4578,3.4578,3.4578,3.516,3.5205,3.4593,3.4578,3.4563,3.4503,3.326,3.2602,3.2497,3.1869,3.157,3.157,3.1615,3.1974,3.2512,3.1854,3.1914,3.2437,3.178,3.1511,3.1511,3.1511,3.1511,3.1511,3.1511,3.1944,3.2557,3.4672,3.4868,3.4933,3.4476,3.4776,3.4933,3.4463,3.4397,3.4397,3.4397,3.4397,3.4397,3.4397,3.4397,3.4397,3.4397,3.4397,3.4397,3.4397,3.4018,3.3966,3.4384,3.4005,3.3979,3.4384,3.3548,3.2542,3.1392,3.1117,3.0986,3.0986,3.0986,3.0986,3.0986,3.0986,3.0986,3.0986,3.0986,3.0986,3.1024,3.1185,3.1919,3.2897,3.2506,3.3437,3.4902,3.4259,3.4027,3.4027,3.4027,3.4027,3.4027,3.4027,3.4442,3.482,3.4225,3.4177,3.4428,3.5052,3.5359,3.5504,3.5504,3.5504,3.5504,3.5504,3.5504,3.5504,3.5504,3.5504,3.5504,3.5504,3.5504,3.5504,3.5504,3.5504,3.5504,3.5504,3.5504,3.5504,3.5504,3.5504,3.5504,3.5504,3.5355,3.5265,3.5265,3.5265,3.5265,3.5265,3.5415,3.5429,3.5265,3.5265,3.5011,3.4503,3.4204,3.3499,3.2512,3.2333,3.2243,3.2273,3.2796,3.311,3.323,3.2557,3.2333,3.2437,3.178,3.1511,3.1511,3.1511,3.1511,3.1511,3.1511,3.2243,3.326,3.4816,3.5077,3.5103,3.4502,3.4894,3.509,3.4489,3.4397,3.4397,3.4397,3.4397,3.4397,3.4397,3.4397,3.4397,3.4397,3.4397,3.4397,3.4397,3.4123,3.3979,3.4031,3.3979,3.3979,3.4031,3.3417,3.2542,3.1378,3.1117,3.0986,3.0986,3.0986,3.0986,3.0986,3.0986,3.0986,3.0986,3.0986,3.1185,3.1529,3.1859,3.2698,3.3699,3.3679,3.4438,3.5424,3.5019,3.4839,3.4839,3.4839,3.4839,3.4839,3.4839,3.5166,3.5392,3.4986,3.4839,3.4938,3.5392,3.5504,3.5504,3.5504,3.5504,3.5504,3.5504,3.5504,3.5504,3.5504,3.5504,3.5504,3.5504,3.5504,3.5504,3.5504,3.5504,3.5504,3.5504,3.5504,3.5504,3.5504,3.5504,3.5504,3.5504,3.5504,3.5504,3.5504,3.5504,3.5504,3.5504,3.5504,3.5504,3.5504,3.5504,3.5325,3.4951,3.4668,3.3994,3.2961,3.2961,3.2961,3.2976,3.3335,3.3664,3.3888,3.2931,3.2677,3.2886,3.1899,3.1511,3.1511,3.1511,3.1511,3.154,3.1839,3.2617,3.3544,3.5064,3.5234,3.5103,3.4502,3.4894,3.509,3.4489,3.4397,3.4397,3.4397,3.4397,3.4397,3.4397,3.4397,3.4397,3.4397,3.4397,3.4358,3.428,3.4188,3.3927,3.347,3.3901,3.3966,3.36,3.3496,3.2881,3.168,3.1322,3.1161,3.1161,3.1259,3.1334,3.1334,3.1334,3.1334,3.1334,3.1334,3.1676,3.2326,3.2932,3.363,3.438,3.5052,3.5392,3.5504,3.5504,3.5504,3.5504,3.5504,3.5504,3.5504,3.5504,3.5504,3.5504,3.5504,3.5504,3.5504,3.5504,3.5504,3.5504,3.5504,3.5504,3.5504,3.5504,3.5504,3.5504,3.5504,3.5504,3.5504,3.5504,3.5504,3.5504,3.5504,3.5504,3.5504,3.5504,3.5504,3.5504,3.5504,3.5504,3.5504,3.5504,3.5504,3.5504,3.5504,3.5504,3.5504,3.5504,3.5504,3.5504,3.5504,3.5504,3.5504,3.5504,3.4848,3.4219,3.3649,3.3649,3.3649,3.3649,3.3754,3.4098,3.4593,3.323,3.2976,3.3395,3.2049,3.1511,3.1511,3.1511,3.157,3.172,3.2273,3.2991,3.3724,3.4515,3.4946,3.5103,3.4502,3.4894,3.509,3.4489,3.4397,3.4397,3.4397,3.4397,3.4397,3.4397,3.4397,3.4397,3.4397,3.4397,3.4201,3.3744,3.3247,3.2921,3.2829,3.2908,3.3156,3.3587,3.3091,3.2267,3.1117,3.1643,3.1942,3.1942,3.2555,3.2875,3.2875,3.2875,3.2875,3.2875,3.2875,3.2932,3.3038,3.3143,3.363,3.4312,3.4461,3.4905,3.5504,3.5504,3.5504,3.5504,3.5504,3.5504,3.5504,3.5504,3.5504,3.5504,3.5504,3.5504,3.5504,3.5504,3.5504,3.5504,3.5504,3.5504,3.5504,3.5504,3.5504,3.5504,3.5504,3.5504,3.5504,3.5504,3.5504,3.5504,3.5504,3.5504,3.5504,3.5504,3.5504,3.5504,3.5504,3.5504,3.5504,3.5504,3.5504,3.5504,3.5504,3.5504,3.5504,3.5504,3.5504,3.5504,3.5504,3.5504,3.5504,3.5504,3.4848,3.4459,3.4354,3.4354,3.4354,3.4369,3.4921,3.525,3.5265,3.3933,3.3395,3.3395,3.2049,3.1511,3.1511,3.1511,3.1854,3.2348,3.2452,3.3275,3.4369,3.4463,3.4881,3.5103,3.4502,3.4894,3.509,3.4489,3.4397,3.4397,3.4397,3.4397,3.4397,3.4397,3.4397,3.4397,3.4397,3.484,3.4683,3.3667,3.3326,3.2894,3.2228,3.2529,3.287,3.3247,3.3006,3.2433,3.1603,3.234,3.2506,3.211,3.2861,3.3178,3.3178,3.3178,3.3178,3.3178,3.3178,3.3422,3.3788,3.3788,3.4259,3.4953,3.4953,3.518,3.5504,3.5504,3.5504,3.5504,3.5504,3.5504,3.5504,3.5504,3.5504,3.5504,3.5504,3.5504,3.5504,3.5504,3.5504,3.5504,3.5504,3.5504,3.5504,3.5504,3.5504,3.5504,3.5504,3.5504,3.5504,3.5504,3.5504,3.5504,3.5504,3.5504,3.5504,3.5504,3.5504,3.5504,3.5504,3.5504,3.5504,3.5504,3.5504,3.5504,3.5504,3.5504,3.5504,3.5504,3.5504,3.5504,3.5504,3.5504,3.5504,3.5504,3.519,3.5026,3.5026,3.5026,3.5026,3.504,3.5355,3.5504,3.5429,3.4083,3.3694,3.3903,3.2183,3.1705,3.2034,3.2034,3.2213,3.2602,3.3305,3.3963,3.4563,3.4515,3.4763,3.4946,3.4476,3.4776,3.4933,3.4463,3.4397,3.4397,3.4397,3.4397,3.4397,3.4397,3.4397,3.4481,3.4675,3.5305,3.5264,3.4233,3.4033,3.3304,3.185,3.241,3.2916,3.3189,3.304,3.2785,3.2362,3.2932,3.3003,3.2635,3.3388,3.3782,3.3837,3.3837,3.3837,3.3837,3.3837,3.4109,3.4576,3.4576,3.4953,3.5504,3.5504,3.5504,3.5504,3.5504,3.5504,3.5504,3.5504,3.5504,3.5504,3.5504,3.5504,3.5504,3.5504,3.5504,3.5504,3.5504,3.5504,3.5504,3.5504,3.5504,3.5504,3.5504,3.5504,3.5504,3.5504,3.5504,3.5504,3.5504,3.5504,3.5504,3.5504,3.5504,3.5504,3.5504,3.5504,3.5504,3.5504,3.5504,3.5504,3.5504,3.5504,3.5504,3.5504,3.5504,3.5537,3.5619,3.5634,3.5634,3.5634,3.5537,3.5504,3.5504,3.5504,3.5504,3.5504,3.5504,3.5504,3.5504,3.5504,3.5504,3.5429,3.4247,3.4008,3.4384,3.2677,3.2258,3.2736,3.2736,3.2841,3.3095,3.4098,3.4608,3.4801,3.4515,3.4437,3.445,3.441,3.4437,3.445,3.441,3.4397,3.4397,3.4397,3.4397,3.4397,3.4397,3.4397,3.4716,3.5548,3.5669,3.577,3.5913,3.5339,3.4053,3.1901,3.2537,3.3209,3.3709,3.3257,3.3042,3.3108,3.3178,3.3526,3.4177,3.4953,3.5507,3.5799,3.5799,3.5799,3.5799,3.5799,3.5653,3.5392,3.5392,3.5439,3.5504,3.5504,3.5504,3.5504,3.5504,3.5504,3.5504,3.5504,3.5504,3.5504,3.5504,3.5504,3.5504,3.5504,3.5504,3.5504,3.5504,3.5504,3.5504,3.5504,3.5504,3.5504,3.5504,3.5504,3.5504,3.5504,3.5504,3.5504,3.5504,3.5504,3.5504,3.5504,3.5504,3.5504,3.5504,3.5504,3.5504,3.5504,3.5504,3.5504,3.5504,3.5504,3.5504,3.5504,3.5504,3.5619,3.5941,3.5973,3.5973,3.5973,3.5651,3.5504,3.5504,3.5504,3.5504,3.5504,3.5504,3.5504,3.5504,3.5504,3.5504,3.5459,3.4726,3.4459,3.4444,3.3664,3.338,3.3425,3.3425,3.3799,3.4369,3.4474,3.4876,3.5429,3.4515,3.4397,3.4397,3.4397,3.4397,3.4397,3.4397,3.4397,3.4397,3.4397,3.4397,3.4397,3.4397,3.4397,3.4758,3.5629,3.6162,3.6484,3.661,3.6522,3.5319,3.2787,3.25,3.2959,3.408,3.3924,3.3823,3.3871,3.439,3.4524,3.4312,3.5133,3.5683,3.6005,3.5765,3.5925,3.6289,3.5861,3.5876,3.6084,3.5666,3.5619,3.5797,3.5602,3.5504,3.5504,3.5504,3.5504,3.5537,3.5733,3.5683,3.5537,3.5733,3.5651,3.5504,3.5504,3.5651,3.5765,3.5569,3.5504,3.5504,3.5504,3.5504,3.5504,3.5504,3.5504,3.5504,3.5504,3.5651,3.5733,3.5537,3.5683,3.5733,3.5537,3.5504,3.5504,3.5504,3.5504,3.5504,3.5504,3.5504,3.5504,3.5504,3.5504,3.5504,3.5504,3.5504,3.5651,3.5973,3.6195,3.6304,3.6304,3.6178,3.5908,3.5504,3.5504,3.5504,3.5504,3.5504,3.5504,3.5504,3.5504,3.5504,3.5474,3.4771,3.4758,3.504,3.3948,3.3739,3.4098,3.4098,3.4294,3.4563,3.5048,3.5347,3.5537,3.4515,3.4397,3.4397,3.4397,3.4397,3.4397,3.4397,3.4397,3.4397,3.4397,3.4397,3.4522,3.4799,3.4799,3.5264,3.6373,3.6986,3.741,3.7677,3.7438,3.6367,3.419,3.3455,3.3684,3.4873,3.4516,3.4428,3.4677,3.4986,3.4986,3.4677,3.5246,3.5748,3.6132,3.5812,3.6035,3.6616,3.594,3.5988,3.6429,3.578,3.5716,3.5973,3.5619,3.5504,3.5504,3.5619,3.5651,3.5716,3.6037,3.5988,3.5844,3.6068,3.5925,3.5651,3.5651,3.5829,3.5973,3.5844,3.5748,3.5619,3.5537,3.5504,3.5504,3.5504,3.5504,3.5504,3.5504,3.578,3.5925,3.5716,3.5925,3.6052,3.5716,3.5651,3.5619,3.5504,3.5504,3.5504,3.5504,3.5504,3.5504,3.5504,3.5504,3.5504,3.5504,3.5587,3.5844,3.6289,3.6647,3.677,3.6662,3.6662,3.6382,3.5812,3.5812,3.5748,3.5651,3.5651,3.5587,3.5504,3.5504,3.5504,3.5474,3.4996,3.507,3.5429,3.4517,3.4397,3.4801,3.4801,3.4801,3.4878,3.5424,3.5604,3.5604,3.4515,3.4439,3.4439,3.4439,3.4439,3.4439,3.4439,3.4439,3.4439,3.4439,3.4439,3.4758,3.5629,3.5709,3.6373,3.8037,3.8202,3.8538,3.9352,3.8105,3.6958,3.6175,3.5597,3.5561,3.6193,3.498,3.471,3.5504,3.471,3.4725,3.5504,3.5504,3.5876,3.6492,3.6132,3.6367,3.6954,3.6289,3.6195,3.646,3.578,3.5716,3.5973,3.5619,3.5504,3.5537,3.5893,3.6005,3.6037,3.6398,3.6492,3.6492,3.6492,3.6273,3.6005,3.6005,3.6005,3.6068,3.6398,3.6273,3.5925,3.5602,3.5504,3.5504,3.5504,3.5504,3.5504,3.5504,3.5765,3.6005,3.6005,3.6273,3.6398,3.6068,3.6005,3.5878,3.5569,3.5504,3.5504,3.5504,3.5504,3.5504,3.5504,3.5504,3.5504,3.5504,3.5797,3.6304,3.6969,3.7331,3.7361,3.6999,3.6999,3.6847,3.6523,3.6492,3.632,3.6005,3.6005,3.5829,3.5504,3.5504,3.5504,3.5504,3.5504,3.5504,3.5504,3.5504,3.5504,3.5504,3.5504,3.5504,3.5504,3.5504,3.5604,3.5688,3.5345,3.5776,3.6148,3.6148,3.6148,3.6148,3.6148,3.6148,3.6148,3.6148,3.6148,3.6267,3.6503,3.6543,3.6986,3.8113,3.8202,3.8538,3.9352,3.8999,3.8662,3.8443,3.6412,3.5648,3.6393,3.5563,3.5246,3.5504,3.5246,3.5246,3.5504,3.5504,3.5876,3.6492,3.6132,3.6507,3.7301,3.6647,3.6677,3.7135,3.646,3.6273,3.6304,3.5988,3.5701,3.5504,3.5619,3.5797,3.6037,3.6398,3.6492,3.6492,3.6492,3.6273,3.6037,3.6289,3.6367,3.6367,3.646,3.6585,3.6554,3.5988,3.5683,3.5554,3.5797,3.5861,3.5925,3.6147,3.646,3.6616,3.6398,3.6616,3.6754,3.6398,3.6132,3.5973,3.5861,3.5861,3.5861,3.5861,3.6052,3.6115,3.5861,3.5861,3.5733,3.5504,3.602,3.6554,3.6984,3.7331,3.745,3.7361,3.7361,3.7301,3.7195,3.6739,3.646,3.6367,3.6367,3.6178,3.5861,3.5861,3.5716,3.5504,3.5504,3.5504,3.5504,3.5504,3.5504,3.5504,3.5504,3.5504,3.5504,3.5604,3.5604,3.5604,3.6162,3.6582,3.688,3.688,3.688,3.688,3.688,3.688,3.688,3.688,3.688,3.7049,3.7372,3.7424,3.7729,3.8612,3.8664,3.8885,3.9373,3.9388,3.9388,3.9388,3.7286,3.635,3.6851,3.6222,3.5774,3.5504,3.5504,3.5504,3.5504,3.5504,3.5876,3.6492,3.6132,3.6569,3.745,3.677,3.6892,3.745,3.677,3.6585,3.6662,3.6336,3.5988,3.5748,3.6004,3.6147,3.6258,3.6739,3.6892,3.6862,3.6739,3.6554,3.6429,3.6647,3.6693,3.6724,3.6862,3.6938,3.6908,3.6492,3.6147,3.594,3.6147,3.6195,3.6273,3.646,3.6785,3.6938,3.6754,3.6969,3.709,3.6739,3.6523,3.6367,3.6241,3.6195,3.6195,3.6195,3.6367,3.6429,3.6241,3.6195,3.6115,3.5908,3.6273,3.6647,3.6969,3.7331,3.751,3.751,3.751,3.751,3.751,3.7105,3.6831,3.6693,3.6693,3.6523,3.6195,3.6195,3.6084,3.5908,3.5908,3.5812,3.5716,3.5716,3.5619,3.5504,3.5504,3.5504,3.5504,3.5604,3.5589,3.5604,3.7011,3.7074,3.7127,3.7127,3.7127,3.7127,3.7127,3.7127,3.7127,3.7127,3.7127,3.741,3.8225,3.8315,3.8612,3.9352,3.9388,3.9388,3.9388,3.9388,3.9388,3.9388,3.8242,3.7524,3.7404,3.6746,3.6103,3.5504,3.5504,3.5504,3.5504,3.5504,3.5844,3.6429,3.6147,3.6538,3.7361,3.68,3.6892,3.7391,3.6831,3.6739,3.6984,3.6662,3.6336,3.6132,3.6754,3.6785,3.6647,3.7285,3.751,3.745,3.7151,3.7015,3.7015,3.7045,3.7015,3.706,3.7421,3.7271,3.703,3.703,3.6816,3.6585,3.6554,3.6554,3.6554,3.6585,3.6847,3.703,3.703,3.7301,3.7391,3.709,3.7015,3.6877,3.6585,3.6554,3.6554,3.6554,3.6585,3.6585,3.6554,3.6523,3.6523,3.6554,3.6554,3.6677,3.7045,3.7331,3.751,3.751,3.751,3.751,3.751,3.751,3.7361,3.703,3.703,3.6877,3.6554,3.6554,3.6523,3.6492,3.6492,3.6336,3.6037,3.6037,3.5861,3.5569,3.5569,3.5569,3.5504,3.5537,3.5604,3.5655,3.791,3.8449,3.887,3.887,3.887,3.887,3.887,3.887,3.887,3.887,3.887,3.8943,3.9119,3.9156,3.9192,3.9388,3.9388,3.9388,3.9388,3.9388,3.9388,3.9388,3.914,3.8482,3.7434,3.6297,3.5654,3.5504,3.5504,3.5504,3.5504,3.5504,3.5716,3.61,3.6037,3.6258,3.6708,3.6847,3.6969,3.7121,3.7241,3.7181,3.6984,3.6908,3.6677,3.6398,3.6554,3.6724,3.6938,3.7361,3.751,3.748,3.7421,3.7211,3.7045,3.7301,3.7211,3.706,3.7421,3.745,3.7391,3.7391,3.7331,3.7195,3.6938,3.6877,3.6969,3.7241,3.7361,3.7391,3.7391,3.745,3.748,3.7391,3.7181,3.6969,3.6908,3.6877,3.6877,3.6877,3.7121,3.7181,3.6908,3.6647,3.6616,3.6877,3.6877,3.703,3.7361,3.745,3.751,3.751,3.751,3.751,3.751,3.751,3.745,3.7391,3.7391,3.7211,3.6877,3.6877,3.6754,3.6492,3.6492,3.646,3.6398,3.6398,3.621,3.5925,3.6178,3.5972,3.5537,3.5797,3.5621,3.5311,3.8775,3.9119,3.9388,3.9388,3.9388,3.9388,3.9388,3.9388,3.9388,3.9388,3.9388,3.9388,3.9388,3.9388,3.9388,3.9388,3.9388,3.9388,3.9388,3.9388,3.9388,3.9388,3.9095,3.8452,3.7434,3.6462,3.5818,3.5504,3.5504,3.5504,3.5504,3.5504,3.5683,3.6005,3.6005,3.6273,3.6754,3.6923,3.709,3.7241,3.7421,3.7391,3.7241,3.7241,3.703,3.6754,3.6923,3.7075,3.7271,3.745,3.751,3.751,3.751,3.7391,3.7271,3.745,3.7391,3.7271,3.745,3.751,3.751,3.751,3.751,3.745,3.7271,3.7241,3.7271,3.745,3.751,3.751,3.751,3.751,3.751,3.751,3.7361,3.7241,3.7241,3.7241,3.7241,3.7241,3.7391,3.7421,3.7241,3.6938,3.6816,3.6984,3.7015,3.7076,3.7241,3.7421,3.751,3.751,3.751,3.751,3.751,3.751,3.751,3.751,3.751,3.7421,3.7241,3.7241,3.7151,3.6984,3.6984,3.6908,3.6754,3.6754,3.6554,3.6273,3.6429,3.6273,3.5957,3.5878,3.5524,3.5082,3.9388,3.9388,3.9388,3.9388,3.9388,3.9388,3.9388,3.9388,3.9388,3.9388,3.9388,3.9388,3.9388,3.9388,3.9388,3.9388,3.9388,3.9388,3.9388,3.9388,3.9388,3.9388,3.8871,3.8257,3.7599,3.6971,3.6267,3.5504,3.5504,3.5504,3.5504,3.5504,3.5651,3.591,3.591,3.6273,3.6847,3.6877,3.7121,3.7421,3.748,3.751,3.751,3.751,3.7331,3.7121,3.7391,3.751,3.751,3.751,3.751,3.751,3.751,3.751,3.751,3.751,3.751,3.751,3.751,3.751,3.751,3.751,3.751,3.751,3.751,3.751,3.751,3.751,3.751,3.751,3.751,3.751,3.751,3.751,3.751,3.751,3.751,3.751,3.751,3.751,3.751,3.751,3.751,3.7241,3.7106,3.7106,3.7106,3.7106,3.7106,3.7361,3.751,3.751,3.751,3.751,3.751,3.751,3.751,3.751,3.751,3.751,3.751,3.751,3.751,3.751,3.751,3.7331,3.703,3.703,3.6847,3.6554,3.6616,3.6554,3.6383,3.5943,3.5429,3.4968,3.9388,3.9388,3.9388,3.9388,3.9388,3.9388,3.9388,3.9388,3.9388,3.9388,3.9388,3.9388,3.9388,3.9388,3.9388,3.9388,3.9388,3.9388,3.9388,3.9388,3.9388,3.9388,3.9334,3.896,3.8272,3.7629,3.6701,3.5504,3.5504,3.5504,3.5504,3.5504,3.5537,3.5569,3.5569,3.578,3.6163,3.6429,3.6754,3.709,3.7391,3.751,3.751,3.751,3.748,3.745,3.748,3.751,3.751,3.751,3.751,3.751,3.751,3.751,3.751,3.751,3.751,3.751,3.751,3.751,3.751,3.751,3.751,3.751,3.751,3.751,3.751,3.751,3.751,3.751,3.751,3.751,3.751,3.751,3.751,3.751,3.751,3.751,3.751,3.751,3.751,3.751,3.751,3.745,3.7421,3.7421,3.7421,3.7421,3.7421,3.748,3.751,3.751,3.751,3.751,3.751,3.751,3.751,3.751,3.751,3.751,3.751,3.751,3.751,3.751,3.751,3.7375,3.7164,3.7164,3.6998,3.6693,3.6983,3.6769,3.6242,3.6164,3.5703,3.518,3.9388,3.9388,3.9388,3.9388,3.9388,3.9388,3.9388,3.9388,3.9388,3.9388,3.9388,3.9388,3.9388,3.9388,3.9388,3.9388,3.9388,3.9388,3.9388,3.9388,3.9388,3.9388,3.9388,3.9095,3.8407,3.8108,3.7509,3.6567,3.5848,3.5504,3.5504,3.5504,3.5504,3.5504,3.5504,3.5683,3.6005,3.6163,3.6429,3.6754,3.709,3.7211,3.7241,3.7421,3.751,3.751,3.751,3.751,3.751,3.751,3.751,3.751,3.751,3.7749,3.8065,3.8065,3.8065,3.8128,3.8507,3.8333,3.8144,3.8507,3.8333,3.8065,3.8065,3.7765,3.7621,3.7986,3.8065,3.8175,3.8539,3.8302,3.8065,3.8065,3.7733,3.751,3.751,3.751,3.751,3.751,3.751,3.751,3.751,3.7756,3.7943,3.7943,3.8258,3.8298,3.7956,3.7943,3.7815,3.751,3.7786,3.7915,3.7844,3.8173,3.8286,3.8217,3.8286,3.8046,3.751,3.751,3.751,3.748,3.7375,3.7284,3.7178,3.7119,3.6984,3.6923,3.7403,3.7429,3.7189,3.7041,3.66,3.6025]}]]